<?xml version="1.0" encoding="UTF-8" standalone="no" ?>
<gpx xmlns="http://www.topografix.com/GPX/1/1" xmlns:xsi="http://www.w3.org/2001/XMLSchema-instance" xsi:schemaLocation="http://www.topografix.com/GPX/1/1 http://www.topografix.com/GPX/1/1/gpx.xsd" version="1.1" creator="VisuGPX - https://www.visugpx.com">
  <metadata>
    <name>ALLAn pigranier claves roucoulette</name>
    <desc><![CDATA[la montée du ravin de pigranier est un peu raide, les claves et le retour par Roucoulette et Bizard]]></desc>
  </metadata>
  <trk>
    <name><![CDATA[04-JAN-15 12-03-53]]></name>
    <trkseg>
      <trkpt lat="44.50486" lon="4.81002">
        <ele>227.01</ele>
        <time>2015-01-04T08:38:18Z</time>
      </trkpt>
      <trkpt lat="44.50491" lon="4.81014">
        <ele>214.99</ele>
        <time>2015-01-04T08:38:20Z</time>
      </trkpt>
      <trkpt lat="44.50493" lon="4.8102">
        <ele>214.99</ele>
        <time>2015-01-04T08:38:21Z</time>
      </trkpt>
      <trkpt lat="44.50509" lon="4.81061">
        <ele>214.51</ele>
        <time>2015-01-04T08:38:28Z</time>
      </trkpt>
      <trkpt lat="44.50523" lon="4.81127">
        <ele>215.47</ele>
        <time>2015-01-04T08:38:39Z</time>
      </trkpt>
      <trkpt lat="44.50524" lon="4.81133">
        <ele>215.47</ele>
        <time>2015-01-04T08:38:40Z</time>
      </trkpt>
      <trkpt lat="44.50527" lon="4.81157">
        <ele>215.47</ele>
        <time>2015-01-04T08:38:44Z</time>
      </trkpt>
      <trkpt lat="44.50537" lon="4.81239">
        <ele>216.91</ele>
        <time>2015-01-04T08:38:59Z</time>
      </trkpt>
      <trkpt lat="44.50566" lon="4.81287">
        <ele>216.91</ele>
        <time>2015-01-04T08:39:10Z</time>
      </trkpt>
      <trkpt lat="44.50617" lon="4.81341">
        <ele>217.88</ele>
        <time>2015-01-04T08:39:25Z</time>
      </trkpt>
      <trkpt lat="44.50658" lon="4.81389">
        <ele>219.8</ele>
        <time>2015-01-04T08:39:39Z</time>
      </trkpt>
      <trkpt lat="44.50686" lon="4.81428">
        <ele>221.72</ele>
        <time>2015-01-04T08:39:51Z</time>
      </trkpt>
      <trkpt lat="44.50711" lon="4.81462">
        <ele>223.64</ele>
        <time>2015-01-04T08:40:03Z</time>
      </trkpt>
      <trkpt lat="44.50738" lon="4.81499">
        <ele>224.12</ele>
        <time>2015-01-04T08:40:14Z</time>
      </trkpt>
      <trkpt lat="44.50779" lon="4.81525">
        <ele>226.05</ele>
        <time>2015-01-04T08:40:27Z</time>
      </trkpt>
      <trkpt lat="44.50784" lon="4.81533">
        <ele>226.53</ele>
        <time>2015-01-04T08:40:30Z</time>
      </trkpt>
      <trkpt lat="44.50784" lon="4.8157">
        <ele>229.89</ele>
        <time>2015-01-04T08:40:41Z</time>
      </trkpt>
      <trkpt lat="44.50785" lon="4.8161">
        <ele>232.78</ele>
        <time>2015-01-04T08:40:52Z</time>
      </trkpt>
      <trkpt lat="44.50789" lon="4.81653">
        <ele>235.18</ele>
        <time>2015-01-04T08:41:04Z</time>
      </trkpt>
      <trkpt lat="44.50786" lon="4.8167">
        <ele>236.14</ele>
        <time>2015-01-04T08:41:09Z</time>
      </trkpt>
      <trkpt lat="44.50788" lon="4.81713">
        <ele>236.14</ele>
        <time>2015-01-04T08:41:20Z</time>
      </trkpt>
      <trkpt lat="44.50795" lon="4.8176">
        <ele>237.58</ele>
        <time>2015-01-04T08:41:32Z</time>
      </trkpt>
      <trkpt lat="44.50801" lon="4.81803">
        <ele>238.06</ele>
        <time>2015-01-04T08:41:44Z</time>
      </trkpt>
      <trkpt lat="44.50815" lon="4.81831">
        <ele>239.51</ele>
        <time>2015-01-04T08:41:54Z</time>
      </trkpt>
      <trkpt lat="44.50814" lon="4.81843">
        <ele>240.47</ele>
        <time>2015-01-04T08:41:58Z</time>
      </trkpt>
      <trkpt lat="44.50814" lon="4.81852">
        <ele>241.91</ele>
        <time>2015-01-04T08:42:01Z</time>
      </trkpt>
      <trkpt lat="44.50813" lon="4.81857">
        <ele>242.87</ele>
        <time>2015-01-04T08:42:03Z</time>
      </trkpt>
      <trkpt lat="44.50819" lon="4.81878">
        <ele>245.27</ele>
        <time>2015-01-04T08:42:10Z</time>
      </trkpt>
      <trkpt lat="44.50824" lon="4.81887">
        <ele>245.27</ele>
        <time>2015-01-04T08:42:13Z</time>
      </trkpt>
      <trkpt lat="44.5083" lon="4.81897">
        <ele>247.2</ele>
        <time>2015-01-04T08:42:17Z</time>
      </trkpt>
      <trkpt lat="44.50838" lon="4.81904">
        <ele>247.68</ele>
        <time>2015-01-04T08:42:21Z</time>
      </trkpt>
      <trkpt lat="44.50844" lon="4.81912">
        <ele>248.64</ele>
        <time>2015-01-04T08:42:24Z</time>
      </trkpt>
      <trkpt lat="44.50852" lon="4.81945">
        <ele>251.52</ele>
        <time>2015-01-04T08:42:35Z</time>
      </trkpt>
      <trkpt lat="44.50855" lon="4.81958">
        <ele>251.52</ele>
        <time>2015-01-04T08:42:39Z</time>
      </trkpt>
      <trkpt lat="44.50863" lon="4.81995">
        <ele>253.93</ele>
        <time>2015-01-04T08:42:52Z</time>
      </trkpt>
      <trkpt lat="44.50864" lon="4.82019">
        <ele>254.89</ele>
        <time>2015-01-04T08:42:59Z</time>
      </trkpt>
      <trkpt lat="44.50863" lon="4.82033">
        <ele>255.37</ele>
        <time>2015-01-04T08:43:03Z</time>
      </trkpt>
      <trkpt lat="44.50869" lon="4.82094">
        <ele>254.89</ele>
        <time>2015-01-04T08:43:17Z</time>
      </trkpt>
      <trkpt lat="44.50874" lon="4.82144">
        <ele>252.96</ele>
        <time>2015-01-04T08:43:25Z</time>
      </trkpt>
      <trkpt lat="44.50876" lon="4.8215">
        <ele>252.48</ele>
        <time>2015-01-04T08:43:26Z</time>
      </trkpt>
      <trkpt lat="44.50878" lon="4.82157">
        <ele>252.48</ele>
        <time>2015-01-04T08:43:27Z</time>
      </trkpt>
      <trkpt lat="44.50883" lon="4.82172">
        <ele>250.56</ele>
        <time>2015-01-04T08:43:29Z</time>
      </trkpt>
      <trkpt lat="44.50886" lon="4.82178">
        <ele>251.04</ele>
        <time>2015-01-04T08:43:30Z</time>
      </trkpt>
      <trkpt lat="44.5089" lon="4.82184">
        <ele>250.56</ele>
        <time>2015-01-04T08:43:31Z</time>
      </trkpt>
      <trkpt lat="44.50895" lon="4.82189">
        <ele>250.08</ele>
        <time>2015-01-04T08:43:32Z</time>
      </trkpt>
      <trkpt lat="44.509" lon="4.82195">
        <ele>249.6</ele>
        <time>2015-01-04T08:43:33Z</time>
      </trkpt>
      <trkpt lat="44.50902" lon="4.82202">
        <ele>249.6</ele>
        <time>2015-01-04T08:43:34Z</time>
      </trkpt>
      <trkpt lat="44.50903" lon="4.8221">
        <ele>249.12</ele>
        <time>2015-01-04T08:43:35Z</time>
      </trkpt>
      <trkpt lat="44.50904" lon="4.82225">
        <ele>249.12</ele>
        <time>2015-01-04T08:43:37Z</time>
      </trkpt>
      <trkpt lat="44.50903" lon="4.82233">
        <ele>248.16</ele>
        <time>2015-01-04T08:43:38Z</time>
      </trkpt>
      <trkpt lat="44.50903" lon="4.82242">
        <ele>247.68</ele>
        <time>2015-01-04T08:43:39Z</time>
      </trkpt>
      <trkpt lat="44.50902" lon="4.82266">
        <ele>246.23</ele>
        <time>2015-01-04T08:43:42Z</time>
      </trkpt>
      <trkpt lat="44.509" lon="4.82274">
        <ele>245.27</ele>
        <time>2015-01-04T08:43:43Z</time>
      </trkpt>
      <trkpt lat="44.50898" lon="4.82282">
        <ele>245.27</ele>
        <time>2015-01-04T08:43:44Z</time>
      </trkpt>
      <trkpt lat="44.50893" lon="4.82288">
        <ele>244.79</ele>
        <time>2015-01-04T08:43:45Z</time>
      </trkpt>
      <trkpt lat="44.50889" lon="4.82294">
        <ele>244.79</ele>
        <time>2015-01-04T08:43:46Z</time>
      </trkpt>
      <trkpt lat="44.50885" lon="4.823">
        <ele>244.31</ele>
        <time>2015-01-04T08:43:47Z</time>
      </trkpt>
      <trkpt lat="44.50882" lon="4.82307">
        <ele>244.31</ele>
        <time>2015-01-04T08:43:48Z</time>
      </trkpt>
      <trkpt lat="44.5088" lon="4.82313">
        <ele>244.31</ele>
        <time>2015-01-04T08:43:49Z</time>
      </trkpt>
      <trkpt lat="44.50879" lon="4.82321">
        <ele>243.83</ele>
        <time>2015-01-04T08:43:50Z</time>
      </trkpt>
      <trkpt lat="44.50879" lon="4.82329">
        <ele>243.83</ele>
        <time>2015-01-04T08:43:51Z</time>
      </trkpt>
      <trkpt lat="44.50881" lon="4.82336">
        <ele>242.87</ele>
        <time>2015-01-04T08:43:52Z</time>
      </trkpt>
      <trkpt lat="44.50882" lon="4.82343">
        <ele>242.87</ele>
        <time>2015-01-04T08:43:53Z</time>
      </trkpt>
      <trkpt lat="44.50884" lon="4.82349">
        <ele>242.87</ele>
        <time>2015-01-04T08:43:54Z</time>
      </trkpt>
      <trkpt lat="44.50886" lon="4.82353">
        <ele>242.39</ele>
        <time>2015-01-04T08:43:55Z</time>
      </trkpt>
      <trkpt lat="44.50893" lon="4.82364">
        <ele>242.87</ele>
        <time>2015-01-04T08:44:04Z</time>
      </trkpt>
      <trkpt lat="44.50895" lon="4.82364">
        <ele>242.87</ele>
        <time>2015-01-04T08:44:29Z</time>
      </trkpt>
      <trkpt lat="44.50892" lon="4.82361">
        <ele>242.87</ele>
        <time>2015-01-04T08:44:50Z</time>
      </trkpt>
      <trkpt lat="44.5089" lon="4.82362">
        <ele>243.35</ele>
        <time>2015-01-04T08:44:52Z</time>
      </trkpt>
      <trkpt lat="44.50888" lon="4.82361">
        <ele>242.87</ele>
        <time>2015-01-04T08:44:53Z</time>
      </trkpt>
      <trkpt lat="44.50886" lon="4.82361">
        <ele>242.87</ele>
        <time>2015-01-04T08:44:54Z</time>
      </trkpt>
      <trkpt lat="44.50885" lon="4.82361">
        <ele>242.87</ele>
        <time>2015-01-04T08:44:55Z</time>
      </trkpt>
      <trkpt lat="44.50884" lon="4.82362">
        <ele>242.87</ele>
        <time>2015-01-04T08:44:56Z</time>
      </trkpt>
      <trkpt lat="44.50879" lon="4.82363">
        <ele>244.31</ele>
        <time>2015-01-04T08:44:59Z</time>
      </trkpt>
      <trkpt lat="44.50877" lon="4.82364">
        <ele>243.83</ele>
        <time>2015-01-04T08:45:01Z</time>
      </trkpt>
      <trkpt lat="44.50853" lon="4.82369">
        <ele>245.27</ele>
        <time>2015-01-04T08:45:14Z</time>
      </trkpt>
      <trkpt lat="44.50826" lon="4.82372">
        <ele>247.68</ele>
        <time>2015-01-04T08:45:27Z</time>
      </trkpt>
      <trkpt lat="44.50819" lon="4.82376">
        <ele>248.64</ele>
        <time>2015-01-04T08:45:32Z</time>
      </trkpt>
      <trkpt lat="44.50815" lon="4.82379">
        <ele>249.6</ele>
        <time>2015-01-04T08:45:35Z</time>
      </trkpt>
      <trkpt lat="44.50798" lon="4.8238">
        <ele>252.48</ele>
        <time>2015-01-04T08:45:46Z</time>
      </trkpt>
      <trkpt lat="44.5079" lon="4.82384">
        <ele>254.41</ele>
        <time>2015-01-04T08:45:56Z</time>
      </trkpt>
      <trkpt lat="44.50777" lon="4.82384">
        <ele>256.81</ele>
        <time>2015-01-04T08:46:07Z</time>
      </trkpt>
      <trkpt lat="44.50764" lon="4.82377">
        <ele>258.25</ele>
        <time>2015-01-04T08:46:21Z</time>
      </trkpt>
      <trkpt lat="44.50758" lon="4.82377">
        <ele>257.77</ele>
        <time>2015-01-04T08:46:29Z</time>
      </trkpt>
      <trkpt lat="44.50743" lon="4.82383">
        <ele>260.65</ele>
        <time>2015-01-04T08:46:41Z</time>
      </trkpt>
      <trkpt lat="44.50732" lon="4.82385">
        <ele>262.1</ele>
        <time>2015-01-04T08:46:48Z</time>
      </trkpt>
      <trkpt lat="44.50715" lon="4.82382">
        <ele>264.02</ele>
        <time>2015-01-04T08:47:00Z</time>
      </trkpt>
      <trkpt lat="44.50703" lon="4.82384">
        <ele>266.9</ele>
        <time>2015-01-04T08:47:09Z</time>
      </trkpt>
      <trkpt lat="44.50702" lon="4.82385">
        <ele>266.42</ele>
        <time>2015-01-04T08:47:10Z</time>
      </trkpt>
      <trkpt lat="44.50688" lon="4.82386">
        <ele>267.86</ele>
        <time>2015-01-04T08:47:22Z</time>
      </trkpt>
      <trkpt lat="44.50666" lon="4.82395">
        <ele>269.79</ele>
        <time>2015-01-04T08:47:34Z</time>
      </trkpt>
      <trkpt lat="44.50641" lon="4.82401">
        <ele>270.75</ele>
        <time>2015-01-04T08:47:47Z</time>
      </trkpt>
      <trkpt lat="44.50618" lon="4.82402">
        <ele>272.19</ele>
        <time>2015-01-04T08:47:59Z</time>
      </trkpt>
      <trkpt lat="44.50616" lon="4.82402">
        <ele>272.19</ele>
        <time>2015-01-04T08:48:00Z</time>
      </trkpt>
      <trkpt lat="44.50591" lon="4.82404">
        <ele>275.56</ele>
        <time>2015-01-04T08:48:14Z</time>
      </trkpt>
      <trkpt lat="44.50574" lon="4.82407">
        <ele>278.44</ele>
        <time>2015-01-04T08:48:24Z</time>
      </trkpt>
      <trkpt lat="44.50559" lon="4.82403">
        <ele>281.32</ele>
        <time>2015-01-04T08:48:35Z</time>
      </trkpt>
      <trkpt lat="44.50553" lon="4.82398">
        <ele>283.25</ele>
        <time>2015-01-04T08:48:40Z</time>
      </trkpt>
      <trkpt lat="44.50543" lon="4.82389">
        <ele>286.13</ele>
        <time>2015-01-04T08:48:48Z</time>
      </trkpt>
      <trkpt lat="44.50539" lon="4.82387">
        <ele>286.61</ele>
        <time>2015-01-04T08:48:51Z</time>
      </trkpt>
      <trkpt lat="44.50536" lon="4.82383">
        <ele>288.53</ele>
        <time>2015-01-04T08:48:54Z</time>
      </trkpt>
      <trkpt lat="44.50534" lon="4.82381">
        <ele>288.05</ele>
        <time>2015-01-04T08:48:56Z</time>
      </trkpt>
      <trkpt lat="44.50523" lon="4.82371">
        <ele>290.46</ele>
        <time>2015-01-04T08:49:07Z</time>
      </trkpt>
      <trkpt lat="44.50518" lon="4.82367">
        <ele>290.94</ele>
        <time>2015-01-04T08:49:10Z</time>
      </trkpt>
      <trkpt lat="44.5051" lon="4.82361">
        <ele>290.94</ele>
        <time>2015-01-04T08:49:14Z</time>
      </trkpt>
      <trkpt lat="44.50487" lon="4.82342">
        <ele>292.38</ele>
        <time>2015-01-04T08:49:28Z</time>
      </trkpt>
      <trkpt lat="44.50468" lon="4.82329">
        <ele>293.34</ele>
        <time>2015-01-04T08:49:40Z</time>
      </trkpt>
      <trkpt lat="44.50465" lon="4.82328">
        <ele>293.82</ele>
        <time>2015-01-04T08:49:42Z</time>
      </trkpt>
      <trkpt lat="44.50447" lon="4.82319">
        <ele>296.7</ele>
        <time>2015-01-04T08:49:55Z</time>
      </trkpt>
      <trkpt lat="44.5044" lon="4.82318">
        <ele>297.18</ele>
        <time>2015-01-04T08:49:59Z</time>
      </trkpt>
      <trkpt lat="44.50411" lon="4.82317">
        <ele>298.63</ele>
        <time>2015-01-04T08:50:13Z</time>
      </trkpt>
      <trkpt lat="44.50391" lon="4.8231">
        <ele>301.03</ele>
        <time>2015-01-04T08:50:25Z</time>
      </trkpt>
      <trkpt lat="44.50372" lon="4.8231">
        <ele>302.47</ele>
        <time>2015-01-04T08:50:36Z</time>
      </trkpt>
      <trkpt lat="44.50368" lon="4.82308">
        <ele>302.95</ele>
        <time>2015-01-04T08:50:38Z</time>
      </trkpt>
      <trkpt lat="44.50361" lon="4.82306">
        <ele>303.91</ele>
        <time>2015-01-04T08:50:42Z</time>
      </trkpt>
      <trkpt lat="44.50354" lon="4.82304">
        <ele>305.36</ele>
        <time>2015-01-04T08:50:47Z</time>
      </trkpt>
      <trkpt lat="44.50351" lon="4.82302">
        <ele>305.84</ele>
        <time>2015-01-04T08:50:49Z</time>
      </trkpt>
      <trkpt lat="44.50341" lon="4.82297">
        <ele>307.76</ele>
        <time>2015-01-04T08:50:56Z</time>
      </trkpt>
      <trkpt lat="44.50324" lon="4.8229">
        <ele>309.68</ele>
        <time>2015-01-04T08:51:07Z</time>
      </trkpt>
      <trkpt lat="44.50316" lon="4.82288">
        <ele>311.6</ele>
        <time>2015-01-04T08:51:12Z</time>
      </trkpt>
      <trkpt lat="44.50297" lon="4.82292">
        <ele>312.09</ele>
        <time>2015-01-04T08:51:22Z</time>
      </trkpt>
      <trkpt lat="44.50292" lon="4.82287">
        <ele>313.05</ele>
        <time>2015-01-04T08:51:27Z</time>
      </trkpt>
      <trkpt lat="44.5027" lon="4.82296">
        <ele>315.45</ele>
        <time>2015-01-04T08:51:39Z</time>
      </trkpt>
      <trkpt lat="44.50251" lon="4.82297">
        <ele>318.81</ele>
        <time>2015-01-04T08:51:51Z</time>
      </trkpt>
      <trkpt lat="44.50245" lon="4.82297">
        <ele>319.3</ele>
        <time>2015-01-04T08:51:55Z</time>
      </trkpt>
      <trkpt lat="44.50227" lon="4.82291">
        <ele>323.14</ele>
        <time>2015-01-04T08:52:07Z</time>
      </trkpt>
      <trkpt lat="44.50218" lon="4.82292">
        <ele>324.1</ele>
        <time>2015-01-04T08:52:11Z</time>
      </trkpt>
      <trkpt lat="44.50212" lon="4.8229">
        <ele>325.06</ele>
        <time>2015-01-04T08:52:15Z</time>
      </trkpt>
      <trkpt lat="44.50207" lon="4.82287">
        <ele>326.5</ele>
        <time>2015-01-04T08:52:20Z</time>
      </trkpt>
      <trkpt lat="44.50202" lon="4.82286">
        <ele>326.5</ele>
        <time>2015-01-04T08:52:23Z</time>
      </trkpt>
      <trkpt lat="44.50199" lon="4.82288">
        <ele>326.5</ele>
        <time>2015-01-04T08:52:25Z</time>
      </trkpt>
      <trkpt lat="44.50186" lon="4.82302">
        <ele>324.58</ele>
        <time>2015-01-04T08:52:30Z</time>
      </trkpt>
      <trkpt lat="44.50184" lon="4.82307">
        <ele>324.1</ele>
        <time>2015-01-04T08:52:31Z</time>
      </trkpt>
      <trkpt lat="44.5018" lon="4.82316">
        <ele>323.14</ele>
        <time>2015-01-04T08:52:33Z</time>
      </trkpt>
      <trkpt lat="44.50177" lon="4.82325">
        <ele>321.7</ele>
        <time>2015-01-04T08:52:35Z</time>
      </trkpt>
      <trkpt lat="44.50176" lon="4.8233">
        <ele>321.7</ele>
        <time>2015-01-04T08:52:36Z</time>
      </trkpt>
      <trkpt lat="44.50177" lon="4.82337">
        <ele>323.14</ele>
        <time>2015-01-04T08:52:39Z</time>
      </trkpt>
      <trkpt lat="44.50183" lon="4.8234">
        <ele>324.1</ele>
        <time>2015-01-04T08:52:50Z</time>
      </trkpt>
      <trkpt lat="44.50184" lon="4.82346">
        <ele>324.1</ele>
        <time>2015-01-04T08:53:02Z</time>
      </trkpt>
      <trkpt lat="44.50183" lon="4.82347">
        <ele>324.58</ele>
        <time>2015-01-04T08:53:18Z</time>
      </trkpt>
      <trkpt lat="44.50183" lon="4.82347">
        <ele>324.58</ele>
        <time>2015-01-04T08:53:41Z</time>
      </trkpt>
      <trkpt lat="44.50184" lon="4.82347">
        <ele>324.58</ele>
        <time>2015-01-04T08:54:06Z</time>
      </trkpt>
      <trkpt lat="44.50184" lon="4.82347">
        <ele>325.06</ele>
        <time>2015-01-04T08:54:30Z</time>
      </trkpt>
      <trkpt lat="44.50185" lon="4.82345">
        <ele>324.58</ele>
        <time>2015-01-04T08:54:52Z</time>
      </trkpt>
      <trkpt lat="44.50184" lon="4.82346">
        <ele>324.58</ele>
        <time>2015-01-04T08:55:19Z</time>
      </trkpt>
      <trkpt lat="44.50185" lon="4.82347">
        <ele>324.58</ele>
        <time>2015-01-04T08:55:47Z</time>
      </trkpt>
      <trkpt lat="44.50185" lon="4.82346">
        <ele>324.58</ele>
        <time>2015-01-04T08:56:09Z</time>
      </trkpt>
      <trkpt lat="44.50186" lon="4.82347">
        <ele>325.06</ele>
        <time>2015-01-04T08:56:39Z</time>
      </trkpt>
      <trkpt lat="44.50186" lon="4.82346">
        <ele>324.58</ele>
        <time>2015-01-04T08:57:04Z</time>
      </trkpt>
      <trkpt lat="44.50186" lon="4.82346">
        <ele>325.06</ele>
        <time>2015-01-04T08:57:33Z</time>
      </trkpt>
      <trkpt lat="44.50186" lon="4.82346">
        <ele>325.06</ele>
        <time>2015-01-04T08:58:02Z</time>
      </trkpt>
      <trkpt lat="44.50185" lon="4.82346">
        <ele>325.06</ele>
        <time>2015-01-04T08:58:35Z</time>
      </trkpt>
      <trkpt lat="44.50185" lon="4.82346">
        <ele>324.58</ele>
        <time>2015-01-04T08:59:04Z</time>
      </trkpt>
      <trkpt lat="44.50186" lon="4.82346">
        <ele>325.06</ele>
        <time>2015-01-04T08:59:30Z</time>
      </trkpt>
      <trkpt lat="44.50186" lon="4.82346">
        <ele>325.06</ele>
        <time>2015-01-04T08:59:58Z</time>
      </trkpt>
      <trkpt lat="44.50186" lon="4.82347">
        <ele>325.06</ele>
        <time>2015-01-04T09:00:30Z</time>
      </trkpt>
      <trkpt lat="44.50179" lon="4.82355">
        <ele>326.99</ele>
        <time>2015-01-04T09:00:44Z</time>
      </trkpt>
      <trkpt lat="44.50171" lon="4.82365">
        <ele>329.87</ele>
        <time>2015-01-04T09:00:56Z</time>
      </trkpt>
      <trkpt lat="44.5017" lon="4.82365">
        <ele>330.35</ele>
        <time>2015-01-04T09:00:57Z</time>
      </trkpt>
      <trkpt lat="44.5016" lon="4.82377">
        <ele>332.27</ele>
        <time>2015-01-04T09:01:10Z</time>
      </trkpt>
      <trkpt lat="44.50153" lon="4.82384">
        <ele>334.68</ele>
        <time>2015-01-04T09:01:20Z</time>
      </trkpt>
      <trkpt lat="44.50147" lon="4.82383">
        <ele>335.16</ele>
        <time>2015-01-04T09:01:25Z</time>
      </trkpt>
      <trkpt lat="44.50146" lon="4.82376">
        <ele>336.12</ele>
        <time>2015-01-04T09:01:29Z</time>
      </trkpt>
      <trkpt lat="44.50145" lon="4.82369">
        <ele>336.6</ele>
        <time>2015-01-04T09:01:34Z</time>
      </trkpt>
      <trkpt lat="44.50131" lon="4.82359">
        <ele>338.52</ele>
        <time>2015-01-04T09:01:50Z</time>
      </trkpt>
      <trkpt lat="44.50118" lon="4.82354">
        <ele>339.96</ele>
        <time>2015-01-04T09:02:03Z</time>
      </trkpt>
      <trkpt lat="44.50116" lon="4.82353">
        <ele>340.92</ele>
        <time>2015-01-04T09:02:12Z</time>
      </trkpt>
      <trkpt lat="44.50104" lon="4.82356">
        <ele>342.37</ele>
        <time>2015-01-04T09:02:21Z</time>
      </trkpt>
      <trkpt lat="44.50089" lon="4.82346">
        <ele>345.25</ele>
        <time>2015-01-04T09:02:33Z</time>
      </trkpt>
      <trkpt lat="44.50076" lon="4.8233">
        <ele>348.62</ele>
        <time>2015-01-04T09:02:46Z</time>
      </trkpt>
      <trkpt lat="44.50069" lon="4.82321">
        <ele>349.58</ele>
        <time>2015-01-04T09:02:57Z</time>
      </trkpt>
      <trkpt lat="44.50063" lon="4.82313">
        <ele>351.98</ele>
        <time>2015-01-04T09:03:10Z</time>
      </trkpt>
      <trkpt lat="44.50055" lon="4.82304">
        <ele>353.9</ele>
        <time>2015-01-04T09:03:22Z</time>
      </trkpt>
      <trkpt lat="44.50051" lon="4.82299">
        <ele>355.34</ele>
        <time>2015-01-04T09:03:26Z</time>
      </trkpt>
      <trkpt lat="44.5005" lon="4.82293">
        <ele>355.83</ele>
        <time>2015-01-04T09:03:30Z</time>
      </trkpt>
      <trkpt lat="44.50051" lon="4.82285">
        <ele>357.27</ele>
        <time>2015-01-04T09:03:41Z</time>
      </trkpt>
      <trkpt lat="44.50044" lon="4.8228">
        <ele>358.71</ele>
        <time>2015-01-04T09:03:50Z</time>
      </trkpt>
      <trkpt lat="44.50031" lon="4.82287">
        <ele>360.63</ele>
        <time>2015-01-04T09:04:00Z</time>
      </trkpt>
      <trkpt lat="44.50024" lon="4.8228">
        <ele>362.07</ele>
        <time>2015-01-04T09:04:13Z</time>
      </trkpt>
      <trkpt lat="44.50025" lon="4.82277">
        <ele>362.55</ele>
        <time>2015-01-04T09:04:19Z</time>
      </trkpt>
      <trkpt lat="44.50026" lon="4.82274">
        <ele>362.07</ele>
        <time>2015-01-04T09:04:21Z</time>
      </trkpt>
      <trkpt lat="44.50029" lon="4.82259">
        <ele>363.04</ele>
        <time>2015-01-04T09:04:29Z</time>
      </trkpt>
      <trkpt lat="44.50027" lon="4.82249">
        <ele>362.55</ele>
        <time>2015-01-04T09:04:45Z</time>
      </trkpt>
      <trkpt lat="44.50026" lon="4.82244">
        <ele>363.52</ele>
        <time>2015-01-04T09:05:02Z</time>
      </trkpt>
      <trkpt lat="44.50026" lon="4.82242">
        <ele>363.04</ele>
        <time>2015-01-04T09:05:21Z</time>
      </trkpt>
      <trkpt lat="44.50027" lon="4.82238">
        <ele>362.55</ele>
        <time>2015-01-04T09:05:29Z</time>
      </trkpt>
      <trkpt lat="44.50025" lon="4.82241">
        <ele>362.55</ele>
        <time>2015-01-04T09:05:43Z</time>
      </trkpt>
      <trkpt lat="44.5002" lon="4.82246">
        <ele>363.04</ele>
        <time>2015-01-04T09:05:51Z</time>
      </trkpt>
      <trkpt lat="44.50014" lon="4.82255">
        <ele>364</ele>
        <time>2015-01-04T09:05:57Z</time>
      </trkpt>
      <trkpt lat="44.49995" lon="4.82271">
        <ele>365.44</ele>
        <time>2015-01-04T09:06:11Z</time>
      </trkpt>
      <trkpt lat="44.49972" lon="4.82291">
        <ele>368.32</ele>
        <time>2015-01-04T09:06:28Z</time>
      </trkpt>
      <trkpt lat="44.49953" lon="4.823">
        <ele>370.73</ele>
        <time>2015-01-04T09:06:41Z</time>
      </trkpt>
      <trkpt lat="44.49929" lon="4.82307">
        <ele>372.17</ele>
        <time>2015-01-04T09:06:55Z</time>
      </trkpt>
      <trkpt lat="44.49902" lon="4.82319">
        <ele>374.57</ele>
        <time>2015-01-04T09:07:12Z</time>
      </trkpt>
      <trkpt lat="44.49896" lon="4.8232">
        <ele>375.53</ele>
        <time>2015-01-04T09:07:16Z</time>
      </trkpt>
      <trkpt lat="44.49875" lon="4.82323">
        <ele>376.97</ele>
        <time>2015-01-04T09:07:28Z</time>
      </trkpt>
      <trkpt lat="44.49863" lon="4.82321">
        <ele>377.94</ele>
        <time>2015-01-04T09:07:36Z</time>
      </trkpt>
      <trkpt lat="44.49839" lon="4.82304">
        <ele>378.9</ele>
        <time>2015-01-04T09:07:52Z</time>
      </trkpt>
      <trkpt lat="44.49814" lon="4.82289">
        <ele>381.78</ele>
        <time>2015-01-04T09:08:08Z</time>
      </trkpt>
      <trkpt lat="44.49789" lon="4.82278">
        <ele>382.74</ele>
        <time>2015-01-04T09:08:23Z</time>
      </trkpt>
      <trkpt lat="44.49767" lon="4.82267">
        <ele>385.15</ele>
        <time>2015-01-04T09:08:36Z</time>
      </trkpt>
      <trkpt lat="44.49744" lon="4.82262">
        <ele>388.03</ele>
        <time>2015-01-04T09:08:49Z</time>
      </trkpt>
      <trkpt lat="44.49717" lon="4.82263">
        <ele>388.51</ele>
        <time>2015-01-04T09:09:03Z</time>
      </trkpt>
      <trkpt lat="44.4969" lon="4.82269">
        <ele>389.95</ele>
        <time>2015-01-04T09:09:18Z</time>
      </trkpt>
      <trkpt lat="44.49663" lon="4.82277">
        <ele>392.36</ele>
        <time>2015-01-04T09:09:33Z</time>
      </trkpt>
      <trkpt lat="44.49637" lon="4.82287">
        <ele>395.24</ele>
        <time>2015-01-04T09:09:49Z</time>
      </trkpt>
      <trkpt lat="44.49613" lon="4.82296">
        <ele>398.12</ele>
        <time>2015-01-04T09:10:05Z</time>
      </trkpt>
      <trkpt lat="44.49593" lon="4.82303">
        <ele>400.05</ele>
        <time>2015-01-04T09:10:17Z</time>
      </trkpt>
      <trkpt lat="44.49572" lon="4.82314">
        <ele>403.41</ele>
        <time>2015-01-04T09:10:31Z</time>
      </trkpt>
      <trkpt lat="44.49549" lon="4.82329">
        <ele>406.29</ele>
        <time>2015-01-04T09:10:46Z</time>
      </trkpt>
      <trkpt lat="44.49523" lon="4.82349">
        <ele>407.74</ele>
        <time>2015-01-04T09:11:04Z</time>
      </trkpt>
      <trkpt lat="44.49519" lon="4.82351">
        <ele>407.26</ele>
        <time>2015-01-04T09:11:16Z</time>
      </trkpt>
      <trkpt lat="44.49519" lon="4.82351">
        <ele>407.74</ele>
        <time>2015-01-04T09:11:37Z</time>
      </trkpt>
      <trkpt lat="44.49519" lon="4.82352">
        <ele>407.74</ele>
        <time>2015-01-04T09:12:08Z</time>
      </trkpt>
      <trkpt lat="44.49519" lon="4.82351">
        <ele>408.22</ele>
        <time>2015-01-04T09:12:35Z</time>
      </trkpt>
      <trkpt lat="44.49516" lon="4.82347">
        <ele>407.74</ele>
        <time>2015-01-04T09:12:54Z</time>
      </trkpt>
      <trkpt lat="44.495" lon="4.82334">
        <ele>407.26</ele>
        <time>2015-01-04T09:13:04Z</time>
      </trkpt>
      <trkpt lat="44.49486" lon="4.82322">
        <ele>403.89</ele>
        <time>2015-01-04T09:13:11Z</time>
      </trkpt>
      <trkpt lat="44.49483" lon="4.82322">
        <ele>402.93</ele>
        <time>2015-01-04T09:13:12Z</time>
      </trkpt>
      <trkpt lat="44.49448" lon="4.82319">
        <ele>401.01</ele>
        <time>2015-01-04T09:13:21Z</time>
      </trkpt>
      <trkpt lat="44.49436" lon="4.82315">
        <ele>400.05</ele>
        <time>2015-01-04T09:13:24Z</time>
      </trkpt>
      <trkpt lat="44.49432" lon="4.82312">
        <ele>399.08</ele>
        <time>2015-01-04T09:13:25Z</time>
      </trkpt>
      <trkpt lat="44.49428" lon="4.82309">
        <ele>399.08</ele>
        <time>2015-01-04T09:13:26Z</time>
      </trkpt>
      <trkpt lat="44.49424" lon="4.82309">
        <ele>399.57</ele>
        <time>2015-01-04T09:13:27Z</time>
      </trkpt>
      <trkpt lat="44.49421" lon="4.8231">
        <ele>399.08</ele>
        <time>2015-01-04T09:13:28Z</time>
      </trkpt>
      <trkpt lat="44.49412" lon="4.82311">
        <ele>399.57</ele>
        <time>2015-01-04T09:13:31Z</time>
      </trkpt>
      <trkpt lat="44.49409" lon="4.8231">
        <ele>399.08</ele>
        <time>2015-01-04T09:13:32Z</time>
      </trkpt>
      <trkpt lat="44.49407" lon="4.8231">
        <ele>399.08</ele>
        <time>2015-01-04T09:13:33Z</time>
      </trkpt>
      <trkpt lat="44.49404" lon="4.8231">
        <ele>399.57</ele>
        <time>2015-01-04T09:13:34Z</time>
      </trkpt>
      <trkpt lat="44.49402" lon="4.82311">
        <ele>398.6</ele>
        <time>2015-01-04T09:13:35Z</time>
      </trkpt>
      <trkpt lat="44.49372" lon="4.8231">
        <ele>398.12</ele>
        <time>2015-01-04T09:13:45Z</time>
      </trkpt>
      <trkpt lat="44.49343" lon="4.8232">
        <ele>398.6</ele>
        <time>2015-01-04T09:13:55Z</time>
      </trkpt>
      <trkpt lat="44.49341" lon="4.82322">
        <ele>398.6</ele>
        <time>2015-01-04T09:13:56Z</time>
      </trkpt>
      <trkpt lat="44.49311" lon="4.82331">
        <ele>398.12</ele>
        <time>2015-01-04T09:14:08Z</time>
      </trkpt>
      <trkpt lat="44.49305" lon="4.82332">
        <ele>398.12</ele>
        <time>2015-01-04T09:14:10Z</time>
      </trkpt>
      <trkpt lat="44.4928" lon="4.8234">
        <ele>398.6</ele>
        <time>2015-01-04T09:14:20Z</time>
      </trkpt>
      <trkpt lat="44.49257" lon="4.82347">
        <ele>399.08</ele>
        <time>2015-01-04T09:14:30Z</time>
      </trkpt>
      <trkpt lat="44.4925" lon="4.82346">
        <ele>398.6</ele>
        <time>2015-01-04T09:14:33Z</time>
      </trkpt>
      <trkpt lat="44.49226" lon="4.82338">
        <ele>398.12</ele>
        <time>2015-01-04T09:14:43Z</time>
      </trkpt>
      <trkpt lat="44.49211" lon="4.82323">
        <ele>398.12</ele>
        <time>2015-01-04T09:14:51Z</time>
      </trkpt>
      <trkpt lat="44.49196" lon="4.82312">
        <ele>395.72</ele>
        <time>2015-01-04T09:14:56Z</time>
      </trkpt>
      <trkpt lat="44.49178" lon="4.82303">
        <ele>394.76</ele>
        <time>2015-01-04T09:15:02Z</time>
      </trkpt>
      <trkpt lat="44.49171" lon="4.82296">
        <ele>393.32</ele>
        <time>2015-01-04T09:15:06Z</time>
      </trkpt>
      <trkpt lat="44.4915" lon="4.82291">
        <ele>392.36</ele>
        <time>2015-01-04T09:15:16Z</time>
      </trkpt>
      <trkpt lat="44.49121" lon="4.82285">
        <ele>391.39</ele>
        <time>2015-01-04T09:15:26Z</time>
      </trkpt>
      <trkpt lat="44.49112" lon="4.82289">
        <ele>391.39</ele>
        <time>2015-01-04T09:15:29Z</time>
      </trkpt>
      <trkpt lat="44.49088" lon="4.82287">
        <ele>390.91</ele>
        <time>2015-01-04T09:15:39Z</time>
      </trkpt>
      <trkpt lat="44.49084" lon="4.82288">
        <ele>390.91</ele>
        <time>2015-01-04T09:15:41Z</time>
      </trkpt>
      <trkpt lat="44.49074" lon="4.82288">
        <ele>390.43</ele>
        <time>2015-01-04T09:15:46Z</time>
      </trkpt>
      <trkpt lat="44.49046" lon="4.82286">
        <ele>389.47</ele>
        <time>2015-01-04T09:15:57Z</time>
      </trkpt>
      <trkpt lat="44.49039" lon="4.82287">
        <ele>389.47</ele>
        <time>2015-01-04T09:16:00Z</time>
      </trkpt>
      <trkpt lat="44.49025" lon="4.82299">
        <ele>388.51</ele>
        <time>2015-01-04T09:16:06Z</time>
      </trkpt>
      <trkpt lat="44.49019" lon="4.82305">
        <ele>388.51</ele>
        <time>2015-01-04T09:16:15Z</time>
      </trkpt>
      <trkpt lat="44.49015" lon="4.82315">
        <ele>389.95</ele>
        <time>2015-01-04T09:16:37Z</time>
      </trkpt>
      <trkpt lat="44.49008" lon="4.82369">
        <ele>389.47</ele>
        <time>2015-01-04T09:16:54Z</time>
      </trkpt>
      <trkpt lat="44.49014" lon="4.82419">
        <ele>388.51</ele>
        <time>2015-01-04T09:17:05Z</time>
      </trkpt>
      <trkpt lat="44.49015" lon="4.82425">
        <ele>387.55</ele>
        <time>2015-01-04T09:17:06Z</time>
      </trkpt>
      <trkpt lat="44.49023" lon="4.82471">
        <ele>387.07</ele>
        <time>2015-01-04T09:17:17Z</time>
      </trkpt>
      <trkpt lat="44.49037" lon="4.82487">
        <ele>386.59</ele>
        <time>2015-01-04T09:17:27Z</time>
      </trkpt>
      <trkpt lat="44.49047" lon="4.82504">
        <ele>387.55</ele>
        <time>2015-01-04T09:17:35Z</time>
      </trkpt>
      <trkpt lat="44.49047" lon="4.82506">
        <ele>387.55</ele>
        <time>2015-01-04T09:17:36Z</time>
      </trkpt>
      <trkpt lat="44.49045" lon="4.82509">
        <ele>386.59</ele>
        <time>2015-01-04T09:17:37Z</time>
      </trkpt>
      <trkpt lat="44.49044" lon="4.82512">
        <ele>386.59</ele>
        <time>2015-01-04T09:17:38Z</time>
      </trkpt>
      <trkpt lat="44.49042" lon="4.82515">
        <ele>387.07</ele>
        <time>2015-01-04T09:17:39Z</time>
      </trkpt>
      <trkpt lat="44.49041" lon="4.82518">
        <ele>386.59</ele>
        <time>2015-01-04T09:17:40Z</time>
      </trkpt>
      <trkpt lat="44.49039" lon="4.82522">
        <ele>386.11</ele>
        <time>2015-01-04T09:17:41Z</time>
      </trkpt>
      <trkpt lat="44.49037" lon="4.82525">
        <ele>386.11</ele>
        <time>2015-01-04T09:17:42Z</time>
      </trkpt>
      <trkpt lat="44.49035" lon="4.82529">
        <ele>385.15</ele>
        <time>2015-01-04T09:17:43Z</time>
      </trkpt>
      <trkpt lat="44.4903" lon="4.8254">
        <ele>384.18</ele>
        <time>2015-01-04T09:17:45Z</time>
      </trkpt>
      <trkpt lat="44.49021" lon="4.82558">
        <ele>383.22</ele>
        <time>2015-01-04T09:17:48Z</time>
      </trkpt>
      <trkpt lat="44.49018" lon="4.82564">
        <ele>382.74</ele>
        <time>2015-01-04T09:17:49Z</time>
      </trkpt>
      <trkpt lat="44.49008" lon="4.82585">
        <ele>380.82</ele>
        <time>2015-01-04T09:17:52Z</time>
      </trkpt>
      <trkpt lat="44.49005" lon="4.82594">
        <ele>380.34</ele>
        <time>2015-01-04T09:17:53Z</time>
      </trkpt>
      <trkpt lat="44.49004" lon="4.82603">
        <ele>379.86</ele>
        <time>2015-01-04T09:17:54Z</time>
      </trkpt>
      <trkpt lat="44.49002" lon="4.82613">
        <ele>379.38</ele>
        <time>2015-01-04T09:17:55Z</time>
      </trkpt>
      <trkpt lat="44.49002" lon="4.82621">
        <ele>379.86</ele>
        <time>2015-01-04T09:17:56Z</time>
      </trkpt>
      <trkpt lat="44.49004" lon="4.82626">
        <ele>379.86</ele>
        <time>2015-01-04T09:17:57Z</time>
      </trkpt>
      <trkpt lat="44.49006" lon="4.82631">
        <ele>380.34</ele>
        <time>2015-01-04T09:17:58Z</time>
      </trkpt>
      <trkpt lat="44.49006" lon="4.82662">
        <ele>381.3</ele>
        <time>2015-01-04T09:18:06Z</time>
      </trkpt>
      <trkpt lat="44.49008" lon="4.82671">
        <ele>380.82</ele>
        <time>2015-01-04T09:18:13Z</time>
      </trkpt>
      <trkpt lat="44.4901" lon="4.82673">
        <ele>381.3</ele>
        <time>2015-01-04T09:18:14Z</time>
      </trkpt>
      <trkpt lat="44.49012" lon="4.82675">
        <ele>380.82</ele>
        <time>2015-01-04T09:18:15Z</time>
      </trkpt>
      <trkpt lat="44.49015" lon="4.82677">
        <ele>380.82</ele>
        <time>2015-01-04T09:18:16Z</time>
      </trkpt>
      <trkpt lat="44.49017" lon="4.82677">
        <ele>380.34</ele>
        <time>2015-01-04T09:18:17Z</time>
      </trkpt>
      <trkpt lat="44.49018" lon="4.82678">
        <ele>380.82</ele>
        <time>2015-01-04T09:18:18Z</time>
      </trkpt>
      <trkpt lat="44.4902" lon="4.82679">
        <ele>381.3</ele>
        <time>2015-01-04T09:18:19Z</time>
      </trkpt>
      <trkpt lat="44.49045" lon="4.82694">
        <ele>382.74</ele>
        <time>2015-01-04T09:18:28Z</time>
      </trkpt>
      <trkpt lat="44.49063" lon="4.82699">
        <ele>383.22</ele>
        <time>2015-01-04T09:18:39Z</time>
      </trkpt>
      <trkpt lat="44.49069" lon="4.82699">
        <ele>383.7</ele>
        <time>2015-01-04T09:18:50Z</time>
      </trkpt>
      <trkpt lat="44.49071" lon="4.827">
        <ele>383.22</ele>
        <time>2015-01-04T09:18:51Z</time>
      </trkpt>
      <trkpt lat="44.49077" lon="4.82704">
        <ele>383.7</ele>
        <time>2015-01-04T09:18:55Z</time>
      </trkpt>
      <trkpt lat="44.49079" lon="4.82705">
        <ele>383.7</ele>
        <time>2015-01-04T09:18:56Z</time>
      </trkpt>
      <trkpt lat="44.4908" lon="4.82706">
        <ele>383.7</ele>
        <time>2015-01-04T09:18:57Z</time>
      </trkpt>
      <trkpt lat="44.49082" lon="4.82707">
        <ele>384.18</ele>
        <time>2015-01-04T09:18:58Z</time>
      </trkpt>
      <trkpt lat="44.49085" lon="4.82709">
        <ele>384.18</ele>
        <time>2015-01-04T09:19:00Z</time>
      </trkpt>
      <trkpt lat="44.49086" lon="4.82712">
        <ele>384.18</ele>
        <time>2015-01-04T09:19:01Z</time>
      </trkpt>
      <trkpt lat="44.49088" lon="4.82714">
        <ele>384.18</ele>
        <time>2015-01-04T09:19:02Z</time>
      </trkpt>
      <trkpt lat="44.49091" lon="4.82715">
        <ele>384.18</ele>
        <time>2015-01-04T09:19:03Z</time>
      </trkpt>
      <trkpt lat="44.49093" lon="4.82716">
        <ele>384.66</ele>
        <time>2015-01-04T09:19:04Z</time>
      </trkpt>
      <trkpt lat="44.49095" lon="4.82717">
        <ele>385.15</ele>
        <time>2015-01-04T09:19:05Z</time>
      </trkpt>
      <trkpt lat="44.49097" lon="4.82719">
        <ele>385.15</ele>
        <time>2015-01-04T09:19:06Z</time>
      </trkpt>
      <trkpt lat="44.49098" lon="4.8272">
        <ele>385.15</ele>
        <time>2015-01-04T09:19:07Z</time>
      </trkpt>
      <trkpt lat="44.49101" lon="4.82723">
        <ele>385.63</ele>
        <time>2015-01-04T09:19:08Z</time>
      </trkpt>
      <trkpt lat="44.49104" lon="4.82725">
        <ele>385.15</ele>
        <time>2015-01-04T09:19:09Z</time>
      </trkpt>
      <trkpt lat="44.49107" lon="4.82727">
        <ele>385.15</ele>
        <time>2015-01-04T09:19:10Z</time>
      </trkpt>
      <trkpt lat="44.49109" lon="4.82728">
        <ele>385.15</ele>
        <time>2015-01-04T09:19:11Z</time>
      </trkpt>
      <trkpt lat="44.49112" lon="4.82729">
        <ele>385.63</ele>
        <time>2015-01-04T09:19:12Z</time>
      </trkpt>
      <trkpt lat="44.49115" lon="4.82729">
        <ele>385.63</ele>
        <time>2015-01-04T09:19:13Z</time>
      </trkpt>
      <trkpt lat="44.49118" lon="4.82729">
        <ele>385.63</ele>
        <time>2015-01-04T09:19:14Z</time>
      </trkpt>
      <trkpt lat="44.49148" lon="4.82732">
        <ele>387.55</ele>
        <time>2015-01-04T09:19:25Z</time>
      </trkpt>
      <trkpt lat="44.49177" lon="4.82736">
        <ele>388.99</ele>
        <time>2015-01-04T09:19:36Z</time>
      </trkpt>
      <trkpt lat="44.49188" lon="4.82737">
        <ele>388.99</ele>
        <time>2015-01-04T09:19:40Z</time>
      </trkpt>
      <trkpt lat="44.49191" lon="4.82736">
        <ele>388.99</ele>
        <time>2015-01-04T09:19:41Z</time>
      </trkpt>
      <trkpt lat="44.49223" lon="4.82734">
        <ele>389.95</ele>
        <time>2015-01-04T09:19:52Z</time>
      </trkpt>
      <trkpt lat="44.49255" lon="4.82737">
        <ele>390.91</ele>
        <time>2015-01-04T09:20:02Z</time>
      </trkpt>
      <trkpt lat="44.49291" lon="4.82734">
        <ele>392.36</ele>
        <time>2015-01-04T09:20:15Z</time>
      </trkpt>
      <trkpt lat="44.49324" lon="4.8274">
        <ele>393.8</ele>
        <time>2015-01-04T09:20:26Z</time>
      </trkpt>
      <trkpt lat="44.49353" lon="4.82755">
        <ele>394.28</ele>
        <time>2015-01-04T09:20:37Z</time>
      </trkpt>
      <trkpt lat="44.49369" lon="4.8277">
        <ele>395.72</ele>
        <time>2015-01-04T09:20:44Z</time>
      </trkpt>
      <trkpt lat="44.49381" lon="4.82798">
        <ele>397.64</ele>
        <time>2015-01-04T09:20:53Z</time>
      </trkpt>
      <trkpt lat="44.49396" lon="4.82836">
        <ele>399.08</ele>
        <time>2015-01-04T09:21:05Z</time>
      </trkpt>
      <trkpt lat="44.49396" lon="4.8284">
        <ele>399.57</ele>
        <time>2015-01-04T09:21:06Z</time>
      </trkpt>
      <trkpt lat="44.49397" lon="4.82843">
        <ele>400.05</ele>
        <time>2015-01-04T09:21:07Z</time>
      </trkpt>
      <trkpt lat="44.49413" lon="4.8289">
        <ele>401.97</ele>
        <time>2015-01-04T09:21:21Z</time>
      </trkpt>
      <trkpt lat="44.49429" lon="4.82934">
        <ele>402.93</ele>
        <time>2015-01-04T09:21:35Z</time>
      </trkpt>
      <trkpt lat="44.49455" lon="4.82945">
        <ele>404.85</ele>
        <time>2015-01-04T09:21:47Z</time>
      </trkpt>
      <trkpt lat="44.49487" lon="4.82956">
        <ele>406.77</ele>
        <time>2015-01-04T09:22:02Z</time>
      </trkpt>
      <trkpt lat="44.49511" lon="4.8297">
        <ele>407.74</ele>
        <time>2015-01-04T09:22:14Z</time>
      </trkpt>
      <trkpt lat="44.49539" lon="4.83008">
        <ele>407.74</ele>
        <time>2015-01-04T09:22:29Z</time>
      </trkpt>
      <trkpt lat="44.49547" lon="4.83018">
        <ele>409.18</ele>
        <time>2015-01-04T09:22:33Z</time>
      </trkpt>
      <trkpt lat="44.49566" lon="4.8304">
        <ele>407.74</ele>
        <time>2015-01-04T09:22:43Z</time>
      </trkpt>
      <trkpt lat="44.49579" lon="4.8305">
        <ele>409.18</ele>
        <time>2015-01-04T09:22:55Z</time>
      </trkpt>
      <trkpt lat="44.4958" lon="4.83051">
        <ele>408.7</ele>
        <time>2015-01-04T09:23:15Z</time>
      </trkpt>
      <trkpt lat="44.4958" lon="4.83051">
        <ele>408.22</ele>
        <time>2015-01-04T09:23:17Z</time>
      </trkpt>
      <trkpt lat="44.49579" lon="4.83055">
        <ele>409.66</ele>
        <time>2015-01-04T09:23:21Z</time>
      </trkpt>
      <trkpt lat="44.49576" lon="4.83061">
        <ele>408.22</ele>
        <time>2015-01-04T09:23:24Z</time>
      </trkpt>
      <trkpt lat="44.49575" lon="4.83063">
        <ele>408.22</ele>
        <time>2015-01-04T09:23:25Z</time>
      </trkpt>
      <trkpt lat="44.49574" lon="4.83066">
        <ele>408.7</ele>
        <time>2015-01-04T09:23:26Z</time>
      </trkpt>
      <trkpt lat="44.49574" lon="4.83068">
        <ele>408.7</ele>
        <time>2015-01-04T09:23:27Z</time>
      </trkpt>
      <trkpt lat="44.49572" lon="4.83072">
        <ele>409.18</ele>
        <time>2015-01-04T09:23:28Z</time>
      </trkpt>
      <trkpt lat="44.49571" lon="4.83075">
        <ele>408.7</ele>
        <time>2015-01-04T09:23:29Z</time>
      </trkpt>
      <trkpt lat="44.4957" lon="4.83079">
        <ele>408.7</ele>
        <time>2015-01-04T09:23:30Z</time>
      </trkpt>
      <trkpt lat="44.49555" lon="4.83116">
        <ele>408.7</ele>
        <time>2015-01-04T09:23:41Z</time>
      </trkpt>
      <trkpt lat="44.49542" lon="4.83149">
        <ele>408.22</ele>
        <time>2015-01-04T09:23:51Z</time>
      </trkpt>
      <trkpt lat="44.49526" lon="4.83202">
        <ele>408.22</ele>
        <time>2015-01-04T09:24:03Z</time>
      </trkpt>
      <trkpt lat="44.49502" lon="4.83247">
        <ele>407.26</ele>
        <time>2015-01-04T09:24:15Z</time>
      </trkpt>
      <trkpt lat="44.49482" lon="4.83286">
        <ele>405.33</ele>
        <time>2015-01-04T09:24:26Z</time>
      </trkpt>
      <trkpt lat="44.49455" lon="4.83333">
        <ele>401.97</ele>
        <time>2015-01-04T09:24:37Z</time>
      </trkpt>
      <trkpt lat="44.49452" lon="4.83337">
        <ele>401.97</ele>
        <time>2015-01-04T09:24:38Z</time>
      </trkpt>
      <trkpt lat="44.49422" lon="4.8339">
        <ele>401.01</ele>
        <time>2015-01-04T09:24:50Z</time>
      </trkpt>
      <trkpt lat="44.49401" lon="4.83424">
        <ele>400.05</ele>
        <time>2015-01-04T09:24:59Z</time>
      </trkpt>
      <trkpt lat="44.49395" lon="4.83432">
        <ele>400.05</ele>
        <time>2015-01-04T09:25:04Z</time>
      </trkpt>
      <trkpt lat="44.49393" lon="4.83434">
        <ele>399.57</ele>
        <time>2015-01-04T09:25:05Z</time>
      </trkpt>
      <trkpt lat="44.49377" lon="4.83462">
        <ele>399.08</ele>
        <time>2015-01-04T09:25:15Z</time>
      </trkpt>
      <trkpt lat="44.49368" lon="4.83481">
        <ele>399.08</ele>
        <time>2015-01-04T09:25:21Z</time>
      </trkpt>
      <trkpt lat="44.49366" lon="4.83483">
        <ele>399.08</ele>
        <time>2015-01-04T09:25:22Z</time>
      </trkpt>
      <trkpt lat="44.49365" lon="4.83486">
        <ele>398.6</ele>
        <time>2015-01-04T09:25:23Z</time>
      </trkpt>
      <trkpt lat="44.49364" lon="4.83489">
        <ele>398.6</ele>
        <time>2015-01-04T09:25:24Z</time>
      </trkpt>
      <trkpt lat="44.49363" lon="4.83492">
        <ele>398.6</ele>
        <time>2015-01-04T09:25:25Z</time>
      </trkpt>
      <trkpt lat="44.49361" lon="4.83494">
        <ele>399.08</ele>
        <time>2015-01-04T09:25:26Z</time>
      </trkpt>
      <trkpt lat="44.4936" lon="4.83497">
        <ele>398.6</ele>
        <time>2015-01-04T09:25:27Z</time>
      </trkpt>
      <trkpt lat="44.49342" lon="4.83532">
        <ele>397.16</ele>
        <time>2015-01-04T09:25:37Z</time>
      </trkpt>
      <trkpt lat="44.49319" lon="4.83567">
        <ele>396.2</ele>
        <time>2015-01-04T09:25:48Z</time>
      </trkpt>
      <trkpt lat="44.49317" lon="4.8357">
        <ele>396.2</ele>
        <time>2015-01-04T09:25:49Z</time>
      </trkpt>
      <trkpt lat="44.49316" lon="4.83573">
        <ele>396.2</ele>
        <time>2015-01-04T09:25:50Z</time>
      </trkpt>
      <trkpt lat="44.49314" lon="4.83576">
        <ele>395.72</ele>
        <time>2015-01-04T09:25:51Z</time>
      </trkpt>
      <trkpt lat="44.49312" lon="4.8358">
        <ele>395.72</ele>
        <time>2015-01-04T09:25:52Z</time>
      </trkpt>
      <trkpt lat="44.49299" lon="4.83601">
        <ele>395.72</ele>
        <time>2015-01-04T09:25:59Z</time>
      </trkpt>
      <trkpt lat="44.49298" lon="4.83604">
        <ele>395.24</ele>
        <time>2015-01-04T09:26:00Z</time>
      </trkpt>
      <trkpt lat="44.49297" lon="4.83607">
        <ele>394.28</ele>
        <time>2015-01-04T09:26:01Z</time>
      </trkpt>
      <trkpt lat="44.49296" lon="4.83611">
        <ele>394.76</ele>
        <time>2015-01-04T09:26:02Z</time>
      </trkpt>
      <trkpt lat="44.49295" lon="4.83614">
        <ele>394.28</ele>
        <time>2015-01-04T09:26:03Z</time>
      </trkpt>
      <trkpt lat="44.49294" lon="4.83614">
        <ele>393.8</ele>
        <time>2015-01-04T09:26:18Z</time>
      </trkpt>
      <trkpt lat="44.49295" lon="4.83612">
        <ele>394.28</ele>
        <time>2015-01-04T09:26:48Z</time>
      </trkpt>
      <trkpt lat="44.49294" lon="4.83612">
        <ele>394.28</ele>
        <time>2015-01-04T09:26:52Z</time>
      </trkpt>
      <trkpt lat="44.49289" lon="4.83617">
        <ele>393.8</ele>
        <time>2015-01-04T09:26:56Z</time>
      </trkpt>
      <trkpt lat="44.49288" lon="4.83619">
        <ele>394.28</ele>
        <time>2015-01-04T09:26:57Z</time>
      </trkpt>
      <trkpt lat="44.49287" lon="4.8362">
        <ele>394.28</ele>
        <time>2015-01-04T09:26:58Z</time>
      </trkpt>
      <trkpt lat="44.49286" lon="4.83622">
        <ele>394.28</ele>
        <time>2015-01-04T09:26:59Z</time>
      </trkpt>
      <trkpt lat="44.49284" lon="4.83623">
        <ele>394.28</ele>
        <time>2015-01-04T09:27:00Z</time>
      </trkpt>
      <trkpt lat="44.49283" lon="4.83625">
        <ele>394.28</ele>
        <time>2015-01-04T09:27:01Z</time>
      </trkpt>
      <trkpt lat="44.49281" lon="4.83628">
        <ele>394.28</ele>
        <time>2015-01-04T09:27:02Z</time>
      </trkpt>
      <trkpt lat="44.49268" lon="4.83642">
        <ele>394.76</ele>
        <time>2015-01-04T09:27:08Z</time>
      </trkpt>
      <trkpt lat="44.49266" lon="4.83646">
        <ele>394.28</ele>
        <time>2015-01-04T09:27:09Z</time>
      </trkpt>
      <trkpt lat="44.49264" lon="4.83649">
        <ele>395.24</ele>
        <time>2015-01-04T09:27:10Z</time>
      </trkpt>
      <trkpt lat="44.49261" lon="4.83652">
        <ele>395.24</ele>
        <time>2015-01-04T09:27:11Z</time>
      </trkpt>
      <trkpt lat="44.49259" lon="4.83654">
        <ele>394.76</ele>
        <time>2015-01-04T09:27:12Z</time>
      </trkpt>
      <trkpt lat="44.49257" lon="4.83658">
        <ele>395.24</ele>
        <time>2015-01-04T09:27:13Z</time>
      </trkpt>
      <trkpt lat="44.49255" lon="4.83661">
        <ele>394.76</ele>
        <time>2015-01-04T09:27:14Z</time>
      </trkpt>
      <trkpt lat="44.49253" lon="4.83664">
        <ele>394.76</ele>
        <time>2015-01-04T09:27:15Z</time>
      </trkpt>
      <trkpt lat="44.49252" lon="4.83668">
        <ele>394.76</ele>
        <time>2015-01-04T09:27:16Z</time>
      </trkpt>
      <trkpt lat="44.4925" lon="4.83671">
        <ele>395.24</ele>
        <time>2015-01-04T09:27:17Z</time>
      </trkpt>
      <trkpt lat="44.49248" lon="4.83673">
        <ele>395.24</ele>
        <time>2015-01-04T09:27:18Z</time>
      </trkpt>
      <trkpt lat="44.49245" lon="4.83675">
        <ele>394.28</ele>
        <time>2015-01-04T09:27:19Z</time>
      </trkpt>
      <trkpt lat="44.49243" lon="4.83676">
        <ele>394.76</ele>
        <time>2015-01-04T09:27:20Z</time>
      </trkpt>
      <trkpt lat="44.49242" lon="4.83678">
        <ele>394.28</ele>
        <time>2015-01-04T09:27:21Z</time>
      </trkpt>
      <trkpt lat="44.49238" lon="4.83681">
        <ele>395.24</ele>
        <time>2015-01-04T09:27:28Z</time>
      </trkpt>
      <trkpt lat="44.49237" lon="4.83683">
        <ele>395.24</ele>
        <time>2015-01-04T09:27:29Z</time>
      </trkpt>
      <trkpt lat="44.49235" lon="4.83684">
        <ele>394.76</ele>
        <time>2015-01-04T09:27:30Z</time>
      </trkpt>
      <trkpt lat="44.49233" lon="4.83687">
        <ele>395.24</ele>
        <time>2015-01-04T09:27:31Z</time>
      </trkpt>
      <trkpt lat="44.49231" lon="4.83689">
        <ele>395.24</ele>
        <time>2015-01-04T09:27:32Z</time>
      </trkpt>
      <trkpt lat="44.49224" lon="4.83696">
        <ele>394.76</ele>
        <time>2015-01-04T09:27:35Z</time>
      </trkpt>
      <trkpt lat="44.49222" lon="4.83698">
        <ele>394.28</ele>
        <time>2015-01-04T09:27:36Z</time>
      </trkpt>
      <trkpt lat="44.4922" lon="4.837">
        <ele>394.28</ele>
        <time>2015-01-04T09:27:37Z</time>
      </trkpt>
      <trkpt lat="44.49217" lon="4.83703">
        <ele>394.28</ele>
        <time>2015-01-04T09:27:38Z</time>
      </trkpt>
      <trkpt lat="44.49215" lon="4.83705">
        <ele>394.28</ele>
        <time>2015-01-04T09:27:39Z</time>
      </trkpt>
      <trkpt lat="44.49202" lon="4.83721">
        <ele>393.8</ele>
        <time>2015-01-04T09:27:46Z</time>
      </trkpt>
      <trkpt lat="44.49201" lon="4.83723">
        <ele>394.28</ele>
        <time>2015-01-04T09:27:47Z</time>
      </trkpt>
      <trkpt lat="44.49199" lon="4.83724">
        <ele>394.28</ele>
        <time>2015-01-04T09:27:48Z</time>
      </trkpt>
      <trkpt lat="44.49197" lon="4.83726">
        <ele>393.8</ele>
        <time>2015-01-04T09:27:49Z</time>
      </trkpt>
      <trkpt lat="44.49195" lon="4.83727">
        <ele>394.28</ele>
        <time>2015-01-04T09:27:50Z</time>
      </trkpt>
      <trkpt lat="44.49194" lon="4.8373">
        <ele>394.28</ele>
        <time>2015-01-04T09:27:51Z</time>
      </trkpt>
      <trkpt lat="44.49192" lon="4.83733">
        <ele>393.8</ele>
        <time>2015-01-04T09:27:52Z</time>
      </trkpt>
      <trkpt lat="44.49189" lon="4.83735">
        <ele>393.8</ele>
        <time>2015-01-04T09:27:53Z</time>
      </trkpt>
      <trkpt lat="44.49164" lon="4.83766">
        <ele>394.28</ele>
        <time>2015-01-04T09:28:05Z</time>
      </trkpt>
      <trkpt lat="44.49144" lon="4.83788">
        <ele>393.8</ele>
        <time>2015-01-04T09:28:15Z</time>
      </trkpt>
      <trkpt lat="44.49132" lon="4.838">
        <ele>393.8</ele>
        <time>2015-01-04T09:28:22Z</time>
      </trkpt>
      <trkpt lat="44.4913" lon="4.83801">
        <ele>393.8</ele>
        <time>2015-01-04T09:28:23Z</time>
      </trkpt>
      <trkpt lat="44.49128" lon="4.83804">
        <ele>393.8</ele>
        <time>2015-01-04T09:28:24Z</time>
      </trkpt>
      <trkpt lat="44.49126" lon="4.83806">
        <ele>393.32</ele>
        <time>2015-01-04T09:28:25Z</time>
      </trkpt>
      <trkpt lat="44.49124" lon="4.83809">
        <ele>393.32</ele>
        <time>2015-01-04T09:28:26Z</time>
      </trkpt>
      <trkpt lat="44.49122" lon="4.83811">
        <ele>392.84</ele>
        <time>2015-01-04T09:28:27Z</time>
      </trkpt>
      <trkpt lat="44.49119" lon="4.83814">
        <ele>393.8</ele>
        <time>2015-01-04T09:28:28Z</time>
      </trkpt>
      <trkpt lat="44.49108" lon="4.83826">
        <ele>392.36</ele>
        <time>2015-01-04T09:28:34Z</time>
      </trkpt>
      <trkpt lat="44.49107" lon="4.83829">
        <ele>392.36</ele>
        <time>2015-01-04T09:28:35Z</time>
      </trkpt>
      <trkpt lat="44.49105" lon="4.83832">
        <ele>392.36</ele>
        <time>2015-01-04T09:28:36Z</time>
      </trkpt>
      <trkpt lat="44.49104" lon="4.83834">
        <ele>392.36</ele>
        <time>2015-01-04T09:28:37Z</time>
      </trkpt>
      <trkpt lat="44.49102" lon="4.83836">
        <ele>391.87</ele>
        <time>2015-01-04T09:28:38Z</time>
      </trkpt>
      <trkpt lat="44.49101" lon="4.83838">
        <ele>392.36</ele>
        <time>2015-01-04T09:28:39Z</time>
      </trkpt>
      <trkpt lat="44.491" lon="4.8384">
        <ele>391.87</ele>
        <time>2015-01-04T09:28:40Z</time>
      </trkpt>
      <trkpt lat="44.49078" lon="4.83863">
        <ele>391.87</ele>
        <time>2015-01-04T09:28:51Z</time>
      </trkpt>
      <trkpt lat="44.49068" lon="4.83877">
        <ele>390.91</ele>
        <time>2015-01-04T09:28:57Z</time>
      </trkpt>
      <trkpt lat="44.49067" lon="4.8388">
        <ele>390.91</ele>
        <time>2015-01-04T09:28:58Z</time>
      </trkpt>
      <trkpt lat="44.49066" lon="4.83882">
        <ele>390.91</ele>
        <time>2015-01-04T09:28:59Z</time>
      </trkpt>
      <trkpt lat="44.49064" lon="4.83885">
        <ele>390.43</ele>
        <time>2015-01-04T09:29:00Z</time>
      </trkpt>
      <trkpt lat="44.49062" lon="4.83888">
        <ele>390.43</ele>
        <time>2015-01-04T09:29:01Z</time>
      </trkpt>
      <trkpt lat="44.49041" lon="4.83917">
        <ele>387.07</ele>
        <time>2015-01-04T09:29:11Z</time>
      </trkpt>
      <trkpt lat="44.49028" lon="4.83928">
        <ele>386.59</ele>
        <time>2015-01-04T09:29:23Z</time>
      </trkpt>
      <trkpt lat="44.49027" lon="4.83929">
        <ele>387.55</ele>
        <time>2015-01-04T09:29:46Z</time>
      </trkpt>
      <trkpt lat="44.49026" lon="4.8393">
        <ele>387.55</ele>
        <time>2015-01-04T09:30:22Z</time>
      </trkpt>
      <trkpt lat="44.49026" lon="4.83932">
        <ele>387.07</ele>
        <time>2015-01-04T09:30:32Z</time>
      </trkpt>
      <trkpt lat="44.49023" lon="4.83949">
        <ele>386.59</ele>
        <time>2015-01-04T09:30:39Z</time>
      </trkpt>
      <trkpt lat="44.49021" lon="4.83949">
        <ele>387.55</ele>
        <time>2015-01-04T09:30:51Z</time>
      </trkpt>
      <trkpt lat="44.49021" lon="4.83949">
        <ele>390.91</ele>
        <time>2015-01-04T09:31:00Z</time>
      </trkpt>
      <trkpt lat="44.49021" lon="4.83949">
        <ele>387.55</ele>
        <time>2015-01-04T09:31:01Z</time>
      </trkpt>
      <trkpt lat="44.49021" lon="4.83949">
        <ele>382.74</ele>
        <time>2015-01-04T09:31:09Z</time>
      </trkpt>
      <trkpt lat="44.49021" lon="4.83949">
        <ele>387.55</ele>
        <time>2015-01-04T09:31:10Z</time>
      </trkpt>
      <trkpt lat="44.49021" lon="4.83949">
        <ele>384.66</ele>
        <time>2015-01-04T09:31:18Z</time>
      </trkpt>
      <trkpt lat="44.49021" lon="4.83949">
        <ele>388.03</ele>
        <time>2015-01-04T09:31:19Z</time>
      </trkpt>
      <trkpt lat="44.49021" lon="4.83949">
        <ele>383.22</ele>
        <time>2015-01-04T09:31:23Z</time>
      </trkpt>
      <trkpt lat="44.49021" lon="4.83949">
        <ele>388.51</ele>
        <time>2015-01-04T09:31:24Z</time>
      </trkpt>
      <trkpt lat="44.49021" lon="4.83949">
        <ele>388.03</ele>
        <time>2015-01-04T09:31:25Z</time>
      </trkpt>
      <trkpt lat="44.49021" lon="4.83949">
        <ele>382.26</ele>
        <time>2015-01-04T09:31:36Z</time>
      </trkpt>
      <trkpt lat="44.49021" lon="4.83949">
        <ele>388.51</ele>
        <time>2015-01-04T09:31:37Z</time>
      </trkpt>
      <trkpt lat="44.49021" lon="4.83949">
        <ele>382.26</ele>
        <time>2015-01-04T09:31:42Z</time>
      </trkpt>
      <trkpt lat="44.49021" lon="4.83949">
        <ele>387.55</ele>
        <time>2015-01-04T09:31:43Z</time>
      </trkpt>
      <trkpt lat="44.49021" lon="4.83948">
        <ele>387.07</ele>
        <time>2015-01-04T09:32:18Z</time>
      </trkpt>
      <trkpt lat="44.49021" lon="4.83948">
        <ele>388.03</ele>
        <time>2015-01-04T09:32:50Z</time>
      </trkpt>
      <trkpt lat="44.4902" lon="4.83948">
        <ele>387.07</ele>
        <time>2015-01-04T09:33:21Z</time>
      </trkpt>
      <trkpt lat="44.4902" lon="4.83948">
        <ele>387.07</ele>
        <time>2015-01-04T09:33:41Z</time>
      </trkpt>
      <trkpt lat="44.49021" lon="4.83949">
        <ele>386.59</ele>
        <time>2015-01-04T09:34:17Z</time>
      </trkpt>
      <trkpt lat="44.49021" lon="4.83949">
        <ele>387.07</ele>
        <time>2015-01-04T09:34:49Z</time>
      </trkpt>
      <trkpt lat="44.49021" lon="4.83949">
        <ele>387.07</ele>
        <time>2015-01-04T09:35:16Z</time>
      </trkpt>
      <trkpt lat="44.49021" lon="4.83949">
        <ele>387.07</ele>
        <time>2015-01-04T09:35:52Z</time>
      </trkpt>
      <trkpt lat="44.49021" lon="4.83948">
        <ele>386.59</ele>
        <time>2015-01-04T09:36:31Z</time>
      </trkpt>
      <trkpt lat="44.49022" lon="4.83949">
        <ele>387.07</ele>
        <time>2015-01-04T09:37:01Z</time>
      </trkpt>
      <trkpt lat="44.4902" lon="4.83949">
        <ele>387.55</ele>
        <time>2015-01-04T09:37:31Z</time>
      </trkpt>
      <trkpt lat="44.49018" lon="4.83948">
        <ele>387.07</ele>
        <time>2015-01-04T09:37:32Z</time>
      </trkpt>
      <trkpt lat="44.49016" lon="4.83948">
        <ele>387.07</ele>
        <time>2015-01-04T09:37:33Z</time>
      </trkpt>
      <trkpt lat="44.49014" lon="4.83948">
        <ele>387.07</ele>
        <time>2015-01-04T09:37:34Z</time>
      </trkpt>
      <trkpt lat="44.49012" lon="4.83948">
        <ele>386.59</ele>
        <time>2015-01-04T09:37:35Z</time>
      </trkpt>
      <trkpt lat="44.49007" lon="4.83949">
        <ele>387.07</ele>
        <time>2015-01-04T09:37:38Z</time>
      </trkpt>
      <trkpt lat="44.49006" lon="4.83948">
        <ele>386.59</ele>
        <time>2015-01-04T09:37:39Z</time>
      </trkpt>
      <trkpt lat="44.49004" lon="4.83948">
        <ele>386.59</ele>
        <time>2015-01-04T09:37:40Z</time>
      </trkpt>
      <trkpt lat="44.49002" lon="4.83948">
        <ele>386.59</ele>
        <time>2015-01-04T09:37:41Z</time>
      </trkpt>
      <trkpt lat="44.49" lon="4.83949">
        <ele>386.59</ele>
        <time>2015-01-04T09:37:42Z</time>
      </trkpt>
      <trkpt lat="44.48997" lon="4.8395">
        <ele>386.11</ele>
        <time>2015-01-04T09:37:43Z</time>
      </trkpt>
      <trkpt lat="44.48995" lon="4.8395">
        <ele>386.59</ele>
        <time>2015-01-04T09:37:44Z</time>
      </trkpt>
      <trkpt lat="44.48992" lon="4.83951">
        <ele>386.59</ele>
        <time>2015-01-04T09:37:45Z</time>
      </trkpt>
      <trkpt lat="44.4899" lon="4.83952">
        <ele>386.59</ele>
        <time>2015-01-04T09:37:46Z</time>
      </trkpt>
      <trkpt lat="44.48987" lon="4.83953">
        <ele>386.59</ele>
        <time>2015-01-04T09:37:47Z</time>
      </trkpt>
      <trkpt lat="44.48953" lon="4.83961">
        <ele>385.63</ele>
        <time>2015-01-04T09:37:59Z</time>
      </trkpt>
      <trkpt lat="44.48943" lon="4.83961">
        <ele>385.63</ele>
        <time>2015-01-04T09:38:02Z</time>
      </trkpt>
      <trkpt lat="44.4894" lon="4.8396">
        <ele>385.15</ele>
        <time>2015-01-04T09:38:03Z</time>
      </trkpt>
      <trkpt lat="44.48937" lon="4.8396">
        <ele>385.15</ele>
        <time>2015-01-04T09:38:04Z</time>
      </trkpt>
      <trkpt lat="44.48934" lon="4.83961">
        <ele>385.63</ele>
        <time>2015-01-04T09:38:05Z</time>
      </trkpt>
      <trkpt lat="44.4893" lon="4.83963">
        <ele>385.15</ele>
        <time>2015-01-04T09:38:06Z</time>
      </trkpt>
      <trkpt lat="44.48927" lon="4.83965">
        <ele>384.66</ele>
        <time>2015-01-04T09:38:07Z</time>
      </trkpt>
      <trkpt lat="44.48923" lon="4.83967">
        <ele>384.66</ele>
        <time>2015-01-04T09:38:08Z</time>
      </trkpt>
      <trkpt lat="44.4891" lon="4.83976">
        <ele>384.18</ele>
        <time>2015-01-04T09:38:12Z</time>
      </trkpt>
      <trkpt lat="44.48906" lon="4.83979">
        <ele>383.7</ele>
        <time>2015-01-04T09:38:13Z</time>
      </trkpt>
      <trkpt lat="44.48899" lon="4.83987">
        <ele>382.74</ele>
        <time>2015-01-04T09:38:15Z</time>
      </trkpt>
      <trkpt lat="44.48895" lon="4.8399">
        <ele>382.26</ele>
        <time>2015-01-04T09:38:16Z</time>
      </trkpt>
      <trkpt lat="44.4889" lon="4.83992">
        <ele>382.26</ele>
        <time>2015-01-04T09:38:17Z</time>
      </trkpt>
      <trkpt lat="44.48886" lon="4.83993">
        <ele>381.78</ele>
        <time>2015-01-04T09:38:18Z</time>
      </trkpt>
      <trkpt lat="44.48878" lon="4.83991">
        <ele>380.82</ele>
        <time>2015-01-04T09:38:20Z</time>
      </trkpt>
      <trkpt lat="44.48874" lon="4.83989">
        <ele>381.3</ele>
        <time>2015-01-04T09:38:21Z</time>
      </trkpt>
      <trkpt lat="44.4887" lon="4.83989">
        <ele>380.82</ele>
        <time>2015-01-04T09:38:22Z</time>
      </trkpt>
      <trkpt lat="44.48866" lon="4.83989">
        <ele>381.3</ele>
        <time>2015-01-04T09:38:23Z</time>
      </trkpt>
      <trkpt lat="44.48861" lon="4.83992">
        <ele>380.82</ele>
        <time>2015-01-04T09:38:24Z</time>
      </trkpt>
      <trkpt lat="44.48857" lon="4.83994">
        <ele>380.82</ele>
        <time>2015-01-04T09:38:25Z</time>
      </trkpt>
      <trkpt lat="44.48853" lon="4.83996">
        <ele>380.34</ele>
        <time>2015-01-04T09:38:26Z</time>
      </trkpt>
      <trkpt lat="44.48844" lon="4.84001">
        <ele>380.82</ele>
        <time>2015-01-04T09:38:28Z</time>
      </trkpt>
      <trkpt lat="44.48837" lon="4.84007">
        <ele>380.82</ele>
        <time>2015-01-04T09:38:30Z</time>
      </trkpt>
      <trkpt lat="44.48833" lon="4.8401">
        <ele>380.82</ele>
        <time>2015-01-04T09:38:31Z</time>
      </trkpt>
      <trkpt lat="44.48819" lon="4.8402">
        <ele>378.9</ele>
        <time>2015-01-04T09:38:35Z</time>
      </trkpt>
      <trkpt lat="44.48808" lon="4.84025">
        <ele>378.42</ele>
        <time>2015-01-04T09:38:38Z</time>
      </trkpt>
      <trkpt lat="44.48805" lon="4.84027">
        <ele>378.9</ele>
        <time>2015-01-04T09:38:39Z</time>
      </trkpt>
      <trkpt lat="44.48801" lon="4.8403">
        <ele>378.42</ele>
        <time>2015-01-04T09:38:40Z</time>
      </trkpt>
      <trkpt lat="44.48797" lon="4.84032">
        <ele>378.42</ele>
        <time>2015-01-04T09:38:41Z</time>
      </trkpt>
      <trkpt lat="44.48793" lon="4.84033">
        <ele>378.42</ele>
        <time>2015-01-04T09:38:42Z</time>
      </trkpt>
      <trkpt lat="44.48789" lon="4.84033">
        <ele>378.9</ele>
        <time>2015-01-04T09:38:43Z</time>
      </trkpt>
      <trkpt lat="44.48785" lon="4.84032">
        <ele>378.42</ele>
        <time>2015-01-04T09:38:44Z</time>
      </trkpt>
      <trkpt lat="44.48781" lon="4.84032">
        <ele>378.42</ele>
        <time>2015-01-04T09:38:45Z</time>
      </trkpt>
      <trkpt lat="44.48764" lon="4.84031">
        <ele>377.94</ele>
        <time>2015-01-04T09:38:49Z</time>
      </trkpt>
      <trkpt lat="44.48733" lon="4.84019">
        <ele>378.42</ele>
        <time>2015-01-04T09:38:58Z</time>
      </trkpt>
      <trkpt lat="44.4872" lon="4.84009">
        <ele>379.38</ele>
        <time>2015-01-04T09:39:02Z</time>
      </trkpt>
      <trkpt lat="44.48709" lon="4.84002">
        <ele>378.9</ele>
        <time>2015-01-04T09:39:05Z</time>
      </trkpt>
      <trkpt lat="44.48705" lon="4.83999">
        <ele>378.9</ele>
        <time>2015-01-04T09:39:06Z</time>
      </trkpt>
      <trkpt lat="44.48689" lon="4.83985">
        <ele>377.94</ele>
        <time>2015-01-04T09:39:10Z</time>
      </trkpt>
      <trkpt lat="44.48685" lon="4.83982">
        <ele>377.45</ele>
        <time>2015-01-04T09:39:11Z</time>
      </trkpt>
      <trkpt lat="44.48677" lon="4.83976">
        <ele>377.94</ele>
        <time>2015-01-04T09:39:13Z</time>
      </trkpt>
      <trkpt lat="44.48673" lon="4.83973">
        <ele>376.97</ele>
        <time>2015-01-04T09:39:14Z</time>
      </trkpt>
      <trkpt lat="44.4866" lon="4.83964">
        <ele>377.45</ele>
        <time>2015-01-04T09:39:17Z</time>
      </trkpt>
      <trkpt lat="44.48656" lon="4.83961">
        <ele>377.45</ele>
        <time>2015-01-04T09:39:18Z</time>
      </trkpt>
      <trkpt lat="44.48641" lon="4.83954">
        <ele>377.94</ele>
        <time>2015-01-04T09:39:22Z</time>
      </trkpt>
      <trkpt lat="44.48637" lon="4.83953">
        <ele>377.45</ele>
        <time>2015-01-04T09:39:23Z</time>
      </trkpt>
      <trkpt lat="44.48619" lon="4.83956">
        <ele>377.45</ele>
        <time>2015-01-04T09:39:27Z</time>
      </trkpt>
      <trkpt lat="44.48609" lon="4.83959">
        <ele>376.97</ele>
        <time>2015-01-04T09:39:29Z</time>
      </trkpt>
      <trkpt lat="44.48604" lon="4.83959">
        <ele>376.01</ele>
        <time>2015-01-04T09:39:30Z</time>
      </trkpt>
      <trkpt lat="44.48599" lon="4.83961">
        <ele>375.53</ele>
        <time>2015-01-04T09:39:31Z</time>
      </trkpt>
      <trkpt lat="44.48589" lon="4.83964">
        <ele>375.53</ele>
        <time>2015-01-04T09:39:33Z</time>
      </trkpt>
      <trkpt lat="44.48569" lon="4.83969">
        <ele>375.05</ele>
        <time>2015-01-04T09:39:37Z</time>
      </trkpt>
      <trkpt lat="44.48564" lon="4.83969">
        <ele>375.53</ele>
        <time>2015-01-04T09:39:38Z</time>
      </trkpt>
      <trkpt lat="44.48555" lon="4.83969">
        <ele>375.05</ele>
        <time>2015-01-04T09:39:40Z</time>
      </trkpt>
      <trkpt lat="44.48541" lon="4.83971">
        <ele>375.05</ele>
        <time>2015-01-04T09:39:43Z</time>
      </trkpt>
      <trkpt lat="44.48536" lon="4.8397">
        <ele>375.05</ele>
        <time>2015-01-04T09:39:44Z</time>
      </trkpt>
      <trkpt lat="44.48532" lon="4.83969">
        <ele>374.57</ele>
        <time>2015-01-04T09:39:45Z</time>
      </trkpt>
      <trkpt lat="44.48523" lon="4.83965">
        <ele>374.57</ele>
        <time>2015-01-04T09:39:47Z</time>
      </trkpt>
      <trkpt lat="44.4852" lon="4.83962">
        <ele>374.57</ele>
        <time>2015-01-04T09:39:48Z</time>
      </trkpt>
      <trkpt lat="44.48519" lon="4.83957">
        <ele>374.57</ele>
        <time>2015-01-04T09:39:49Z</time>
      </trkpt>
      <trkpt lat="44.48519" lon="4.83952">
        <ele>374.57</ele>
        <time>2015-01-04T09:39:50Z</time>
      </trkpt>
      <trkpt lat="44.4852" lon="4.83946">
        <ele>374.09</ele>
        <time>2015-01-04T09:39:51Z</time>
      </trkpt>
      <trkpt lat="44.48519" lon="4.83941">
        <ele>374.09</ele>
        <time>2015-01-04T09:39:52Z</time>
      </trkpt>
      <trkpt lat="44.48517" lon="4.83937">
        <ele>374.09</ele>
        <time>2015-01-04T09:39:53Z</time>
      </trkpt>
      <trkpt lat="44.48513" lon="4.83934">
        <ele>373.61</ele>
        <time>2015-01-04T09:39:54Z</time>
      </trkpt>
      <trkpt lat="44.48509" lon="4.83932">
        <ele>373.61</ele>
        <time>2015-01-04T09:39:55Z</time>
      </trkpt>
      <trkpt lat="44.48504" lon="4.83933">
        <ele>373.13</ele>
        <time>2015-01-04T09:39:56Z</time>
      </trkpt>
      <trkpt lat="44.48499" lon="4.83935">
        <ele>373.61</ele>
        <time>2015-01-04T09:39:57Z</time>
      </trkpt>
      <trkpt lat="44.48494" lon="4.83937">
        <ele>373.13</ele>
        <time>2015-01-04T09:39:58Z</time>
      </trkpt>
      <trkpt lat="44.48489" lon="4.83939">
        <ele>372.65</ele>
        <time>2015-01-04T09:39:59Z</time>
      </trkpt>
      <trkpt lat="44.48484" lon="4.8394">
        <ele>372.65</ele>
        <time>2015-01-04T09:40:00Z</time>
      </trkpt>
      <trkpt lat="44.48479" lon="4.8394">
        <ele>372.65</ele>
        <time>2015-01-04T09:40:01Z</time>
      </trkpt>
      <trkpt lat="44.48435" lon="4.83939">
        <ele>369.76</ele>
        <time>2015-01-04T09:40:09Z</time>
      </trkpt>
      <trkpt lat="44.48429" lon="4.83939">
        <ele>369.28</ele>
        <time>2015-01-04T09:40:10Z</time>
      </trkpt>
      <trkpt lat="44.48423" lon="4.83942">
        <ele>368.8</ele>
        <time>2015-01-04T09:40:11Z</time>
      </trkpt>
      <trkpt lat="44.48417" lon="4.83945">
        <ele>368.32</ele>
        <time>2015-01-04T09:40:12Z</time>
      </trkpt>
      <trkpt lat="44.48398" lon="4.83951">
        <ele>367.84</ele>
        <time>2015-01-04T09:40:15Z</time>
      </trkpt>
      <trkpt lat="44.48392" lon="4.8395">
        <ele>367.36</ele>
        <time>2015-01-04T09:40:16Z</time>
      </trkpt>
      <trkpt lat="44.48387" lon="4.83947">
        <ele>366.88</ele>
        <time>2015-01-04T09:40:17Z</time>
      </trkpt>
      <trkpt lat="44.48376" lon="4.83939">
        <ele>365.92</ele>
        <time>2015-01-04T09:40:19Z</time>
      </trkpt>
      <trkpt lat="44.48371" lon="4.83934">
        <ele>365.92</ele>
        <time>2015-01-04T09:40:20Z</time>
      </trkpt>
      <trkpt lat="44.48332" lon="4.8389">
        <ele>363.52</ele>
        <time>2015-01-04T09:40:28Z</time>
      </trkpt>
      <trkpt lat="44.48328" lon="4.83882">
        <ele>363.52</ele>
        <time>2015-01-04T09:40:29Z</time>
      </trkpt>
      <trkpt lat="44.48316" lon="4.83851">
        <ele>363.04</ele>
        <time>2015-01-04T09:40:33Z</time>
      </trkpt>
      <trkpt lat="44.48314" lon="4.83844">
        <ele>363.52</ele>
        <time>2015-01-04T09:40:34Z</time>
      </trkpt>
      <trkpt lat="44.48307" lon="4.83825">
        <ele>363.52</ele>
        <time>2015-01-04T09:40:38Z</time>
      </trkpt>
      <trkpt lat="44.48305" lon="4.83825">
        <ele>363.52</ele>
        <time>2015-01-04T09:40:39Z</time>
      </trkpt>
      <trkpt lat="44.48303" lon="4.83829">
        <ele>363.52</ele>
        <time>2015-01-04T09:40:40Z</time>
      </trkpt>
      <trkpt lat="44.48303" lon="4.83834">
        <ele>363.52</ele>
        <time>2015-01-04T09:40:41Z</time>
      </trkpt>
      <trkpt lat="44.48303" lon="4.83838">
        <ele>362.55</ele>
        <time>2015-01-04T09:40:42Z</time>
      </trkpt>
      <trkpt lat="44.48303" lon="4.83844">
        <ele>363.04</ele>
        <time>2015-01-04T09:40:43Z</time>
      </trkpt>
      <trkpt lat="44.48303" lon="4.83897">
        <ele>363.04</ele>
        <time>2015-01-04T09:40:54Z</time>
      </trkpt>
      <trkpt lat="44.48295" lon="4.83952">
        <ele>363.52</ele>
        <time>2015-01-04T09:41:06Z</time>
      </trkpt>
      <trkpt lat="44.48292" lon="4.83963">
        <ele>363.04</ele>
        <time>2015-01-04T09:41:08Z</time>
      </trkpt>
      <trkpt lat="44.48285" lon="4.84016">
        <ele>362.55</ele>
        <time>2015-01-04T09:41:18Z</time>
      </trkpt>
      <trkpt lat="44.48284" lon="4.8402">
        <ele>363.04</ele>
        <time>2015-01-04T09:41:19Z</time>
      </trkpt>
      <trkpt lat="44.48277" lon="4.8404">
        <ele>362.55</ele>
        <time>2015-01-04T09:41:23Z</time>
      </trkpt>
      <trkpt lat="44.4827" lon="4.84058">
        <ele>361.59</ele>
        <time>2015-01-04T09:41:27Z</time>
      </trkpt>
      <trkpt lat="44.48265" lon="4.84075">
        <ele>361.11</ele>
        <time>2015-01-04T09:41:30Z</time>
      </trkpt>
      <trkpt lat="44.48262" lon="4.84098">
        <ele>358.71</ele>
        <time>2015-01-04T09:41:33Z</time>
      </trkpt>
      <trkpt lat="44.48253" lon="4.84133">
        <ele>355.34</ele>
        <time>2015-01-04T09:41:37Z</time>
      </trkpt>
      <trkpt lat="44.48249" lon="4.84139">
        <ele>354.86</ele>
        <time>2015-01-04T09:41:38Z</time>
      </trkpt>
      <trkpt lat="44.48243" lon="4.84143">
        <ele>354.38</ele>
        <time>2015-01-04T09:41:39Z</time>
      </trkpt>
      <trkpt lat="44.48236" lon="4.84145">
        <ele>353.9</ele>
        <time>2015-01-04T09:41:40Z</time>
      </trkpt>
      <trkpt lat="44.48229" lon="4.84146">
        <ele>353.9</ele>
        <time>2015-01-04T09:41:41Z</time>
      </trkpt>
      <trkpt lat="44.48222" lon="4.84146">
        <ele>353.42</ele>
        <time>2015-01-04T09:41:42Z</time>
      </trkpt>
      <trkpt lat="44.48209" lon="4.84148">
        <ele>353.42</ele>
        <time>2015-01-04T09:41:44Z</time>
      </trkpt>
      <trkpt lat="44.48195" lon="4.84148">
        <ele>351.02</ele>
        <time>2015-01-04T09:41:46Z</time>
      </trkpt>
      <trkpt lat="44.48189" lon="4.84149">
        <ele>351.02</ele>
        <time>2015-01-04T09:41:47Z</time>
      </trkpt>
      <trkpt lat="44.48182" lon="4.84149">
        <ele>351.02</ele>
        <time>2015-01-04T09:41:48Z</time>
      </trkpt>
      <trkpt lat="44.48168" lon="4.84147">
        <ele>349.58</ele>
        <time>2015-01-04T09:41:50Z</time>
      </trkpt>
      <trkpt lat="44.48155" lon="4.84144">
        <ele>348.62</ele>
        <time>2015-01-04T09:41:52Z</time>
      </trkpt>
      <trkpt lat="44.48149" lon="4.8414">
        <ele>348.13</ele>
        <time>2015-01-04T09:41:53Z</time>
      </trkpt>
      <trkpt lat="44.4813" lon="4.84131">
        <ele>344.29</ele>
        <time>2015-01-04T09:41:56Z</time>
      </trkpt>
      <trkpt lat="44.48123" lon="4.84127">
        <ele>344.29</ele>
        <time>2015-01-04T09:41:57Z</time>
      </trkpt>
      <trkpt lat="44.48097" lon="4.8411">
        <ele>343.33</ele>
        <time>2015-01-04T09:42:01Z</time>
      </trkpt>
      <trkpt lat="44.48085" lon="4.84097">
        <ele>343.81</ele>
        <time>2015-01-04T09:42:03Z</time>
      </trkpt>
      <trkpt lat="44.4808" lon="4.8409">
        <ele>343.33</ele>
        <time>2015-01-04T09:42:04Z</time>
      </trkpt>
      <trkpt lat="44.48051" lon="4.8405">
        <ele>340.44</ele>
        <time>2015-01-04T09:42:10Z</time>
      </trkpt>
      <trkpt lat="44.4803" lon="4.84024">
        <ele>339.48</ele>
        <time>2015-01-04T09:42:15Z</time>
      </trkpt>
      <trkpt lat="44.48026" lon="4.84021">
        <ele>339</ele>
        <time>2015-01-04T09:42:16Z</time>
      </trkpt>
      <trkpt lat="44.48005" lon="4.84009">
        <ele>337.56</ele>
        <time>2015-01-04T09:42:20Z</time>
      </trkpt>
      <trkpt lat="44.48" lon="4.84008">
        <ele>337.08</ele>
        <time>2015-01-04T09:42:21Z</time>
      </trkpt>
      <trkpt lat="44.47989" lon="4.84007">
        <ele>336.6</ele>
        <time>2015-01-04T09:42:23Z</time>
      </trkpt>
      <trkpt lat="44.47983" lon="4.84008">
        <ele>336.12</ele>
        <time>2015-01-04T09:42:24Z</time>
      </trkpt>
      <trkpt lat="44.47976" lon="4.8401">
        <ele>335.16</ele>
        <time>2015-01-04T09:42:25Z</time>
      </trkpt>
      <trkpt lat="44.4797" lon="4.84011">
        <ele>334.2</ele>
        <time>2015-01-04T09:42:26Z</time>
      </trkpt>
      <trkpt lat="44.47964" lon="4.84009">
        <ele>334.2</ele>
        <time>2015-01-04T09:42:27Z</time>
      </trkpt>
      <trkpt lat="44.47958" lon="4.84009">
        <ele>333.71</ele>
        <time>2015-01-04T09:42:28Z</time>
      </trkpt>
      <trkpt lat="44.47952" lon="4.84009">
        <ele>333.71</ele>
        <time>2015-01-04T09:42:29Z</time>
      </trkpt>
      <trkpt lat="44.47947" lon="4.84011">
        <ele>333.71</ele>
        <time>2015-01-04T09:42:30Z</time>
      </trkpt>
      <trkpt lat="44.4793" lon="4.8401">
        <ele>331.79</ele>
        <time>2015-01-04T09:42:36Z</time>
      </trkpt>
      <trkpt lat="44.47927" lon="4.84009">
        <ele>331.31</ele>
        <time>2015-01-04T09:42:37Z</time>
      </trkpt>
      <trkpt lat="44.47923" lon="4.84009">
        <ele>330.83</ele>
        <time>2015-01-04T09:42:38Z</time>
      </trkpt>
      <trkpt lat="44.47908" lon="4.8401">
        <ele>329.87</ele>
        <time>2015-01-04T09:42:41Z</time>
      </trkpt>
      <trkpt lat="44.47903" lon="4.8401">
        <ele>329.39</ele>
        <time>2015-01-04T09:42:42Z</time>
      </trkpt>
      <trkpt lat="44.47897" lon="4.8401">
        <ele>328.43</ele>
        <time>2015-01-04T09:42:43Z</time>
      </trkpt>
      <trkpt lat="44.47879" lon="4.84008">
        <ele>326.99</ele>
        <time>2015-01-04T09:42:46Z</time>
      </trkpt>
      <trkpt lat="44.47874" lon="4.84008">
        <ele>326.99</ele>
        <time>2015-01-04T09:42:47Z</time>
      </trkpt>
      <trkpt lat="44.47869" lon="4.84009">
        <ele>326.99</ele>
        <time>2015-01-04T09:42:48Z</time>
      </trkpt>
      <trkpt lat="44.47865" lon="4.84009">
        <ele>326.02</ele>
        <time>2015-01-04T09:42:49Z</time>
      </trkpt>
      <trkpt lat="44.47861" lon="4.84009">
        <ele>325.54</ele>
        <time>2015-01-04T09:42:50Z</time>
      </trkpt>
      <trkpt lat="44.47857" lon="4.8401">
        <ele>324.58</ele>
        <time>2015-01-04T09:42:51Z</time>
      </trkpt>
      <trkpt lat="44.47852" lon="4.84012">
        <ele>325.06</ele>
        <time>2015-01-04T09:42:52Z</time>
      </trkpt>
      <trkpt lat="44.47847" lon="4.84014">
        <ele>324.58</ele>
        <time>2015-01-04T09:42:53Z</time>
      </trkpt>
      <trkpt lat="44.47842" lon="4.84016">
        <ele>324.1</ele>
        <time>2015-01-04T09:42:54Z</time>
      </trkpt>
      <trkpt lat="44.47837" lon="4.84017">
        <ele>324.1</ele>
        <time>2015-01-04T09:42:55Z</time>
      </trkpt>
      <trkpt lat="44.47832" lon="4.84017">
        <ele>323.62</ele>
        <time>2015-01-04T09:42:56Z</time>
      </trkpt>
      <trkpt lat="44.47828" lon="4.84017">
        <ele>323.62</ele>
        <time>2015-01-04T09:42:57Z</time>
      </trkpt>
      <trkpt lat="44.47823" lon="4.84015">
        <ele>323.14</ele>
        <time>2015-01-04T09:42:58Z</time>
      </trkpt>
      <trkpt lat="44.47818" lon="4.84014">
        <ele>323.14</ele>
        <time>2015-01-04T09:42:59Z</time>
      </trkpt>
      <trkpt lat="44.4779" lon="4.84009">
        <ele>321.7</ele>
        <time>2015-01-04T09:43:04Z</time>
      </trkpt>
      <trkpt lat="44.4778" lon="4.84006">
        <ele>321.22</ele>
        <time>2015-01-04T09:43:06Z</time>
      </trkpt>
      <trkpt lat="44.47776" lon="4.84005">
        <ele>320.26</ele>
        <time>2015-01-04T09:43:07Z</time>
      </trkpt>
      <trkpt lat="44.47771" lon="4.84005">
        <ele>320.26</ele>
        <time>2015-01-04T09:43:08Z</time>
      </trkpt>
      <trkpt lat="44.47765" lon="4.84006">
        <ele>320.26</ele>
        <time>2015-01-04T09:43:09Z</time>
      </trkpt>
      <trkpt lat="44.47759" lon="4.84007">
        <ele>319.3</ele>
        <time>2015-01-04T09:43:10Z</time>
      </trkpt>
      <trkpt lat="44.47746" lon="4.84008">
        <ele>318.33</ele>
        <time>2015-01-04T09:43:12Z</time>
      </trkpt>
      <trkpt lat="44.47733" lon="4.84007">
        <ele>317.37</ele>
        <time>2015-01-04T09:43:14Z</time>
      </trkpt>
      <trkpt lat="44.47688" lon="4.84006">
        <ele>313.53</ele>
        <time>2015-01-04T09:43:21Z</time>
      </trkpt>
      <trkpt lat="44.47681" lon="4.84006">
        <ele>313.05</ele>
        <time>2015-01-04T09:43:22Z</time>
      </trkpt>
      <trkpt lat="44.47675" lon="4.84004">
        <ele>312.57</ele>
        <time>2015-01-04T09:43:23Z</time>
      </trkpt>
      <trkpt lat="44.47664" lon="4.83999">
        <ele>312.57</ele>
        <time>2015-01-04T09:43:25Z</time>
      </trkpt>
      <trkpt lat="44.47658" lon="4.83997">
        <ele>312.09</ele>
        <time>2015-01-04T09:43:26Z</time>
      </trkpt>
      <trkpt lat="44.47653" lon="4.83997">
        <ele>311.6</ele>
        <time>2015-01-04T09:43:27Z</time>
      </trkpt>
      <trkpt lat="44.4764" lon="4.83997">
        <ele>310.64</ele>
        <time>2015-01-04T09:43:29Z</time>
      </trkpt>
      <trkpt lat="44.47634" lon="4.83998">
        <ele>310.16</ele>
        <time>2015-01-04T09:43:30Z</time>
      </trkpt>
      <trkpt lat="44.47628" lon="4.83999">
        <ele>309.2</ele>
        <time>2015-01-04T09:43:31Z</time>
      </trkpt>
      <trkpt lat="44.47621" lon="4.83999">
        <ele>308.72</ele>
        <time>2015-01-04T09:43:32Z</time>
      </trkpt>
      <trkpt lat="44.47615" lon="4.83997">
        <ele>308.24</ele>
        <time>2015-01-04T09:43:33Z</time>
      </trkpt>
      <trkpt lat="44.47609" lon="4.83995">
        <ele>308.24</ele>
        <time>2015-01-04T09:43:34Z</time>
      </trkpt>
      <trkpt lat="44.47604" lon="4.83993">
        <ele>308.24</ele>
        <time>2015-01-04T09:43:35Z</time>
      </trkpt>
      <trkpt lat="44.47573" lon="4.83974">
        <ele>306.8</ele>
        <time>2015-01-04T09:43:41Z</time>
      </trkpt>
      <trkpt lat="44.47568" lon="4.83972">
        <ele>306.32</ele>
        <time>2015-01-04T09:43:42Z</time>
      </trkpt>
      <trkpt lat="44.47563" lon="4.83971">
        <ele>306.32</ele>
        <time>2015-01-04T09:43:43Z</time>
      </trkpt>
      <trkpt lat="44.47559" lon="4.83969">
        <ele>305.84</ele>
        <time>2015-01-04T09:43:44Z</time>
      </trkpt>
      <trkpt lat="44.47554" lon="4.83966">
        <ele>306.32</ele>
        <time>2015-01-04T09:43:45Z</time>
      </trkpt>
      <trkpt lat="44.47549" lon="4.83964">
        <ele>305.84</ele>
        <time>2015-01-04T09:43:46Z</time>
      </trkpt>
      <trkpt lat="44.47545" lon="4.83961">
        <ele>305.36</ele>
        <time>2015-01-04T09:43:47Z</time>
      </trkpt>
      <trkpt lat="44.47535" lon="4.83954">
        <ele>304.39</ele>
        <time>2015-01-04T09:43:49Z</time>
      </trkpt>
      <trkpt lat="44.47531" lon="4.8395">
        <ele>304.88</ele>
        <time>2015-01-04T09:43:50Z</time>
      </trkpt>
      <trkpt lat="44.47503" lon="4.83928">
        <ele>303.91</ele>
        <time>2015-01-04T09:43:56Z</time>
      </trkpt>
      <trkpt lat="44.47498" lon="4.83924">
        <ele>303.91</ele>
        <time>2015-01-04T09:43:57Z</time>
      </trkpt>
      <trkpt lat="44.47495" lon="4.83919">
        <ele>303.43</ele>
        <time>2015-01-04T09:43:58Z</time>
      </trkpt>
      <trkpt lat="44.47492" lon="4.83913">
        <ele>303.43</ele>
        <time>2015-01-04T09:43:59Z</time>
      </trkpt>
      <trkpt lat="44.47489" lon="4.83907">
        <ele>303.91</ele>
        <time>2015-01-04T09:44:00Z</time>
      </trkpt>
      <trkpt lat="44.47487" lon="4.83902">
        <ele>304.39</ele>
        <time>2015-01-04T09:44:01Z</time>
      </trkpt>
      <trkpt lat="44.47484" lon="4.83899">
        <ele>304.39</ele>
        <time>2015-01-04T09:44:02Z</time>
      </trkpt>
      <trkpt lat="44.4748" lon="4.83896">
        <ele>303.91</ele>
        <time>2015-01-04T09:44:03Z</time>
      </trkpt>
      <trkpt lat="44.47445" lon="4.8388">
        <ele>302.95</ele>
        <time>2015-01-04T09:44:11Z</time>
      </trkpt>
      <trkpt lat="44.4743" lon="4.83882">
        <ele>301.51</ele>
        <time>2015-01-04T09:44:14Z</time>
      </trkpt>
      <trkpt lat="44.47424" lon="4.83882">
        <ele>301.99</ele>
        <time>2015-01-04T09:44:15Z</time>
      </trkpt>
      <trkpt lat="44.47419" lon="4.83884">
        <ele>301.51</ele>
        <time>2015-01-04T09:44:16Z</time>
      </trkpt>
      <trkpt lat="44.47414" lon="4.83886">
        <ele>301.51</ele>
        <time>2015-01-04T09:44:17Z</time>
      </trkpt>
      <trkpt lat="44.4741" lon="4.83885">
        <ele>301.51</ele>
        <time>2015-01-04T09:44:18Z</time>
      </trkpt>
      <trkpt lat="44.47407" lon="4.83882">
        <ele>301.51</ele>
        <time>2015-01-04T09:44:19Z</time>
      </trkpt>
      <trkpt lat="44.47405" lon="4.83877">
        <ele>301.99</ele>
        <time>2015-01-04T09:44:20Z</time>
      </trkpt>
      <trkpt lat="44.47405" lon="4.83859">
        <ele>302.95</ele>
        <time>2015-01-04T09:44:24Z</time>
      </trkpt>
      <trkpt lat="44.47405" lon="4.8385">
        <ele>303.91</ele>
        <time>2015-01-04T09:44:26Z</time>
      </trkpt>
      <trkpt lat="44.47397" lon="4.83843">
        <ele>303.91</ele>
        <time>2015-01-04T09:44:30Z</time>
      </trkpt>
      <trkpt lat="44.47391" lon="4.83842">
        <ele>303.43</ele>
        <time>2015-01-04T09:44:32Z</time>
      </trkpt>
      <trkpt lat="44.47367" lon="4.83808">
        <ele>306.32</ele>
        <time>2015-01-04T09:44:42Z</time>
      </trkpt>
      <trkpt lat="44.4736" lon="4.83795">
        <ele>307.28</ele>
        <time>2015-01-04T09:44:46Z</time>
      </trkpt>
      <trkpt lat="44.47356" lon="4.83775">
        <ele>309.68</ele>
        <time>2015-01-04T09:44:52Z</time>
      </trkpt>
      <trkpt lat="44.47356" lon="4.83772">
        <ele>309.68</ele>
        <time>2015-01-04T09:44:53Z</time>
      </trkpt>
      <trkpt lat="44.47357" lon="4.83765">
        <ele>310.16</ele>
        <time>2015-01-04T09:44:55Z</time>
      </trkpt>
      <trkpt lat="44.4737" lon="4.8374">
        <ele>311.12</ele>
        <time>2015-01-04T09:45:05Z</time>
      </trkpt>
      <trkpt lat="44.47378" lon="4.83732">
        <ele>311.6</ele>
        <time>2015-01-04T09:45:17Z</time>
      </trkpt>
      <trkpt lat="44.47379" lon="4.8373">
        <ele>318.33</ele>
        <time>2015-01-04T09:45:37Z</time>
      </trkpt>
      <trkpt lat="44.47379" lon="4.8373">
        <ele>313.05</ele>
        <time>2015-01-04T09:45:38Z</time>
      </trkpt>
      <trkpt lat="44.47378" lon="4.83729">
        <ele>312.09</ele>
        <time>2015-01-04T09:46:11Z</time>
      </trkpt>
      <trkpt lat="44.47377" lon="4.83729">
        <ele>312.57</ele>
        <time>2015-01-04T09:46:45Z</time>
      </trkpt>
      <trkpt lat="44.4738" lon="4.83728">
        <ele>312.09</ele>
        <time>2015-01-04T09:47:24Z</time>
      </trkpt>
      <trkpt lat="44.4738" lon="4.83728">
        <ele>312.09</ele>
        <time>2015-01-04T09:47:30Z</time>
      </trkpt>
      <trkpt lat="44.47384" lon="4.8373">
        <ele>312.09</ele>
        <time>2015-01-04T09:47:38Z</time>
      </trkpt>
      <trkpt lat="44.47381" lon="4.83728">
        <ele>312.09</ele>
        <time>2015-01-04T09:47:41Z</time>
      </trkpt>
      <trkpt lat="44.47354" lon="4.83733">
        <ele>312.57</ele>
        <time>2015-01-04T09:47:53Z</time>
      </trkpt>
      <trkpt lat="44.47345" lon="4.83741">
        <ele>312.09</ele>
        <time>2015-01-04T09:47:56Z</time>
      </trkpt>
      <trkpt lat="44.47315" lon="4.83737">
        <ele>312.57</ele>
        <time>2015-01-04T09:48:05Z</time>
      </trkpt>
      <trkpt lat="44.47305" lon="4.83727">
        <ele>313.05</ele>
        <time>2015-01-04T09:48:09Z</time>
      </trkpt>
      <trkpt lat="44.47281" lon="4.837">
        <ele>316.41</ele>
        <time>2015-01-04T09:48:20Z</time>
      </trkpt>
      <trkpt lat="44.47262" lon="4.83664">
        <ele>316.89</ele>
        <time>2015-01-04T09:48:31Z</time>
      </trkpt>
      <trkpt lat="44.47237" lon="4.83625">
        <ele>315.93</ele>
        <time>2015-01-04T09:48:40Z</time>
      </trkpt>
      <trkpt lat="44.47227" lon="4.8361">
        <ele>315.45</ele>
        <time>2015-01-04T09:48:43Z</time>
      </trkpt>
      <trkpt lat="44.47218" lon="4.83592">
        <ele>313.53</ele>
        <time>2015-01-04T09:48:46Z</time>
      </trkpt>
      <trkpt lat="44.47209" lon="4.83572">
        <ele>312.09</ele>
        <time>2015-01-04T09:48:49Z</time>
      </trkpt>
      <trkpt lat="44.47205" lon="4.83562">
        <ele>310.64</ele>
        <time>2015-01-04T09:48:51Z</time>
      </trkpt>
      <trkpt lat="44.47199" lon="4.83554">
        <ele>307.76</ele>
        <time>2015-01-04T09:48:53Z</time>
      </trkpt>
      <trkpt lat="44.47192" lon="4.83547">
        <ele>306.8</ele>
        <time>2015-01-04T09:48:55Z</time>
      </trkpt>
      <trkpt lat="44.47185" lon="4.8354">
        <ele>306.32</ele>
        <time>2015-01-04T09:48:57Z</time>
      </trkpt>
      <trkpt lat="44.47177" lon="4.83516">
        <ele>302.95</ele>
        <time>2015-01-04T09:49:02Z</time>
      </trkpt>
      <trkpt lat="44.47173" lon="4.83502">
        <ele>302.47</ele>
        <time>2015-01-04T09:49:05Z</time>
      </trkpt>
      <trkpt lat="44.47166" lon="4.83487">
        <ele>301.03</ele>
        <time>2015-01-04T09:49:08Z</time>
      </trkpt>
      <trkpt lat="44.47163" lon="4.83481">
        <ele>300.55</ele>
        <time>2015-01-04T09:49:09Z</time>
      </trkpt>
      <trkpt lat="44.47162" lon="4.83476">
        <ele>300.55</ele>
        <time>2015-01-04T09:49:10Z</time>
      </trkpt>
      <trkpt lat="44.47162" lon="4.83471">
        <ele>300.07</ele>
        <time>2015-01-04T09:49:11Z</time>
      </trkpt>
      <trkpt lat="44.47163" lon="4.83467">
        <ele>300.07</ele>
        <time>2015-01-04T09:49:12Z</time>
      </trkpt>
      <trkpt lat="44.47164" lon="4.83463">
        <ele>299.59</ele>
        <time>2015-01-04T09:49:13Z</time>
      </trkpt>
      <trkpt lat="44.47164" lon="4.83459">
        <ele>299.59</ele>
        <time>2015-01-04T09:49:14Z</time>
      </trkpt>
      <trkpt lat="44.47164" lon="4.83456">
        <ele>299.11</ele>
        <time>2015-01-04T09:49:15Z</time>
      </trkpt>
      <trkpt lat="44.47162" lon="4.83454">
        <ele>299.11</ele>
        <time>2015-01-04T09:49:16Z</time>
      </trkpt>
      <trkpt lat="44.47161" lon="4.83452">
        <ele>299.59</ele>
        <time>2015-01-04T09:49:17Z</time>
      </trkpt>
      <trkpt lat="44.47158" lon="4.83451">
        <ele>299.11</ele>
        <time>2015-01-04T09:49:18Z</time>
      </trkpt>
      <trkpt lat="44.47156" lon="4.83449">
        <ele>298.63</ele>
        <time>2015-01-04T09:49:19Z</time>
      </trkpt>
      <trkpt lat="44.47139" lon="4.8344">
        <ele>298.15</ele>
        <time>2015-01-04T09:49:26Z</time>
      </trkpt>
      <trkpt lat="44.47123" lon="4.83404">
        <ele>294.78</ele>
        <time>2015-01-04T09:49:33Z</time>
      </trkpt>
      <trkpt lat="44.47114" lon="4.83386">
        <ele>293.34</ele>
        <time>2015-01-04T09:49:37Z</time>
      </trkpt>
      <trkpt lat="44.47112" lon="4.83381">
        <ele>292.86</ele>
        <time>2015-01-04T09:49:38Z</time>
      </trkpt>
      <trkpt lat="44.47112" lon="4.83379">
        <ele>292.86</ele>
        <time>2015-01-04T09:49:39Z</time>
      </trkpt>
      <trkpt lat="44.47107" lon="4.83365">
        <ele>293.34</ele>
        <time>2015-01-04T09:49:50Z</time>
      </trkpt>
      <trkpt lat="44.47103" lon="4.83344">
        <ele>294.3</ele>
        <time>2015-01-04T09:50:01Z</time>
      </trkpt>
      <trkpt lat="44.47103" lon="4.83341">
        <ele>294.78</ele>
        <time>2015-01-04T09:50:02Z</time>
      </trkpt>
      <trkpt lat="44.47102" lon="4.83338">
        <ele>295.26</ele>
        <time>2015-01-04T09:50:03Z</time>
      </trkpt>
      <trkpt lat="44.47101" lon="4.83335">
        <ele>295.26</ele>
        <time>2015-01-04T09:50:04Z</time>
      </trkpt>
      <trkpt lat="44.471" lon="4.83332">
        <ele>295.26</ele>
        <time>2015-01-04T09:50:05Z</time>
      </trkpt>
      <trkpt lat="44.471" lon="4.83329">
        <ele>295.74</ele>
        <time>2015-01-04T09:50:06Z</time>
      </trkpt>
      <trkpt lat="44.47098" lon="4.83325">
        <ele>295.74</ele>
        <time>2015-01-04T09:50:07Z</time>
      </trkpt>
      <trkpt lat="44.47096" lon="4.83322">
        <ele>295.74</ele>
        <time>2015-01-04T09:50:08Z</time>
      </trkpt>
      <trkpt lat="44.47094" lon="4.83319">
        <ele>295.74</ele>
        <time>2015-01-04T09:50:09Z</time>
      </trkpt>
      <trkpt lat="44.47092" lon="4.83315">
        <ele>295.74</ele>
        <time>2015-01-04T09:50:10Z</time>
      </trkpt>
      <trkpt lat="44.4709" lon="4.83311">
        <ele>296.7</ele>
        <time>2015-01-04T09:50:11Z</time>
      </trkpt>
      <trkpt lat="44.47076" lon="4.83282">
        <ele>297.18</ele>
        <time>2015-01-04T09:50:20Z</time>
      </trkpt>
      <trkpt lat="44.47075" lon="4.83278">
        <ele>297.67</ele>
        <time>2015-01-04T09:50:21Z</time>
      </trkpt>
      <trkpt lat="44.47074" lon="4.83274">
        <ele>297.67</ele>
        <time>2015-01-04T09:50:22Z</time>
      </trkpt>
      <trkpt lat="44.47073" lon="4.8327">
        <ele>297.67</ele>
        <time>2015-01-04T09:50:23Z</time>
      </trkpt>
      <trkpt lat="44.47072" lon="4.83265">
        <ele>297.67</ele>
        <time>2015-01-04T09:50:24Z</time>
      </trkpt>
      <trkpt lat="44.47071" lon="4.83261">
        <ele>297.67</ele>
        <time>2015-01-04T09:50:25Z</time>
      </trkpt>
      <trkpt lat="44.4707" lon="4.83257">
        <ele>298.15</ele>
        <time>2015-01-04T09:50:26Z</time>
      </trkpt>
      <trkpt lat="44.47065" lon="4.83206">
        <ele>300.07</ele>
        <time>2015-01-04T09:50:38Z</time>
      </trkpt>
      <trkpt lat="44.47064" lon="4.83202">
        <ele>300.07</ele>
        <time>2015-01-04T09:50:39Z</time>
      </trkpt>
      <trkpt lat="44.47062" lon="4.83198">
        <ele>300.07</ele>
        <time>2015-01-04T09:50:40Z</time>
      </trkpt>
      <trkpt lat="44.47061" lon="4.83194">
        <ele>301.03</ele>
        <time>2015-01-04T09:50:41Z</time>
      </trkpt>
      <trkpt lat="44.47061" lon="4.83189">
        <ele>301.99</ele>
        <time>2015-01-04T09:50:42Z</time>
      </trkpt>
      <trkpt lat="44.4706" lon="4.83186">
        <ele>301.99</ele>
        <time>2015-01-04T09:50:43Z</time>
      </trkpt>
      <trkpt lat="44.4706" lon="4.83182">
        <ele>301.51</ele>
        <time>2015-01-04T09:50:44Z</time>
      </trkpt>
      <trkpt lat="44.47059" lon="4.83179">
        <ele>302.47</ele>
        <time>2015-01-04T09:50:45Z</time>
      </trkpt>
      <trkpt lat="44.47051" lon="4.83143">
        <ele>304.39</ele>
        <time>2015-01-04T09:50:56Z</time>
      </trkpt>
      <trkpt lat="44.47039" lon="4.83103">
        <ele>303.91</ele>
        <time>2015-01-04T09:51:07Z</time>
      </trkpt>
      <trkpt lat="44.47025" lon="4.83061">
        <ele>304.88</ele>
        <time>2015-01-04T09:51:19Z</time>
      </trkpt>
      <trkpt lat="44.47013" lon="4.83024">
        <ele>306.8</ele>
        <time>2015-01-04T09:51:30Z</time>
      </trkpt>
      <trkpt lat="44.47008" lon="4.82987">
        <ele>309.68</ele>
        <time>2015-01-04T09:51:42Z</time>
      </trkpt>
      <trkpt lat="44.47009" lon="4.82972">
        <ele>311.6</ele>
        <time>2015-01-04T09:51:47Z</time>
      </trkpt>
      <trkpt lat="44.47009" lon="4.82969">
        <ele>311.6</ele>
        <time>2015-01-04T09:51:48Z</time>
      </trkpt>
      <trkpt lat="44.47009" lon="4.82956">
        <ele>313.53</ele>
        <time>2015-01-04T09:51:53Z</time>
      </trkpt>
      <trkpt lat="44.47013" lon="4.82922">
        <ele>313.53</ele>
        <time>2015-01-04T09:52:04Z</time>
      </trkpt>
      <trkpt lat="44.47016" lon="4.82905">
        <ele>313.05</ele>
        <time>2015-01-04T09:52:09Z</time>
      </trkpt>
      <trkpt lat="44.47016" lon="4.82903">
        <ele>313.53</ele>
        <time>2015-01-04T09:52:10Z</time>
      </trkpt>
      <trkpt lat="44.47017" lon="4.829">
        <ele>313.05</ele>
        <time>2015-01-04T09:52:11Z</time>
      </trkpt>
      <trkpt lat="44.47028" lon="4.82853">
        <ele>313.53</ele>
        <time>2015-01-04T09:52:22Z</time>
      </trkpt>
      <trkpt lat="44.47045" lon="4.82806">
        <ele>314.97</ele>
        <time>2015-01-04T09:52:36Z</time>
      </trkpt>
      <trkpt lat="44.47048" lon="4.82779">
        <ele>314.49</ele>
        <time>2015-01-04T09:52:48Z</time>
      </trkpt>
      <trkpt lat="44.47048" lon="4.82778">
        <ele>313.53</ele>
        <time>2015-01-04T09:53:04Z</time>
      </trkpt>
      <trkpt lat="44.47048" lon="4.82778">
        <ele>314.01</ele>
        <time>2015-01-04T09:53:31Z</time>
      </trkpt>
      <trkpt lat="44.47047" lon="4.82778">
        <ele>314.49</ele>
        <time>2015-01-04T09:54:01Z</time>
      </trkpt>
      <trkpt lat="44.47048" lon="4.82773">
        <ele>314.97</ele>
        <time>2015-01-04T09:54:20Z</time>
      </trkpt>
      <trkpt lat="44.47049" lon="4.8277">
        <ele>314.01</ele>
        <time>2015-01-04T09:54:22Z</time>
      </trkpt>
      <trkpt lat="44.4705" lon="4.82768">
        <ele>314.49</ele>
        <time>2015-01-04T09:54:23Z</time>
      </trkpt>
      <trkpt lat="44.47051" lon="4.82765">
        <ele>313.53</ele>
        <time>2015-01-04T09:54:24Z</time>
      </trkpt>
      <trkpt lat="44.47052" lon="4.82763">
        <ele>313.53</ele>
        <time>2015-01-04T09:54:25Z</time>
      </trkpt>
      <trkpt lat="44.47053" lon="4.8276">
        <ele>313.53</ele>
        <time>2015-01-04T09:54:26Z</time>
      </trkpt>
      <trkpt lat="44.47055" lon="4.82757">
        <ele>313.53</ele>
        <time>2015-01-04T09:54:27Z</time>
      </trkpt>
      <trkpt lat="44.47056" lon="4.82753">
        <ele>312.57</ele>
        <time>2015-01-04T09:54:28Z</time>
      </trkpt>
      <trkpt lat="44.47067" lon="4.82732">
        <ele>310.64</ele>
        <time>2015-01-04T09:54:33Z</time>
      </trkpt>
      <trkpt lat="44.4707" lon="4.82728">
        <ele>309.68</ele>
        <time>2015-01-04T09:54:34Z</time>
      </trkpt>
      <trkpt lat="44.47073" lon="4.82725">
        <ele>310.16</ele>
        <time>2015-01-04T09:54:35Z</time>
      </trkpt>
      <trkpt lat="44.47087" lon="4.82707">
        <ele>310.64</ele>
        <time>2015-01-04T09:54:39Z</time>
      </trkpt>
      <trkpt lat="44.47091" lon="4.82703">
        <ele>311.6</ele>
        <time>2015-01-04T09:54:40Z</time>
      </trkpt>
      <trkpt lat="44.47094" lon="4.82701">
        <ele>311.6</ele>
        <time>2015-01-04T09:54:41Z</time>
      </trkpt>
      <trkpt lat="44.47098" lon="4.82699">
        <ele>311.6</ele>
        <time>2015-01-04T09:54:42Z</time>
      </trkpt>
      <trkpt lat="44.47102" lon="4.82698">
        <ele>311.6</ele>
        <time>2015-01-04T09:54:43Z</time>
      </trkpt>
      <trkpt lat="44.47105" lon="4.82698">
        <ele>311.6</ele>
        <time>2015-01-04T09:54:44Z</time>
      </trkpt>
      <trkpt lat="44.47118" lon="4.82698">
        <ele>312.57</ele>
        <time>2015-01-04T09:54:48Z</time>
      </trkpt>
      <trkpt lat="44.47121" lon="4.827">
        <ele>312.57</ele>
        <time>2015-01-04T09:54:49Z</time>
      </trkpt>
      <trkpt lat="44.47124" lon="4.82702">
        <ele>313.05</ele>
        <time>2015-01-04T09:54:50Z</time>
      </trkpt>
      <trkpt lat="44.47152" lon="4.82715">
        <ele>316.41</ele>
        <time>2015-01-04T09:55:02Z</time>
      </trkpt>
      <trkpt lat="44.47178" lon="4.8273">
        <ele>317.85</ele>
        <time>2015-01-04T09:55:13Z</time>
      </trkpt>
      <trkpt lat="44.47205" lon="4.8275">
        <ele>320.74</ele>
        <time>2015-01-04T09:55:27Z</time>
      </trkpt>
      <trkpt lat="44.4723" lon="4.82753">
        <ele>323.14</ele>
        <time>2015-01-04T09:55:39Z</time>
      </trkpt>
      <trkpt lat="44.47254" lon="4.82751">
        <ele>325.06</ele>
        <time>2015-01-04T09:55:51Z</time>
      </trkpt>
      <trkpt lat="44.4728" lon="4.82746">
        <ele>326.5</ele>
        <time>2015-01-04T09:56:04Z</time>
      </trkpt>
      <trkpt lat="44.47306" lon="4.8274">
        <ele>327.47</ele>
        <time>2015-01-04T09:56:16Z</time>
      </trkpt>
      <trkpt lat="44.47334" lon="4.82739">
        <ele>327.95</ele>
        <time>2015-01-04T09:56:28Z</time>
      </trkpt>
      <trkpt lat="44.4735" lon="4.82744">
        <ele>328.91</ele>
        <time>2015-01-04T09:56:36Z</time>
      </trkpt>
      <trkpt lat="44.47352" lon="4.82744">
        <ele>329.39</ele>
        <time>2015-01-04T09:56:37Z</time>
      </trkpt>
      <trkpt lat="44.47384" lon="4.82736">
        <ele>329.39</ele>
        <time>2015-01-04T09:56:50Z</time>
      </trkpt>
      <trkpt lat="44.47415" lon="4.82732">
        <ele>329.39</ele>
        <time>2015-01-04T09:57:02Z</time>
      </trkpt>
      <trkpt lat="44.4742" lon="4.82732">
        <ele>330.35</ele>
        <time>2015-01-04T09:57:04Z</time>
      </trkpt>
      <trkpt lat="44.47447" lon="4.82735">
        <ele>331.79</ele>
        <time>2015-01-04T09:57:16Z</time>
      </trkpt>
      <trkpt lat="44.47449" lon="4.82735">
        <ele>331.79</ele>
        <time>2015-01-04T09:57:17Z</time>
      </trkpt>
      <trkpt lat="44.47451" lon="4.82736">
        <ele>331.79</ele>
        <time>2015-01-04T09:57:18Z</time>
      </trkpt>
      <trkpt lat="44.47453" lon="4.82736">
        <ele>332.27</ele>
        <time>2015-01-04T09:57:19Z</time>
      </trkpt>
      <trkpt lat="44.47455" lon="4.82737">
        <ele>331.79</ele>
        <time>2015-01-04T09:57:20Z</time>
      </trkpt>
      <trkpt lat="44.47457" lon="4.82737">
        <ele>332.27</ele>
        <time>2015-01-04T09:57:21Z</time>
      </trkpt>
      <trkpt lat="44.47459" lon="4.82736">
        <ele>332.75</ele>
        <time>2015-01-04T09:57:22Z</time>
      </trkpt>
      <trkpt lat="44.47462" lon="4.82735">
        <ele>332.75</ele>
        <time>2015-01-04T09:57:23Z</time>
      </trkpt>
      <trkpt lat="44.47464" lon="4.82733">
        <ele>332.75</ele>
        <time>2015-01-04T09:57:24Z</time>
      </trkpt>
      <trkpt lat="44.47466" lon="4.82732">
        <ele>331.79</ele>
        <time>2015-01-04T09:57:25Z</time>
      </trkpt>
      <trkpt lat="44.47468" lon="4.8273">
        <ele>331.79</ele>
        <time>2015-01-04T09:57:26Z</time>
      </trkpt>
      <trkpt lat="44.47469" lon="4.82728">
        <ele>331.79</ele>
        <time>2015-01-04T09:57:27Z</time>
      </trkpt>
      <trkpt lat="44.47471" lon="4.82726">
        <ele>331.79</ele>
        <time>2015-01-04T09:57:28Z</time>
      </trkpt>
      <trkpt lat="44.47472" lon="4.82723">
        <ele>331.79</ele>
        <time>2015-01-04T09:57:29Z</time>
      </trkpt>
      <trkpt lat="44.47485" lon="4.82705">
        <ele>330.35</ele>
        <time>2015-01-04T09:57:40Z</time>
      </trkpt>
      <trkpt lat="44.47485" lon="4.82704">
        <ele>329.87</ele>
        <time>2015-01-04T09:57:41Z</time>
      </trkpt>
      <trkpt lat="44.47486" lon="4.82702">
        <ele>329.39</ele>
        <time>2015-01-04T09:57:42Z</time>
      </trkpt>
      <trkpt lat="44.47491" lon="4.82692">
        <ele>328.91</ele>
        <time>2015-01-04T09:57:46Z</time>
      </trkpt>
      <trkpt lat="44.47493" lon="4.82691">
        <ele>329.39</ele>
        <time>2015-01-04T09:57:47Z</time>
      </trkpt>
      <trkpt lat="44.47495" lon="4.82689">
        <ele>328.91</ele>
        <time>2015-01-04T09:57:48Z</time>
      </trkpt>
      <trkpt lat="44.47498" lon="4.82687">
        <ele>329.39</ele>
        <time>2015-01-04T09:57:49Z</time>
      </trkpt>
      <trkpt lat="44.47501" lon="4.82685">
        <ele>329.39</ele>
        <time>2015-01-04T09:57:50Z</time>
      </trkpt>
      <trkpt lat="44.47529" lon="4.82671">
        <ele>326.02</ele>
        <time>2015-01-04T09:58:00Z</time>
      </trkpt>
      <trkpt lat="44.47533" lon="4.82669">
        <ele>326.5</ele>
        <time>2015-01-04T09:58:01Z</time>
      </trkpt>
      <trkpt lat="44.47578" lon="4.8266">
        <ele>325.06</ele>
        <time>2015-01-04T09:58:13Z</time>
      </trkpt>
      <trkpt lat="44.4763" lon="4.82649">
        <ele>323.14</ele>
        <time>2015-01-04T09:58:26Z</time>
      </trkpt>
      <trkpt lat="44.47635" lon="4.8265">
        <ele>322.66</ele>
        <time>2015-01-04T09:58:27Z</time>
      </trkpt>
      <trkpt lat="44.4764" lon="4.82648">
        <ele>322.18</ele>
        <time>2015-01-04T09:58:28Z</time>
      </trkpt>
      <trkpt lat="44.47655" lon="4.82641">
        <ele>320.74</ele>
        <time>2015-01-04T09:58:31Z</time>
      </trkpt>
      <trkpt lat="44.4766" lon="4.82637">
        <ele>321.22</ele>
        <time>2015-01-04T09:58:32Z</time>
      </trkpt>
      <trkpt lat="44.47665" lon="4.82633">
        <ele>320.74</ele>
        <time>2015-01-04T09:58:33Z</time>
      </trkpt>
      <trkpt lat="44.47669" lon="4.82628">
        <ele>321.22</ele>
        <time>2015-01-04T09:58:34Z</time>
      </trkpt>
      <trkpt lat="44.47672" lon="4.82622">
        <ele>320.26</ele>
        <time>2015-01-04T09:58:35Z</time>
      </trkpt>
      <trkpt lat="44.47689" lon="4.82593">
        <ele>319.3</ele>
        <time>2015-01-04T09:58:40Z</time>
      </trkpt>
      <trkpt lat="44.47697" lon="4.82582">
        <ele>318.33</ele>
        <time>2015-01-04T09:58:42Z</time>
      </trkpt>
      <trkpt lat="44.47701" lon="4.82578">
        <ele>318.81</ele>
        <time>2015-01-04T09:58:43Z</time>
      </trkpt>
      <trkpt lat="44.47705" lon="4.82573">
        <ele>318.33</ele>
        <time>2015-01-04T09:58:44Z</time>
      </trkpt>
      <trkpt lat="44.47713" lon="4.82565">
        <ele>317.37</ele>
        <time>2015-01-04T09:58:46Z</time>
      </trkpt>
      <trkpt lat="44.47734" lon="4.82547">
        <ele>315.93</ele>
        <time>2015-01-04T09:58:51Z</time>
      </trkpt>
      <trkpt lat="44.47739" lon="4.82545">
        <ele>316.41</ele>
        <time>2015-01-04T09:58:52Z</time>
      </trkpt>
      <trkpt lat="44.47787" lon="4.82518">
        <ele>313.53</ele>
        <time>2015-01-04T09:59:03Z</time>
      </trkpt>
      <trkpt lat="44.47791" lon="4.82515">
        <ele>313.53</ele>
        <time>2015-01-04T09:59:04Z</time>
      </trkpt>
      <trkpt lat="44.47829" lon="4.82493">
        <ele>310.64</ele>
        <time>2015-01-04T09:59:13Z</time>
      </trkpt>
      <trkpt lat="44.47838" lon="4.82489">
        <ele>310.64</ele>
        <time>2015-01-04T09:59:15Z</time>
      </trkpt>
      <trkpt lat="44.47842" lon="4.82487">
        <ele>309.68</ele>
        <time>2015-01-04T09:59:16Z</time>
      </trkpt>
      <trkpt lat="44.47846" lon="4.82485">
        <ele>309.68</ele>
        <time>2015-01-04T09:59:17Z</time>
      </trkpt>
      <trkpt lat="44.47881" lon="4.82458">
        <ele>308.24</ele>
        <time>2015-01-04T09:59:25Z</time>
      </trkpt>
      <trkpt lat="44.47892" lon="4.82445">
        <ele>308.24</ele>
        <time>2015-01-04T09:59:28Z</time>
      </trkpt>
      <trkpt lat="44.47896" lon="4.8244">
        <ele>308.24</ele>
        <time>2015-01-04T09:59:29Z</time>
      </trkpt>
      <trkpt lat="44.47899" lon="4.82435">
        <ele>308.24</ele>
        <time>2015-01-04T09:59:30Z</time>
      </trkpt>
      <trkpt lat="44.47901" lon="4.82429">
        <ele>308.24</ele>
        <time>2015-01-04T09:59:31Z</time>
      </trkpt>
      <trkpt lat="44.47903" lon="4.82423">
        <ele>308.24</ele>
        <time>2015-01-04T09:59:32Z</time>
      </trkpt>
      <trkpt lat="44.47905" lon="4.82417">
        <ele>309.2</ele>
        <time>2015-01-04T09:59:33Z</time>
      </trkpt>
      <trkpt lat="44.47907" lon="4.82404">
        <ele>310.16</ele>
        <time>2015-01-04T09:59:35Z</time>
      </trkpt>
      <trkpt lat="44.47907" lon="4.82398">
        <ele>310.64</ele>
        <time>2015-01-04T09:59:36Z</time>
      </trkpt>
      <trkpt lat="44.47907" lon="4.82392">
        <ele>311.12</ele>
        <time>2015-01-04T09:59:37Z</time>
      </trkpt>
      <trkpt lat="44.47906" lon="4.82387">
        <ele>311.12</ele>
        <time>2015-01-04T09:59:38Z</time>
      </trkpt>
      <trkpt lat="44.47905" lon="4.82382">
        <ele>311.12</ele>
        <time>2015-01-04T09:59:39Z</time>
      </trkpt>
      <trkpt lat="44.47904" lon="4.82377">
        <ele>311.6</ele>
        <time>2015-01-04T09:59:40Z</time>
      </trkpt>
      <trkpt lat="44.47903" lon="4.82373">
        <ele>311.6</ele>
        <time>2015-01-04T09:59:41Z</time>
      </trkpt>
      <trkpt lat="44.47901" lon="4.82368">
        <ele>312.09</ele>
        <time>2015-01-04T09:59:42Z</time>
      </trkpt>
      <trkpt lat="44.479" lon="4.82363">
        <ele>312.09</ele>
        <time>2015-01-04T09:59:43Z</time>
      </trkpt>
      <trkpt lat="44.47898" lon="4.82348">
        <ele>313.05</ele>
        <time>2015-01-04T09:59:46Z</time>
      </trkpt>
      <trkpt lat="44.47912" lon="4.82332">
        <ele>313.53</ele>
        <time>2015-01-04T09:59:51Z</time>
      </trkpt>
      <trkpt lat="44.47958" lon="4.82305">
        <ele>315.93</ele>
        <time>2015-01-04T10:00:05Z</time>
      </trkpt>
      <trkpt lat="44.47978" lon="4.82284">
        <ele>317.85</ele>
        <time>2015-01-04T10:00:13Z</time>
      </trkpt>
      <trkpt lat="44.47987" lon="4.82275">
        <ele>317.37</ele>
        <time>2015-01-04T10:00:17Z</time>
      </trkpt>
      <trkpt lat="44.47998" lon="4.82269">
        <ele>318.33</ele>
        <time>2015-01-04T10:00:21Z</time>
      </trkpt>
      <trkpt lat="44.48004" lon="4.82267">
        <ele>318.33</ele>
        <time>2015-01-04T10:00:23Z</time>
      </trkpt>
      <trkpt lat="44.48007" lon="4.82286">
        <ele>318.33</ele>
        <time>2015-01-04T10:00:31Z</time>
      </trkpt>
      <trkpt lat="44.48013" lon="4.82297">
        <ele>320.26</ele>
        <time>2015-01-04T10:00:40Z</time>
      </trkpt>
      <trkpt lat="44.48013" lon="4.823">
        <ele>319.78</ele>
        <time>2015-01-04T10:00:58Z</time>
      </trkpt>
      <trkpt lat="44.48014" lon="4.823">
        <ele>319.78</ele>
        <time>2015-01-04T10:01:10Z</time>
      </trkpt>
      <trkpt lat="44.48014" lon="4.823">
        <ele>318.81</ele>
        <time>2015-01-04T10:01:15Z</time>
      </trkpt>
      <trkpt lat="44.48009" lon="4.82281">
        <ele>317.37</ele>
        <time>2015-01-04T10:01:23Z</time>
      </trkpt>
      <trkpt lat="44.48012" lon="4.82272">
        <ele>317.37</ele>
        <time>2015-01-04T10:01:26Z</time>
      </trkpt>
      <trkpt lat="44.48027" lon="4.82242">
        <ele>318.33</ele>
        <time>2015-01-04T10:01:37Z</time>
      </trkpt>
      <trkpt lat="44.48027" lon="4.82224">
        <ele>319.3</ele>
        <time>2015-01-04T10:01:42Z</time>
      </trkpt>
      <trkpt lat="44.48027" lon="4.82198">
        <ele>319.78</ele>
        <time>2015-01-04T10:01:49Z</time>
      </trkpt>
      <trkpt lat="44.4803" lon="4.82183">
        <ele>320.26</ele>
        <time>2015-01-04T10:01:54Z</time>
      </trkpt>
      <trkpt lat="44.48033" lon="4.8215">
        <ele>323.62</ele>
        <time>2015-01-04T10:02:06Z</time>
      </trkpt>
      <trkpt lat="44.48032" lon="4.82137">
        <ele>324.1</ele>
        <time>2015-01-04T10:02:11Z</time>
      </trkpt>
      <trkpt lat="44.48013" lon="4.82106">
        <ele>326.5</ele>
        <time>2015-01-04T10:02:27Z</time>
      </trkpt>
      <trkpt lat="44.4799" lon="4.82063">
        <ele>326.5</ele>
        <time>2015-01-04T10:02:41Z</time>
      </trkpt>
      <trkpt lat="44.47959" lon="4.82034">
        <ele>324.58</ele>
        <time>2015-01-04T10:02:54Z</time>
      </trkpt>
      <trkpt lat="44.4793" lon="4.82008">
        <ele>324.1</ele>
        <time>2015-01-04T10:03:06Z</time>
      </trkpt>
      <trkpt lat="44.479" lon="4.81991">
        <ele>325.06</ele>
        <time>2015-01-04T10:03:18Z</time>
      </trkpt>
      <trkpt lat="44.47865" lon="4.81988">
        <ele>327.47</ele>
        <time>2015-01-04T10:03:33Z</time>
      </trkpt>
      <trkpt lat="44.47833" lon="4.81989">
        <ele>330.35</ele>
        <time>2015-01-04T10:03:48Z</time>
      </trkpt>
      <trkpt lat="44.47831" lon="4.81989">
        <ele>325.54</ele>
        <time>2015-01-04T10:03:49Z</time>
      </trkpt>
      <trkpt lat="44.47829" lon="4.81989">
        <ele>331.31</ele>
        <time>2015-01-04T10:03:50Z</time>
      </trkpt>
      <trkpt lat="44.478" lon="4.81973">
        <ele>332.27</ele>
        <time>2015-01-04T10:04:03Z</time>
      </trkpt>
      <trkpt lat="44.47768" lon="4.81947">
        <ele>333.23</ele>
        <time>2015-01-04T10:04:18Z</time>
      </trkpt>
      <trkpt lat="44.47751" lon="4.81934">
        <ele>335.64</ele>
        <time>2015-01-04T10:04:28Z</time>
      </trkpt>
      <trkpt lat="44.47741" lon="4.81929">
        <ele>338.52</ele>
        <time>2015-01-04T10:04:34Z</time>
      </trkpt>
      <trkpt lat="44.47732" lon="4.81925">
        <ele>339.48</ele>
        <time>2015-01-04T10:04:40Z</time>
      </trkpt>
      <trkpt lat="44.4773" lon="4.81923">
        <ele>340.92</ele>
        <time>2015-01-04T10:04:42Z</time>
      </trkpt>
      <trkpt lat="44.4772" lon="4.81918">
        <ele>341.89</ele>
        <time>2015-01-04T10:04:49Z</time>
      </trkpt>
      <trkpt lat="44.47712" lon="4.81915">
        <ele>344.77</ele>
        <time>2015-01-04T10:04:55Z</time>
      </trkpt>
      <trkpt lat="44.47702" lon="4.8191">
        <ele>346.69</ele>
        <time>2015-01-04T10:05:03Z</time>
      </trkpt>
      <trkpt lat="44.47692" lon="4.81911">
        <ele>349.1</ele>
        <time>2015-01-04T10:05:12Z</time>
      </trkpt>
      <trkpt lat="44.47675" lon="4.81908">
        <ele>351.98</ele>
        <time>2015-01-04T10:05:29Z</time>
      </trkpt>
      <trkpt lat="44.47675" lon="4.81908">
        <ele>351.98</ele>
        <time>2015-01-04T10:05:50Z</time>
      </trkpt>
      <trkpt lat="44.47675" lon="4.81908">
        <ele>351.5</ele>
        <time>2015-01-04T10:06:23Z</time>
      </trkpt>
      <trkpt lat="44.47674" lon="4.81907">
        <ele>351.98</ele>
        <time>2015-01-04T10:06:56Z</time>
      </trkpt>
      <trkpt lat="44.47674" lon="4.81907">
        <ele>351.02</ele>
        <time>2015-01-04T10:07:19Z</time>
      </trkpt>
      <trkpt lat="44.47674" lon="4.81907">
        <ele>351.98</ele>
        <time>2015-01-04T10:07:54Z</time>
      </trkpt>
      <trkpt lat="44.47673" lon="4.81907">
        <ele>351.98</ele>
        <time>2015-01-04T10:08:27Z</time>
      </trkpt>
      <trkpt lat="44.47673" lon="4.81907">
        <ele>351.5</ele>
        <time>2015-01-04T10:08:54Z</time>
      </trkpt>
      <trkpt lat="44.47673" lon="4.81907">
        <ele>351.98</ele>
        <time>2015-01-04T10:09:23Z</time>
      </trkpt>
      <trkpt lat="44.47673" lon="4.81907">
        <ele>351.5</ele>
        <time>2015-01-04T10:09:24Z</time>
      </trkpt>
      <trkpt lat="44.47673" lon="4.81906">
        <ele>352.46</ele>
        <time>2015-01-04T10:09:40Z</time>
      </trkpt>
      <trkpt lat="44.4767" lon="4.81894">
        <ele>351.02</ele>
        <time>2015-01-04T10:09:47Z</time>
      </trkpt>
      <trkpt lat="44.47669" lon="4.81885">
        <ele>353.42</ele>
        <time>2015-01-04T10:09:51Z</time>
      </trkpt>
      <trkpt lat="44.47664" lon="4.81838">
        <ele>353.42</ele>
        <time>2015-01-04T10:10:06Z</time>
      </trkpt>
      <trkpt lat="44.47662" lon="4.8178">
        <ele>352.94</ele>
        <time>2015-01-04T10:10:21Z</time>
      </trkpt>
      <trkpt lat="44.47656" lon="4.81757">
        <ele>352.46</ele>
        <time>2015-01-04T10:10:26Z</time>
      </trkpt>
      <trkpt lat="44.47655" lon="4.81751">
        <ele>351.5</ele>
        <time>2015-01-04T10:10:27Z</time>
      </trkpt>
      <trkpt lat="44.47655" lon="4.81745">
        <ele>350.54</ele>
        <time>2015-01-04T10:10:28Z</time>
      </trkpt>
      <trkpt lat="44.47656" lon="4.81724">
        <ele>350.06</ele>
        <time>2015-01-04T10:10:31Z</time>
      </trkpt>
      <trkpt lat="44.47654" lon="4.81717">
        <ele>348.62</ele>
        <time>2015-01-04T10:10:32Z</time>
      </trkpt>
      <trkpt lat="44.4765" lon="4.81712">
        <ele>349.1</ele>
        <time>2015-01-04T10:10:33Z</time>
      </trkpt>
      <trkpt lat="44.47646" lon="4.81707">
        <ele>348.13</ele>
        <time>2015-01-04T10:10:34Z</time>
      </trkpt>
      <trkpt lat="44.4764" lon="4.81703">
        <ele>346.69</ele>
        <time>2015-01-04T10:10:35Z</time>
      </trkpt>
      <trkpt lat="44.47608" lon="4.81682">
        <ele>345.73</ele>
        <time>2015-01-04T10:10:41Z</time>
      </trkpt>
      <trkpt lat="44.47605" lon="4.81679">
        <ele>345.73</ele>
        <time>2015-01-04T10:10:42Z</time>
      </trkpt>
      <trkpt lat="44.4759" lon="4.81667">
        <ele>345.73</ele>
        <time>2015-01-04T10:10:46Z</time>
      </trkpt>
      <trkpt lat="44.47587" lon="4.81664">
        <ele>346.21</ele>
        <time>2015-01-04T10:10:47Z</time>
      </trkpt>
      <trkpt lat="44.47585" lon="4.8166">
        <ele>346.21</ele>
        <time>2015-01-04T10:10:48Z</time>
      </trkpt>
      <trkpt lat="44.47582" lon="4.81656">
        <ele>345.73</ele>
        <time>2015-01-04T10:10:49Z</time>
      </trkpt>
      <trkpt lat="44.4758" lon="4.81651">
        <ele>346.21</ele>
        <time>2015-01-04T10:10:50Z</time>
      </trkpt>
      <trkpt lat="44.47578" lon="4.81646">
        <ele>346.21</ele>
        <time>2015-01-04T10:10:51Z</time>
      </trkpt>
      <trkpt lat="44.47576" lon="4.8164">
        <ele>346.69</ele>
        <time>2015-01-04T10:10:52Z</time>
      </trkpt>
      <trkpt lat="44.47574" lon="4.81634">
        <ele>346.21</ele>
        <time>2015-01-04T10:10:53Z</time>
      </trkpt>
      <trkpt lat="44.47563" lon="4.81588">
        <ele>344.77</ele>
        <time>2015-01-04T10:11:02Z</time>
      </trkpt>
      <trkpt lat="44.47559" lon="4.81548">
        <ele>344.77</ele>
        <time>2015-01-04T10:11:11Z</time>
      </trkpt>
      <trkpt lat="44.47556" lon="4.81498">
        <ele>344.77</ele>
        <time>2015-01-04T10:11:21Z</time>
      </trkpt>
      <trkpt lat="44.47552" lon="4.81471">
        <ele>344.77</ele>
        <time>2015-01-04T10:11:28Z</time>
      </trkpt>
      <trkpt lat="44.47551" lon="4.81467">
        <ele>345.25</ele>
        <time>2015-01-04T10:11:29Z</time>
      </trkpt>
      <trkpt lat="44.4755" lon="4.81464">
        <ele>345.25</ele>
        <time>2015-01-04T10:11:30Z</time>
      </trkpt>
      <trkpt lat="44.47549" lon="4.8146">
        <ele>345.25</ele>
        <time>2015-01-04T10:11:31Z</time>
      </trkpt>
      <trkpt lat="44.47549" lon="4.81457">
        <ele>345.73</ele>
        <time>2015-01-04T10:11:32Z</time>
      </trkpt>
      <trkpt lat="44.47547" lon="4.81453">
        <ele>346.21</ele>
        <time>2015-01-04T10:11:33Z</time>
      </trkpt>
      <trkpt lat="44.47546" lon="4.8145">
        <ele>345.73</ele>
        <time>2015-01-04T10:11:34Z</time>
      </trkpt>
      <trkpt lat="44.47544" lon="4.81445">
        <ele>346.21</ele>
        <time>2015-01-04T10:11:35Z</time>
      </trkpt>
      <trkpt lat="44.47542" lon="4.8144">
        <ele>346.69</ele>
        <time>2015-01-04T10:11:36Z</time>
      </trkpt>
      <trkpt lat="44.47541" lon="4.81435">
        <ele>346.69</ele>
        <time>2015-01-04T10:11:37Z</time>
      </trkpt>
      <trkpt lat="44.47539" lon="4.8143">
        <ele>346.69</ele>
        <time>2015-01-04T10:11:38Z</time>
      </trkpt>
      <trkpt lat="44.47538" lon="4.81425">
        <ele>346.69</ele>
        <time>2015-01-04T10:11:39Z</time>
      </trkpt>
      <trkpt lat="44.47536" lon="4.8142">
        <ele>347.17</ele>
        <time>2015-01-04T10:11:40Z</time>
      </trkpt>
      <trkpt lat="44.47535" lon="4.81415">
        <ele>347.17</ele>
        <time>2015-01-04T10:11:41Z</time>
      </trkpt>
      <trkpt lat="44.47533" lon="4.8141">
        <ele>347.17</ele>
        <time>2015-01-04T10:11:42Z</time>
      </trkpt>
      <trkpt lat="44.47532" lon="4.81406">
        <ele>347.65</ele>
        <time>2015-01-04T10:11:43Z</time>
      </trkpt>
      <trkpt lat="44.4753" lon="4.81401">
        <ele>347.65</ele>
        <time>2015-01-04T10:11:44Z</time>
      </trkpt>
      <trkpt lat="44.47529" lon="4.81396">
        <ele>347.65</ele>
        <time>2015-01-04T10:11:45Z</time>
      </trkpt>
      <trkpt lat="44.4752" lon="4.81341">
        <ele>346.69</ele>
        <time>2015-01-04T10:11:56Z</time>
      </trkpt>
      <trkpt lat="44.47503" lon="4.81281">
        <ele>347.17</ele>
        <time>2015-01-04T10:12:08Z</time>
      </trkpt>
      <trkpt lat="44.47495" lon="4.81264">
        <ele>345.25</ele>
        <time>2015-01-04T10:12:12Z</time>
      </trkpt>
      <trkpt lat="44.47493" lon="4.81258">
        <ele>345.25</ele>
        <time>2015-01-04T10:12:13Z</time>
      </trkpt>
      <trkpt lat="44.47489" lon="4.81244">
        <ele>343.81</ele>
        <time>2015-01-04T10:12:15Z</time>
      </trkpt>
      <trkpt lat="44.47487" lon="4.81235">
        <ele>343.33</ele>
        <time>2015-01-04T10:12:16Z</time>
      </trkpt>
      <trkpt lat="44.4748" lon="4.81198">
        <ele>340.44</ele>
        <time>2015-01-04T10:12:20Z</time>
      </trkpt>
      <trkpt lat="44.47476" lon="4.81189">
        <ele>339.48</ele>
        <time>2015-01-04T10:12:21Z</time>
      </trkpt>
      <trkpt lat="44.47472" lon="4.8118">
        <ele>338.52</ele>
        <time>2015-01-04T10:12:22Z</time>
      </trkpt>
      <trkpt lat="44.47458" lon="4.81153">
        <ele>337.08</ele>
        <time>2015-01-04T10:12:25Z</time>
      </trkpt>
      <trkpt lat="44.47455" lon="4.81144">
        <ele>336.6</ele>
        <time>2015-01-04T10:12:26Z</time>
      </trkpt>
      <trkpt lat="44.47452" lon="4.81134">
        <ele>336.12</ele>
        <time>2015-01-04T10:12:27Z</time>
      </trkpt>
      <trkpt lat="44.47451" lon="4.81124">
        <ele>336.6</ele>
        <time>2015-01-04T10:12:28Z</time>
      </trkpt>
      <trkpt lat="44.4745" lon="4.81085">
        <ele>334.68</ele>
        <time>2015-01-04T10:12:32Z</time>
      </trkpt>
      <trkpt lat="44.47449" lon="4.81076">
        <ele>334.68</ele>
        <time>2015-01-04T10:12:33Z</time>
      </trkpt>
      <trkpt lat="44.47444" lon="4.81038">
        <ele>333.71</ele>
        <time>2015-01-04T10:12:38Z</time>
      </trkpt>
      <trkpt lat="44.47429" lon="4.80986">
        <ele>331.79</ele>
        <time>2015-01-04T10:12:45Z</time>
      </trkpt>
      <trkpt lat="44.47426" lon="4.80978">
        <ele>331.79</ele>
        <time>2015-01-04T10:12:46Z</time>
      </trkpt>
      <trkpt lat="44.47412" lon="4.80933">
        <ele>328.43</ele>
        <time>2015-01-04T10:12:51Z</time>
      </trkpt>
      <trkpt lat="44.47406" lon="4.80888">
        <ele>325.54</ele>
        <time>2015-01-04T10:12:55Z</time>
      </trkpt>
      <trkpt lat="44.47405" lon="4.80878">
        <ele>325.06</ele>
        <time>2015-01-04T10:12:56Z</time>
      </trkpt>
      <trkpt lat="44.47403" lon="4.80868">
        <ele>325.06</ele>
        <time>2015-01-04T10:12:57Z</time>
      </trkpt>
      <trkpt lat="44.47399" lon="4.80844">
        <ele>323.62</ele>
        <time>2015-01-04T10:13:03Z</time>
      </trkpt>
      <trkpt lat="44.474" lon="4.80836">
        <ele>323.62</ele>
        <time>2015-01-04T10:13:06Z</time>
      </trkpt>
      <trkpt lat="44.474" lon="4.80833">
        <ele>322.66</ele>
        <time>2015-01-04T10:13:07Z</time>
      </trkpt>
      <trkpt lat="44.47399" lon="4.8083">
        <ele>323.14</ele>
        <time>2015-01-04T10:13:08Z</time>
      </trkpt>
      <trkpt lat="44.47399" lon="4.80827">
        <ele>323.14</ele>
        <time>2015-01-04T10:13:09Z</time>
      </trkpt>
      <trkpt lat="44.474" lon="4.80825">
        <ele>323.62</ele>
        <time>2015-01-04T10:13:10Z</time>
      </trkpt>
      <trkpt lat="44.474" lon="4.80822">
        <ele>323.14</ele>
        <time>2015-01-04T10:13:11Z</time>
      </trkpt>
      <trkpt lat="44.47399" lon="4.80819">
        <ele>324.1</ele>
        <time>2015-01-04T10:13:12Z</time>
      </trkpt>
      <trkpt lat="44.47398" lon="4.80808">
        <ele>323.14</ele>
        <time>2015-01-04T10:13:16Z</time>
      </trkpt>
      <trkpt lat="44.47399" lon="4.80804">
        <ele>323.14</ele>
        <time>2015-01-04T10:13:17Z</time>
      </trkpt>
      <trkpt lat="44.47401" lon="4.80794">
        <ele>323.14</ele>
        <time>2015-01-04T10:13:20Z</time>
      </trkpt>
      <trkpt lat="44.47402" lon="4.8079">
        <ele>323.14</ele>
        <time>2015-01-04T10:13:21Z</time>
      </trkpt>
      <trkpt lat="44.47403" lon="4.80788">
        <ele>323.14</ele>
        <time>2015-01-04T10:13:22Z</time>
      </trkpt>
      <trkpt lat="44.47404" lon="4.80786">
        <ele>323.62</ele>
        <time>2015-01-04T10:13:23Z</time>
      </trkpt>
      <trkpt lat="44.47406" lon="4.80783">
        <ele>323.62</ele>
        <time>2015-01-04T10:13:24Z</time>
      </trkpt>
      <trkpt lat="44.47407" lon="4.8078">
        <ele>323.62</ele>
        <time>2015-01-04T10:13:25Z</time>
      </trkpt>
      <trkpt lat="44.47414" lon="4.80734">
        <ele>325.06</ele>
        <time>2015-01-04T10:13:37Z</time>
      </trkpt>
      <trkpt lat="44.47415" lon="4.8073">
        <ele>304.39</ele>
        <time>2015-01-04T10:13:38Z</time>
      </trkpt>
      <trkpt lat="44.47414" lon="4.80726">
        <ele>329.87</ele>
        <time>2015-01-04T10:13:39Z</time>
      </trkpt>
      <trkpt lat="44.47415" lon="4.80722">
        <ele>324.1</ele>
        <time>2015-01-04T10:13:40Z</time>
      </trkpt>
      <trkpt lat="44.47416" lon="4.80683">
        <ele>326.99</ele>
        <time>2015-01-04T10:13:50Z</time>
      </trkpt>
      <trkpt lat="44.47419" lon="4.80637">
        <ele>329.87</ele>
        <time>2015-01-04T10:14:02Z</time>
      </trkpt>
      <trkpt lat="44.47416" lon="4.80599">
        <ele>332.27</ele>
        <time>2015-01-04T10:14:13Z</time>
      </trkpt>
      <trkpt lat="44.47408" lon="4.80561">
        <ele>333.23</ele>
        <time>2015-01-04T10:14:25Z</time>
      </trkpt>
      <trkpt lat="44.47399" lon="4.80529">
        <ele>334.68</ele>
        <time>2015-01-04T10:14:35Z</time>
      </trkpt>
      <trkpt lat="44.4739" lon="4.80484">
        <ele>337.08</ele>
        <time>2015-01-04T10:14:48Z</time>
      </trkpt>
      <trkpt lat="44.47385" lon="4.80458">
        <ele>338.04</ele>
        <time>2015-01-04T10:14:58Z</time>
      </trkpt>
      <trkpt lat="44.47376" lon="4.80426">
        <ele>338.52</ele>
        <time>2015-01-04T10:15:08Z</time>
      </trkpt>
      <trkpt lat="44.47375" lon="4.80422">
        <ele>338.52</ele>
        <time>2015-01-04T10:15:09Z</time>
      </trkpt>
      <trkpt lat="44.47373" lon="4.80419">
        <ele>339</ele>
        <time>2015-01-04T10:15:10Z</time>
      </trkpt>
      <trkpt lat="44.47361" lon="4.80372">
        <ele>339.48</ele>
        <time>2015-01-04T10:15:25Z</time>
      </trkpt>
      <trkpt lat="44.47344" lon="4.80315">
        <ele>337.56</ele>
        <time>2015-01-04T10:15:37Z</time>
      </trkpt>
      <trkpt lat="44.47327" lon="4.80258">
        <ele>337.08</ele>
        <time>2015-01-04T10:15:50Z</time>
      </trkpt>
      <trkpt lat="44.47315" lon="4.80206">
        <ele>337.08</ele>
        <time>2015-01-04T10:16:03Z</time>
      </trkpt>
      <trkpt lat="44.47293" lon="4.80187">
        <ele>339</ele>
        <time>2015-01-04T10:16:13Z</time>
      </trkpt>
      <trkpt lat="44.4726" lon="4.80179">
        <ele>341.89</ele>
        <time>2015-01-04T10:16:27Z</time>
      </trkpt>
      <trkpt lat="44.47258" lon="4.80178">
        <ele>342.37</ele>
        <time>2015-01-04T10:16:28Z</time>
      </trkpt>
      <trkpt lat="44.47256" lon="4.80178">
        <ele>342.37</ele>
        <time>2015-01-04T10:16:29Z</time>
      </trkpt>
      <trkpt lat="44.47253" lon="4.80178">
        <ele>342.85</ele>
        <time>2015-01-04T10:16:30Z</time>
      </trkpt>
      <trkpt lat="44.47241" lon="4.80175">
        <ele>343.81</ele>
        <time>2015-01-04T10:16:35Z</time>
      </trkpt>
      <trkpt lat="44.4724" lon="4.80174">
        <ele>344.29</ele>
        <time>2015-01-04T10:16:36Z</time>
      </trkpt>
      <trkpt lat="44.47238" lon="4.80173">
        <ele>343.81</ele>
        <time>2015-01-04T10:16:37Z</time>
      </trkpt>
      <trkpt lat="44.47212" lon="4.80156">
        <ele>344.29</ele>
        <time>2015-01-04T10:16:49Z</time>
      </trkpt>
      <trkpt lat="44.47211" lon="4.80156">
        <ele>344.77</ele>
        <time>2015-01-04T10:16:50Z</time>
      </trkpt>
      <trkpt lat="44.47209" lon="4.80155">
        <ele>343.81</ele>
        <time>2015-01-04T10:16:51Z</time>
      </trkpt>
      <trkpt lat="44.47206" lon="4.80154">
        <ele>344.29</ele>
        <time>2015-01-04T10:16:52Z</time>
      </trkpt>
      <trkpt lat="44.47203" lon="4.80153">
        <ele>344.29</ele>
        <time>2015-01-04T10:16:53Z</time>
      </trkpt>
      <trkpt lat="44.472" lon="4.80152">
        <ele>343.33</ele>
        <time>2015-01-04T10:16:54Z</time>
      </trkpt>
      <trkpt lat="44.47167" lon="4.80139">
        <ele>342.37</ele>
        <time>2015-01-04T10:17:02Z</time>
      </trkpt>
      <trkpt lat="44.4714" lon="4.80125">
        <ele>341.41</ele>
        <time>2015-01-04T10:17:08Z</time>
      </trkpt>
      <trkpt lat="44.47136" lon="4.80122">
        <ele>341.41</ele>
        <time>2015-01-04T10:17:09Z</time>
      </trkpt>
      <trkpt lat="44.47092" lon="4.80102">
        <ele>341.41</ele>
        <time>2015-01-04T10:17:20Z</time>
      </trkpt>
      <trkpt lat="44.47039" lon="4.80073">
        <ele>340.92</ele>
        <time>2015-01-04T10:17:33Z</time>
      </trkpt>
      <trkpt lat="44.46999" lon="4.80055">
        <ele>340.44</ele>
        <time>2015-01-04T10:17:45Z</time>
      </trkpt>
      <trkpt lat="44.46976" lon="4.80045">
        <ele>339.48</ele>
        <time>2015-01-04T10:17:55Z</time>
      </trkpt>
      <trkpt lat="44.4695" lon="4.80027">
        <ele>337.56</ele>
        <time>2015-01-04T10:18:04Z</time>
      </trkpt>
      <trkpt lat="44.469" lon="4.7999">
        <ele>337.56</ele>
        <time>2015-01-04T10:18:17Z</time>
      </trkpt>
      <trkpt lat="44.46887" lon="4.79985">
        <ele>338.04</ele>
        <time>2015-01-04T10:18:20Z</time>
      </trkpt>
      <trkpt lat="44.46882" lon="4.79984">
        <ele>337.56</ele>
        <time>2015-01-04T10:18:21Z</time>
      </trkpt>
      <trkpt lat="44.46878" lon="4.79984">
        <ele>338.04</ele>
        <time>2015-01-04T10:18:22Z</time>
      </trkpt>
      <trkpt lat="44.46873" lon="4.79983">
        <ele>337.56</ele>
        <time>2015-01-04T10:18:23Z</time>
      </trkpt>
      <trkpt lat="44.46869" lon="4.79983">
        <ele>338.04</ele>
        <time>2015-01-04T10:18:24Z</time>
      </trkpt>
      <trkpt lat="44.46864" lon="4.79983">
        <ele>338.04</ele>
        <time>2015-01-04T10:18:25Z</time>
      </trkpt>
      <trkpt lat="44.46823" lon="4.79984">
        <ele>340.44</ele>
        <time>2015-01-04T10:18:36Z</time>
      </trkpt>
      <trkpt lat="44.46801" lon="4.79965">
        <ele>342.85</ele>
        <time>2015-01-04T10:18:45Z</time>
      </trkpt>
      <trkpt lat="44.46798" lon="4.79962">
        <ele>342.85</ele>
        <time>2015-01-04T10:18:46Z</time>
      </trkpt>
      <trkpt lat="44.46768" lon="4.79944">
        <ele>346.21</ele>
        <time>2015-01-04T10:18:57Z</time>
      </trkpt>
      <trkpt lat="44.46756" lon="4.79943">
        <ele>348.13</ele>
        <time>2015-01-04T10:19:01Z</time>
      </trkpt>
      <trkpt lat="44.46715" lon="4.79929">
        <ele>350.06</ele>
        <time>2015-01-04T10:19:15Z</time>
      </trkpt>
      <trkpt lat="44.46677" lon="4.79901">
        <ele>350.54</ele>
        <time>2015-01-04T10:19:29Z</time>
      </trkpt>
      <trkpt lat="44.46637" lon="4.79888">
        <ele>349.58</ele>
        <time>2015-01-04T10:19:39Z</time>
      </trkpt>
      <trkpt lat="44.46613" lon="4.79886">
        <ele>348.62</ele>
        <time>2015-01-04T10:19:44Z</time>
      </trkpt>
      <trkpt lat="44.46548" lon="4.79864">
        <ele>347.17</ele>
        <time>2015-01-04T10:19:58Z</time>
      </trkpt>
      <trkpt lat="44.46525" lon="4.79856">
        <ele>347.17</ele>
        <time>2015-01-04T10:20:03Z</time>
      </trkpt>
      <trkpt lat="44.46505" lon="4.79842">
        <ele>347.17</ele>
        <time>2015-01-04T10:20:10Z</time>
      </trkpt>
      <trkpt lat="44.46502" lon="4.79835">
        <ele>347.17</ele>
        <time>2015-01-04T10:20:20Z</time>
      </trkpt>
      <trkpt lat="44.465" lon="4.79831">
        <ele>347.65</ele>
        <time>2015-01-04T10:20:24Z</time>
      </trkpt>
      <trkpt lat="44.465" lon="4.79828">
        <ele>347.65</ele>
        <time>2015-01-04T10:20:26Z</time>
      </trkpt>
      <trkpt lat="44.46499" lon="4.79823">
        <ele>348.13</ele>
        <time>2015-01-04T10:20:29Z</time>
      </trkpt>
      <trkpt lat="44.46499" lon="4.79821">
        <ele>348.13</ele>
        <time>2015-01-04T10:20:30Z</time>
      </trkpt>
      <trkpt lat="44.46498" lon="4.79818">
        <ele>348.62</ele>
        <time>2015-01-04T10:20:31Z</time>
      </trkpt>
      <trkpt lat="44.46497" lon="4.79811">
        <ele>348.62</ele>
        <time>2015-01-04T10:20:34Z</time>
      </trkpt>
      <trkpt lat="44.46497" lon="4.79808">
        <ele>348.62</ele>
        <time>2015-01-04T10:20:35Z</time>
      </trkpt>
      <trkpt lat="44.46496" lon="4.79806">
        <ele>348.62</ele>
        <time>2015-01-04T10:20:36Z</time>
      </trkpt>
      <trkpt lat="44.46496" lon="4.79804">
        <ele>348.62</ele>
        <time>2015-01-04T10:20:37Z</time>
      </trkpt>
      <trkpt lat="44.46495" lon="4.79801">
        <ele>349.1</ele>
        <time>2015-01-04T10:20:38Z</time>
      </trkpt>
      <trkpt lat="44.46495" lon="4.79798">
        <ele>349.1</ele>
        <time>2015-01-04T10:20:39Z</time>
      </trkpt>
      <trkpt lat="44.46494" lon="4.79795">
        <ele>349.1</ele>
        <time>2015-01-04T10:20:40Z</time>
      </trkpt>
      <trkpt lat="44.46492" lon="4.79772">
        <ele>350.06</ele>
        <time>2015-01-04T10:20:48Z</time>
      </trkpt>
      <trkpt lat="44.46491" lon="4.79768">
        <ele>350.06</ele>
        <time>2015-01-04T10:20:50Z</time>
      </trkpt>
      <trkpt lat="44.46491" lon="4.79766">
        <ele>350.06</ele>
        <time>2015-01-04T10:20:51Z</time>
      </trkpt>
      <trkpt lat="44.46491" lon="4.79764">
        <ele>350.54</ele>
        <time>2015-01-04T10:20:52Z</time>
      </trkpt>
      <trkpt lat="44.4649" lon="4.79761">
        <ele>350.54</ele>
        <time>2015-01-04T10:20:53Z</time>
      </trkpt>
      <trkpt lat="44.4649" lon="4.79758">
        <ele>350.54</ele>
        <time>2015-01-04T10:20:54Z</time>
      </trkpt>
      <trkpt lat="44.46489" lon="4.79755">
        <ele>350.06</ele>
        <time>2015-01-04T10:20:55Z</time>
      </trkpt>
      <trkpt lat="44.46489" lon="4.79743">
        <ele>351.02</ele>
        <time>2015-01-04T10:20:59Z</time>
      </trkpt>
      <trkpt lat="44.46489" lon="4.7974">
        <ele>350.54</ele>
        <time>2015-01-04T10:21:00Z</time>
      </trkpt>
      <trkpt lat="44.46489" lon="4.79737">
        <ele>351.02</ele>
        <time>2015-01-04T10:21:01Z</time>
      </trkpt>
      <trkpt lat="44.46488" lon="4.79733">
        <ele>351.02</ele>
        <time>2015-01-04T10:21:02Z</time>
      </trkpt>
      <trkpt lat="44.46488" lon="4.79729">
        <ele>351.02</ele>
        <time>2015-01-04T10:21:03Z</time>
      </trkpt>
      <trkpt lat="44.46491" lon="4.79691">
        <ele>351.98</ele>
        <time>2015-01-04T10:21:14Z</time>
      </trkpt>
      <trkpt lat="44.46496" lon="4.7965">
        <ele>352.46</ele>
        <time>2015-01-04T10:21:25Z</time>
      </trkpt>
      <trkpt lat="44.46498" lon="4.79646">
        <ele>351.98</ele>
        <time>2015-01-04T10:21:26Z</time>
      </trkpt>
      <trkpt lat="44.46504" lon="4.79637">
        <ele>353.42</ele>
        <time>2015-01-04T10:21:29Z</time>
      </trkpt>
      <trkpt lat="44.46527" lon="4.79605">
        <ele>354.38</ele>
        <time>2015-01-04T10:21:41Z</time>
      </trkpt>
      <trkpt lat="44.4654" lon="4.79584">
        <ele>354.86</ele>
        <time>2015-01-04T10:21:48Z</time>
      </trkpt>
      <trkpt lat="44.46542" lon="4.79582">
        <ele>355.34</ele>
        <time>2015-01-04T10:21:49Z</time>
      </trkpt>
      <trkpt lat="44.46543" lon="4.79579">
        <ele>354.86</ele>
        <time>2015-01-04T10:21:50Z</time>
      </trkpt>
      <trkpt lat="44.46549" lon="4.79571">
        <ele>355.83</ele>
        <time>2015-01-04T10:21:53Z</time>
      </trkpt>
      <trkpt lat="44.46551" lon="4.79568">
        <ele>354.86</ele>
        <time>2015-01-04T10:21:54Z</time>
      </trkpt>
      <trkpt lat="44.46553" lon="4.79566">
        <ele>355.34</ele>
        <time>2015-01-04T10:21:55Z</time>
      </trkpt>
      <trkpt lat="44.46555" lon="4.79563">
        <ele>355.83</ele>
        <time>2015-01-04T10:21:56Z</time>
      </trkpt>
      <trkpt lat="44.46556" lon="4.79561">
        <ele>355.83</ele>
        <time>2015-01-04T10:21:57Z</time>
      </trkpt>
      <trkpt lat="44.46557" lon="4.79559">
        <ele>355.83</ele>
        <time>2015-01-04T10:21:58Z</time>
      </trkpt>
      <trkpt lat="44.46557" lon="4.79556">
        <ele>355.83</ele>
        <time>2015-01-04T10:21:59Z</time>
      </trkpt>
      <trkpt lat="44.46558" lon="4.79557">
        <ele>355.34</ele>
        <time>2015-01-04T10:22:10Z</time>
      </trkpt>
      <trkpt lat="44.46558" lon="4.79552">
        <ele>355.83</ele>
        <time>2015-01-04T10:22:21Z</time>
      </trkpt>
      <trkpt lat="44.46556" lon="4.79553">
        <ele>356.79</ele>
        <time>2015-01-04T10:22:37Z</time>
      </trkpt>
      <trkpt lat="44.46557" lon="4.79552">
        <ele>356.79</ele>
        <time>2015-01-04T10:23:08Z</time>
      </trkpt>
      <trkpt lat="44.46557" lon="4.79553">
        <ele>355.83</ele>
        <time>2015-01-04T10:23:36Z</time>
      </trkpt>
      <trkpt lat="44.46557" lon="4.79553">
        <ele>356.31</ele>
        <time>2015-01-04T10:24:09Z</time>
      </trkpt>
      <trkpt lat="44.46557" lon="4.79552">
        <ele>355.83</ele>
        <time>2015-01-04T10:24:46Z</time>
      </trkpt>
      <trkpt lat="44.46557" lon="4.79551">
        <ele>356.31</ele>
        <time>2015-01-04T10:25:21Z</time>
      </trkpt>
      <trkpt lat="44.46557" lon="4.79551">
        <ele>356.31</ele>
        <time>2015-01-04T10:25:56Z</time>
      </trkpt>
      <trkpt lat="44.46558" lon="4.79551">
        <ele>356.31</ele>
        <time>2015-01-04T10:26:31Z</time>
      </trkpt>
      <trkpt lat="44.4656" lon="4.7955">
        <ele>355.83</ele>
        <time>2015-01-04T10:27:00Z</time>
      </trkpt>
      <trkpt lat="44.46559" lon="4.7955">
        <ele>356.31</ele>
        <time>2015-01-04T10:27:25Z</time>
      </trkpt>
      <trkpt lat="44.46559" lon="4.79546">
        <ele>355.83</ele>
        <time>2015-01-04T10:27:47Z</time>
      </trkpt>
      <trkpt lat="44.46559" lon="4.79544">
        <ele>355.83</ele>
        <time>2015-01-04T10:27:48Z</time>
      </trkpt>
      <trkpt lat="44.4656" lon="4.79541">
        <ele>356.31</ele>
        <time>2015-01-04T10:27:49Z</time>
      </trkpt>
      <trkpt lat="44.4656" lon="4.79538">
        <ele>356.31</ele>
        <time>2015-01-04T10:27:50Z</time>
      </trkpt>
      <trkpt lat="44.46561" lon="4.79535">
        <ele>356.31</ele>
        <time>2015-01-04T10:27:51Z</time>
      </trkpt>
      <trkpt lat="44.46562" lon="4.79532">
        <ele>356.31</ele>
        <time>2015-01-04T10:27:52Z</time>
      </trkpt>
      <trkpt lat="44.46562" lon="4.79529">
        <ele>356.79</ele>
        <time>2015-01-04T10:27:53Z</time>
      </trkpt>
      <trkpt lat="44.46566" lon="4.79503">
        <ele>355.83</ele>
        <time>2015-01-04T10:28:00Z</time>
      </trkpt>
      <trkpt lat="44.46574" lon="4.79462">
        <ele>352.94</ele>
        <time>2015-01-04T10:28:06Z</time>
      </trkpt>
      <trkpt lat="44.46575" lon="4.79453">
        <ele>351.98</ele>
        <time>2015-01-04T10:28:07Z</time>
      </trkpt>
      <trkpt lat="44.46574" lon="4.79444">
        <ele>351.5</ele>
        <time>2015-01-04T10:28:08Z</time>
      </trkpt>
      <trkpt lat="44.4657" lon="4.79426">
        <ele>350.54</ele>
        <time>2015-01-04T10:28:10Z</time>
      </trkpt>
      <trkpt lat="44.46566" lon="4.79419">
        <ele>350.54</ele>
        <time>2015-01-04T10:28:11Z</time>
      </trkpt>
      <trkpt lat="44.46563" lon="4.79413">
        <ele>350.54</ele>
        <time>2015-01-04T10:28:12Z</time>
      </trkpt>
      <trkpt lat="44.46559" lon="4.79409">
        <ele>351.5</ele>
        <time>2015-01-04T10:28:13Z</time>
      </trkpt>
      <trkpt lat="44.46556" lon="4.79406">
        <ele>351.98</ele>
        <time>2015-01-04T10:28:14Z</time>
      </trkpt>
      <trkpt lat="44.46553" lon="4.79404">
        <ele>351.98</ele>
        <time>2015-01-04T10:28:15Z</time>
      </trkpt>
      <trkpt lat="44.4655" lon="4.79401">
        <ele>351.98</ele>
        <time>2015-01-04T10:28:16Z</time>
      </trkpt>
      <trkpt lat="44.46527" lon="4.7938">
        <ele>354.38</ele>
        <time>2015-01-04T10:28:26Z</time>
      </trkpt>
      <trkpt lat="44.46497" lon="4.79358">
        <ele>357.75</ele>
        <time>2015-01-04T10:28:38Z</time>
      </trkpt>
      <trkpt lat="44.46465" lon="4.79351">
        <ele>359.67</ele>
        <time>2015-01-04T10:28:50Z</time>
      </trkpt>
      <trkpt lat="44.4645" lon="4.79345">
        <ele>360.63</ele>
        <time>2015-01-04T10:28:56Z</time>
      </trkpt>
      <trkpt lat="44.46427" lon="4.79319">
        <ele>362.07</ele>
        <time>2015-01-04T10:29:08Z</time>
      </trkpt>
      <trkpt lat="44.46401" lon="4.79289">
        <ele>364.96</ele>
        <time>2015-01-04T10:29:21Z</time>
      </trkpt>
      <trkpt lat="44.46376" lon="4.79261">
        <ele>366.88</ele>
        <time>2015-01-04T10:29:34Z</time>
      </trkpt>
      <trkpt lat="44.4635" lon="4.79229">
        <ele>368.8</ele>
        <time>2015-01-04T10:29:49Z</time>
      </trkpt>
      <trkpt lat="44.46328" lon="4.79205">
        <ele>370.24</ele>
        <time>2015-01-04T10:30:01Z</time>
      </trkpt>
      <trkpt lat="44.46321" lon="4.79192">
        <ele>372.17</ele>
        <time>2015-01-04T10:30:06Z</time>
      </trkpt>
      <trkpt lat="44.4632" lon="4.7919">
        <ele>371.69</ele>
        <time>2015-01-04T10:30:07Z</time>
      </trkpt>
      <trkpt lat="44.46318" lon="4.79188">
        <ele>372.17</ele>
        <time>2015-01-04T10:30:08Z</time>
      </trkpt>
      <trkpt lat="44.463" lon="4.79163">
        <ele>374.57</ele>
        <time>2015-01-04T10:30:21Z</time>
      </trkpt>
      <trkpt lat="44.46275" lon="4.79133">
        <ele>376.01</ele>
        <time>2015-01-04T10:30:34Z</time>
      </trkpt>
      <trkpt lat="44.46254" lon="4.79097">
        <ele>376.49</ele>
        <time>2015-01-04T10:30:48Z</time>
      </trkpt>
      <trkpt lat="44.46249" lon="4.79063">
        <ele>377.45</ele>
        <time>2015-01-04T10:30:58Z</time>
      </trkpt>
      <trkpt lat="44.46249" lon="4.7906">
        <ele>377.45</ele>
        <time>2015-01-04T10:30:59Z</time>
      </trkpt>
      <trkpt lat="44.46249" lon="4.79057">
        <ele>378.42</ele>
        <time>2015-01-04T10:31:00Z</time>
      </trkpt>
      <trkpt lat="44.46247" lon="4.79055">
        <ele>378.42</ele>
        <time>2015-01-04T10:31:01Z</time>
      </trkpt>
      <trkpt lat="44.46246" lon="4.79052">
        <ele>377.94</ele>
        <time>2015-01-04T10:31:02Z</time>
      </trkpt>
      <trkpt lat="44.46246" lon="4.7905">
        <ele>377.94</ele>
        <time>2015-01-04T10:31:03Z</time>
      </trkpt>
      <trkpt lat="44.46245" lon="4.79047">
        <ele>378.42</ele>
        <time>2015-01-04T10:31:04Z</time>
      </trkpt>
      <trkpt lat="44.46236" lon="4.79014">
        <ele>376.49</ele>
        <time>2015-01-04T10:31:13Z</time>
      </trkpt>
      <trkpt lat="44.46235" lon="4.79008">
        <ele>376.01</ele>
        <time>2015-01-04T10:31:14Z</time>
      </trkpt>
      <trkpt lat="44.46232" lon="4.79003">
        <ele>376.01</ele>
        <time>2015-01-04T10:31:15Z</time>
      </trkpt>
      <trkpt lat="44.46231" lon="4.78998">
        <ele>376.01</ele>
        <time>2015-01-04T10:31:16Z</time>
      </trkpt>
      <trkpt lat="44.46229" lon="4.78994">
        <ele>377.45</ele>
        <time>2015-01-04T10:31:17Z</time>
      </trkpt>
      <trkpt lat="44.46229" lon="4.7899">
        <ele>376.97</ele>
        <time>2015-01-04T10:31:18Z</time>
      </trkpt>
      <trkpt lat="44.46227" lon="4.78977">
        <ele>379.86</ele>
        <time>2015-01-04T10:31:22Z</time>
      </trkpt>
      <trkpt lat="44.46227" lon="4.78974">
        <ele>380.82</ele>
        <time>2015-01-04T10:31:23Z</time>
      </trkpt>
      <trkpt lat="44.46227" lon="4.7897">
        <ele>380.34</ele>
        <time>2015-01-04T10:31:24Z</time>
      </trkpt>
      <trkpt lat="44.46221" lon="4.78928">
        <ele>380.34</ele>
        <time>2015-01-04T10:31:36Z</time>
      </trkpt>
      <trkpt lat="44.46215" lon="4.78891">
        <ele>380.82</ele>
        <time>2015-01-04T10:31:46Z</time>
      </trkpt>
      <trkpt lat="44.46215" lon="4.78888">
        <ele>380.82</ele>
        <time>2015-01-04T10:31:47Z</time>
      </trkpt>
      <trkpt lat="44.46215" lon="4.78884">
        <ele>381.3</ele>
        <time>2015-01-04T10:31:48Z</time>
      </trkpt>
      <trkpt lat="44.46213" lon="4.78875">
        <ele>382.26</ele>
        <time>2015-01-04T10:31:51Z</time>
      </trkpt>
      <trkpt lat="44.46212" lon="4.78872">
        <ele>382.26</ele>
        <time>2015-01-04T10:31:52Z</time>
      </trkpt>
      <trkpt lat="44.46211" lon="4.78869">
        <ele>382.74</ele>
        <time>2015-01-04T10:31:53Z</time>
      </trkpt>
      <trkpt lat="44.46211" lon="4.78867">
        <ele>382.74</ele>
        <time>2015-01-04T10:31:54Z</time>
      </trkpt>
      <trkpt lat="44.46211" lon="4.78864">
        <ele>383.22</ele>
        <time>2015-01-04T10:31:55Z</time>
      </trkpt>
      <trkpt lat="44.46207" lon="4.7883">
        <ele>384.66</ele>
        <time>2015-01-04T10:32:06Z</time>
      </trkpt>
      <trkpt lat="44.4621" lon="4.78797">
        <ele>386.59</ele>
        <time>2015-01-04T10:32:18Z</time>
      </trkpt>
      <trkpt lat="44.46211" lon="4.78793">
        <ele>386.59</ele>
        <time>2015-01-04T10:32:32Z</time>
      </trkpt>
      <trkpt lat="44.46211" lon="4.78792">
        <ele>385.15</ele>
        <time>2015-01-04T10:32:46Z</time>
      </trkpt>
      <trkpt lat="44.46208" lon="4.78795">
        <ele>386.59</ele>
        <time>2015-01-04T10:32:53Z</time>
      </trkpt>
      <trkpt lat="44.46208" lon="4.78798">
        <ele>387.55</ele>
        <time>2015-01-04T10:33:08Z</time>
      </trkpt>
      <trkpt lat="44.46209" lon="4.78799">
        <ele>386.59</ele>
        <time>2015-01-04T10:33:24Z</time>
      </trkpt>
      <trkpt lat="44.46209" lon="4.78798">
        <ele>387.07</ele>
        <time>2015-01-04T10:33:41Z</time>
      </trkpt>
      <trkpt lat="44.46209" lon="4.78798">
        <ele>386.11</ele>
        <time>2015-01-04T10:33:57Z</time>
      </trkpt>
      <trkpt lat="44.4621" lon="4.78796">
        <ele>387.07</ele>
        <time>2015-01-04T10:33:58Z</time>
      </trkpt>
      <trkpt lat="44.46211" lon="4.78793">
        <ele>386.59</ele>
        <time>2015-01-04T10:33:59Z</time>
      </trkpt>
      <trkpt lat="44.46212" lon="4.78789">
        <ele>386.59</ele>
        <time>2015-01-04T10:34:00Z</time>
      </trkpt>
      <trkpt lat="44.46213" lon="4.78785">
        <ele>385.63</ele>
        <time>2015-01-04T10:34:01Z</time>
      </trkpt>
      <trkpt lat="44.46219" lon="4.78765">
        <ele>382.26</ele>
        <time>2015-01-04T10:34:04Z</time>
      </trkpt>
      <trkpt lat="44.46226" lon="4.78741">
        <ele>379.86</ele>
        <time>2015-01-04T10:34:07Z</time>
      </trkpt>
      <trkpt lat="44.46228" lon="4.78735">
        <ele>377.94</ele>
        <time>2015-01-04T10:34:08Z</time>
      </trkpt>
      <trkpt lat="44.4623" lon="4.78729">
        <ele>378.42</ele>
        <time>2015-01-04T10:34:09Z</time>
      </trkpt>
      <trkpt lat="44.46232" lon="4.78723">
        <ele>377.45</ele>
        <time>2015-01-04T10:34:10Z</time>
      </trkpt>
      <trkpt lat="44.46232" lon="4.78719">
        <ele>376.49</ele>
        <time>2015-01-04T10:34:11Z</time>
      </trkpt>
      <trkpt lat="44.4623" lon="4.78714">
        <ele>376.01</ele>
        <time>2015-01-04T10:34:12Z</time>
      </trkpt>
      <trkpt lat="44.46226" lon="4.7871">
        <ele>375.53</ele>
        <time>2015-01-04T10:34:13Z</time>
      </trkpt>
      <trkpt lat="44.46221" lon="4.78707">
        <ele>374.09</ele>
        <time>2015-01-04T10:34:14Z</time>
      </trkpt>
      <trkpt lat="44.46216" lon="4.78706">
        <ele>372.65</ele>
        <time>2015-01-04T10:34:15Z</time>
      </trkpt>
      <trkpt lat="44.46211" lon="4.78705">
        <ele>371.21</ele>
        <time>2015-01-04T10:34:16Z</time>
      </trkpt>
      <trkpt lat="44.46206" lon="4.78705">
        <ele>370.73</ele>
        <time>2015-01-04T10:34:17Z</time>
      </trkpt>
      <trkpt lat="44.46203" lon="4.78703">
        <ele>370.24</ele>
        <time>2015-01-04T10:34:18Z</time>
      </trkpt>
      <trkpt lat="44.46203" lon="4.78698">
        <ele>369.28</ele>
        <time>2015-01-04T10:34:19Z</time>
      </trkpt>
      <trkpt lat="44.46205" lon="4.78694">
        <ele>369.76</ele>
        <time>2015-01-04T10:34:20Z</time>
      </trkpt>
      <trkpt lat="44.46209" lon="4.7869">
        <ele>368.32</ele>
        <time>2015-01-04T10:34:21Z</time>
      </trkpt>
      <trkpt lat="44.46212" lon="4.78685">
        <ele>367.84</ele>
        <time>2015-01-04T10:34:22Z</time>
      </trkpt>
      <trkpt lat="44.4622" lon="4.78676">
        <ele>366.88</ele>
        <time>2015-01-04T10:34:24Z</time>
      </trkpt>
      <trkpt lat="44.46224" lon="4.78669">
        <ele>366.4</ele>
        <time>2015-01-04T10:34:25Z</time>
      </trkpt>
      <trkpt lat="44.46232" lon="4.78654">
        <ele>364</ele>
        <time>2015-01-04T10:34:27Z</time>
      </trkpt>
      <trkpt lat="44.46237" lon="4.78647">
        <ele>363.04</ele>
        <time>2015-01-04T10:34:28Z</time>
      </trkpt>
      <trkpt lat="44.46243" lon="4.78642">
        <ele>361.59</ele>
        <time>2015-01-04T10:34:29Z</time>
      </trkpt>
      <trkpt lat="44.46248" lon="4.78638">
        <ele>361.11</ele>
        <time>2015-01-04T10:34:30Z</time>
      </trkpt>
      <trkpt lat="44.46253" lon="4.78632">
        <ele>361.11</ele>
        <time>2015-01-04T10:34:31Z</time>
      </trkpt>
      <trkpt lat="44.46256" lon="4.78624">
        <ele>360.63</ele>
        <time>2015-01-04T10:34:32Z</time>
      </trkpt>
      <trkpt lat="44.46258" lon="4.78617">
        <ele>359.67</ele>
        <time>2015-01-04T10:34:33Z</time>
      </trkpt>
      <trkpt lat="44.46261" lon="4.78613">
        <ele>359.19</ele>
        <time>2015-01-04T10:34:34Z</time>
      </trkpt>
      <trkpt lat="44.46265" lon="4.7861">
        <ele>357.75</ele>
        <time>2015-01-04T10:34:35Z</time>
      </trkpt>
      <trkpt lat="44.4627" lon="4.78607">
        <ele>356.79</ele>
        <time>2015-01-04T10:34:36Z</time>
      </trkpt>
      <trkpt lat="44.46275" lon="4.78606">
        <ele>355.83</ele>
        <time>2015-01-04T10:34:37Z</time>
      </trkpt>
      <trkpt lat="44.46281" lon="4.78607">
        <ele>354.86</ele>
        <time>2015-01-04T10:34:38Z</time>
      </trkpt>
      <trkpt lat="44.46288" lon="4.78609">
        <ele>353.42</ele>
        <time>2015-01-04T10:34:39Z</time>
      </trkpt>
      <trkpt lat="44.46309" lon="4.78618">
        <ele>350.54</ele>
        <time>2015-01-04T10:34:42Z</time>
      </trkpt>
      <trkpt lat="44.46316" lon="4.78622">
        <ele>349.1</ele>
        <time>2015-01-04T10:34:43Z</time>
      </trkpt>
      <trkpt lat="44.46323" lon="4.78626">
        <ele>348.13</ele>
        <time>2015-01-04T10:34:44Z</time>
      </trkpt>
      <trkpt lat="44.4636" lon="4.78649">
        <ele>345.25</ele>
        <time>2015-01-04T10:34:49Z</time>
      </trkpt>
      <trkpt lat="44.46374" lon="4.7866">
        <ele>343.81</ele>
        <time>2015-01-04T10:34:51Z</time>
      </trkpt>
      <trkpt lat="44.46399" lon="4.78681">
        <ele>344.77</ele>
        <time>2015-01-04T10:34:56Z</time>
      </trkpt>
      <trkpt lat="44.46403" lon="4.78685">
        <ele>344.29</ele>
        <time>2015-01-04T10:34:57Z</time>
      </trkpt>
      <trkpt lat="44.46406" lon="4.7869">
        <ele>343.81</ele>
        <time>2015-01-04T10:34:58Z</time>
      </trkpt>
      <trkpt lat="44.46408" lon="4.78696">
        <ele>344.29</ele>
        <time>2015-01-04T10:34:59Z</time>
      </trkpt>
      <trkpt lat="44.46409" lon="4.78702">
        <ele>344.29</ele>
        <time>2015-01-04T10:35:00Z</time>
      </trkpt>
      <trkpt lat="44.4641" lon="4.78709">
        <ele>343.81</ele>
        <time>2015-01-04T10:35:01Z</time>
      </trkpt>
      <trkpt lat="44.46409" lon="4.78715">
        <ele>343.81</ele>
        <time>2015-01-04T10:35:02Z</time>
      </trkpt>
      <trkpt lat="44.46409" lon="4.78721">
        <ele>344.29</ele>
        <time>2015-01-04T10:35:03Z</time>
      </trkpt>
      <trkpt lat="44.46408" lon="4.78726">
        <ele>344.29</ele>
        <time>2015-01-04T10:35:04Z</time>
      </trkpt>
      <trkpt lat="44.46408" lon="4.78732">
        <ele>343.33</ele>
        <time>2015-01-04T10:35:05Z</time>
      </trkpt>
      <trkpt lat="44.46408" lon="4.78737">
        <ele>343.33</ele>
        <time>2015-01-04T10:35:06Z</time>
      </trkpt>
      <trkpt lat="44.46409" lon="4.78743">
        <ele>343.33</ele>
        <time>2015-01-04T10:35:07Z</time>
      </trkpt>
      <trkpt lat="44.46409" lon="4.78749">
        <ele>342.85</ele>
        <time>2015-01-04T10:35:08Z</time>
      </trkpt>
      <trkpt lat="44.46409" lon="4.78755">
        <ele>342.85</ele>
        <time>2015-01-04T10:35:09Z</time>
      </trkpt>
      <trkpt lat="44.46409" lon="4.78761">
        <ele>342.85</ele>
        <time>2015-01-04T10:35:10Z</time>
      </trkpt>
      <trkpt lat="44.46408" lon="4.78767">
        <ele>342.37</ele>
        <time>2015-01-04T10:35:11Z</time>
      </trkpt>
      <trkpt lat="44.46402" lon="4.78795">
        <ele>340.92</ele>
        <time>2015-01-04T10:35:16Z</time>
      </trkpt>
      <trkpt lat="44.46397" lon="4.78806">
        <ele>339.96</ele>
        <time>2015-01-04T10:35:18Z</time>
      </trkpt>
      <trkpt lat="44.46395" lon="4.78811">
        <ele>339.96</ele>
        <time>2015-01-04T10:35:19Z</time>
      </trkpt>
      <trkpt lat="44.46392" lon="4.78814">
        <ele>339.48</ele>
        <time>2015-01-04T10:35:20Z</time>
      </trkpt>
      <trkpt lat="44.46389" lon="4.78817">
        <ele>339.96</ele>
        <time>2015-01-04T10:35:21Z</time>
      </trkpt>
      <trkpt lat="44.46388" lon="4.78819">
        <ele>340.44</ele>
        <time>2015-01-04T10:35:22Z</time>
      </trkpt>
      <trkpt lat="44.46388" lon="4.7882">
        <ele>339.96</ele>
        <time>2015-01-04T10:35:23Z</time>
      </trkpt>
      <trkpt lat="44.46387" lon="4.78822">
        <ele>339.96</ele>
        <time>2015-01-04T10:35:24Z</time>
      </trkpt>
      <trkpt lat="44.46389" lon="4.78824">
        <ele>339.48</ele>
        <time>2015-01-04T10:35:34Z</time>
      </trkpt>
      <trkpt lat="44.4639" lon="4.78826">
        <ele>339</ele>
        <time>2015-01-04T10:35:36Z</time>
      </trkpt>
      <trkpt lat="44.4639" lon="4.78828">
        <ele>339.48</ele>
        <time>2015-01-04T10:35:37Z</time>
      </trkpt>
      <trkpt lat="44.46389" lon="4.78845">
        <ele>335.64</ele>
        <time>2015-01-04T10:35:42Z</time>
      </trkpt>
      <trkpt lat="44.46388" lon="4.7885">
        <ele>335.16</ele>
        <time>2015-01-04T10:35:43Z</time>
      </trkpt>
      <trkpt lat="44.46386" lon="4.78875">
        <ele>335.64</ele>
        <time>2015-01-04T10:35:48Z</time>
      </trkpt>
      <trkpt lat="44.46386" lon="4.7888">
        <ele>334.68</ele>
        <time>2015-01-04T10:35:49Z</time>
      </trkpt>
      <trkpt lat="44.46386" lon="4.78886">
        <ele>334.2</ele>
        <time>2015-01-04T10:35:50Z</time>
      </trkpt>
      <trkpt lat="44.46387" lon="4.78892">
        <ele>333.71</ele>
        <time>2015-01-04T10:35:51Z</time>
      </trkpt>
      <trkpt lat="44.46387" lon="4.78897">
        <ele>333.23</ele>
        <time>2015-01-04T10:35:52Z</time>
      </trkpt>
      <trkpt lat="44.46388" lon="4.78903">
        <ele>333.71</ele>
        <time>2015-01-04T10:35:53Z</time>
      </trkpt>
      <trkpt lat="44.46389" lon="4.78909">
        <ele>333.23</ele>
        <time>2015-01-04T10:35:54Z</time>
      </trkpt>
      <trkpt lat="44.46391" lon="4.78926">
        <ele>331.79</ele>
        <time>2015-01-04T10:35:57Z</time>
      </trkpt>
      <trkpt lat="44.46399" lon="4.78968">
        <ele>330.83</ele>
        <time>2015-01-04T10:36:05Z</time>
      </trkpt>
      <trkpt lat="44.46401" lon="4.78972">
        <ele>331.31</ele>
        <time>2015-01-04T10:36:06Z</time>
      </trkpt>
      <trkpt lat="44.46402" lon="4.78975">
        <ele>330.35</ele>
        <time>2015-01-04T10:36:07Z</time>
      </trkpt>
      <trkpt lat="44.46404" lon="4.7898">
        <ele>330.35</ele>
        <time>2015-01-04T10:36:08Z</time>
      </trkpt>
      <trkpt lat="44.46406" lon="4.78986">
        <ele>329.87</ele>
        <time>2015-01-04T10:36:09Z</time>
      </trkpt>
      <trkpt lat="44.46408" lon="4.79">
        <ele>330.35</ele>
        <time>2015-01-04T10:36:11Z</time>
      </trkpt>
      <trkpt lat="44.46409" lon="4.79008">
        <ele>330.35</ele>
        <time>2015-01-04T10:36:12Z</time>
      </trkpt>
      <trkpt lat="44.4641" lon="4.79015">
        <ele>329.87</ele>
        <time>2015-01-04T10:36:13Z</time>
      </trkpt>
      <trkpt lat="44.46412" lon="4.79022">
        <ele>329.39</ele>
        <time>2015-01-04T10:36:14Z</time>
      </trkpt>
      <trkpt lat="44.46415" lon="4.79029">
        <ele>328.91</ele>
        <time>2015-01-04T10:36:15Z</time>
      </trkpt>
      <trkpt lat="44.46418" lon="4.79036">
        <ele>328.43</ele>
        <time>2015-01-04T10:36:16Z</time>
      </trkpt>
      <trkpt lat="44.46421" lon="4.79044">
        <ele>327.95</ele>
        <time>2015-01-04T10:36:17Z</time>
      </trkpt>
      <trkpt lat="44.46424" lon="4.79052">
        <ele>327.95</ele>
        <time>2015-01-04T10:36:18Z</time>
      </trkpt>
      <trkpt lat="44.46432" lon="4.79072">
        <ele>327.47</ele>
        <time>2015-01-04T10:36:21Z</time>
      </trkpt>
      <trkpt lat="44.46434" lon="4.79079">
        <ele>327.95</ele>
        <time>2015-01-04T10:36:22Z</time>
      </trkpt>
      <trkpt lat="44.46434" lon="4.79084">
        <ele>328.91</ele>
        <time>2015-01-04T10:36:23Z</time>
      </trkpt>
      <trkpt lat="44.46435" lon="4.7909">
        <ele>329.39</ele>
        <time>2015-01-04T10:36:24Z</time>
      </trkpt>
      <trkpt lat="44.46437" lon="4.79095">
        <ele>330.35</ele>
        <time>2015-01-04T10:36:25Z</time>
      </trkpt>
      <trkpt lat="44.46439" lon="4.79099">
        <ele>330.35</ele>
        <time>2015-01-04T10:36:26Z</time>
      </trkpt>
      <trkpt lat="44.4644" lon="4.79103">
        <ele>330.83</ele>
        <time>2015-01-04T10:36:27Z</time>
      </trkpt>
      <trkpt lat="44.46442" lon="4.79107">
        <ele>330.35</ele>
        <time>2015-01-04T10:36:28Z</time>
      </trkpt>
      <trkpt lat="44.46443" lon="4.7911">
        <ele>330.35</ele>
        <time>2015-01-04T10:36:29Z</time>
      </trkpt>
      <trkpt lat="44.46448" lon="4.79119">
        <ele>329.87</ele>
        <time>2015-01-04T10:36:40Z</time>
      </trkpt>
      <trkpt lat="44.46449" lon="4.79118">
        <ele>328.91</ele>
        <time>2015-01-04T10:36:52Z</time>
      </trkpt>
      <trkpt lat="44.46449" lon="4.79117">
        <ele>327.95</ele>
        <time>2015-01-04T10:36:54Z</time>
      </trkpt>
      <trkpt lat="44.46451" lon="4.79117">
        <ele>327.47</ele>
        <time>2015-01-04T10:36:55Z</time>
      </trkpt>
      <trkpt lat="44.46452" lon="4.79117">
        <ele>326.99</ele>
        <time>2015-01-04T10:36:56Z</time>
      </trkpt>
      <trkpt lat="44.46454" lon="4.79118">
        <ele>326.5</ele>
        <time>2015-01-04T10:36:57Z</time>
      </trkpt>
      <trkpt lat="44.46456" lon="4.79119">
        <ele>326.5</ele>
        <time>2015-01-04T10:36:58Z</time>
      </trkpt>
      <trkpt lat="44.46458" lon="4.79119">
        <ele>326.5</ele>
        <time>2015-01-04T10:37:00Z</time>
      </trkpt>
      <trkpt lat="44.46462" lon="4.79116">
        <ele>324.58</ele>
        <time>2015-01-04T10:37:02Z</time>
      </trkpt>
      <trkpt lat="44.46476" lon="4.79125">
        <ele>321.22</ele>
        <time>2015-01-04T10:37:07Z</time>
      </trkpt>
      <trkpt lat="44.46479" lon="4.79129">
        <ele>320.74</ele>
        <time>2015-01-04T10:37:08Z</time>
      </trkpt>
      <trkpt lat="44.46482" lon="4.79133">
        <ele>320.26</ele>
        <time>2015-01-04T10:37:09Z</time>
      </trkpt>
      <trkpt lat="44.46485" lon="4.79137">
        <ele>320.74</ele>
        <time>2015-01-04T10:37:10Z</time>
      </trkpt>
      <trkpt lat="44.46488" lon="4.79139">
        <ele>320.26</ele>
        <time>2015-01-04T10:37:11Z</time>
      </trkpt>
      <trkpt lat="44.4649" lon="4.79142">
        <ele>320.26</ele>
        <time>2015-01-04T10:37:12Z</time>
      </trkpt>
      <trkpt lat="44.46492" lon="4.79144">
        <ele>321.22</ele>
        <time>2015-01-04T10:37:13Z</time>
      </trkpt>
      <trkpt lat="44.46493" lon="4.79147">
        <ele>321.22</ele>
        <time>2015-01-04T10:37:14Z</time>
      </trkpt>
      <trkpt lat="44.46494" lon="4.7915">
        <ele>321.22</ele>
        <time>2015-01-04T10:37:15Z</time>
      </trkpt>
      <trkpt lat="44.46499" lon="4.79162">
        <ele>322.18</ele>
        <time>2015-01-04T10:37:19Z</time>
      </trkpt>
      <trkpt lat="44.46504" lon="4.79183">
        <ele>323.14</ele>
        <time>2015-01-04T10:37:26Z</time>
      </trkpt>
      <trkpt lat="44.46526" lon="4.79195">
        <ele>320.74</ele>
        <time>2015-01-04T10:37:36Z</time>
      </trkpt>
      <trkpt lat="44.46534" lon="4.792">
        <ele>321.22</ele>
        <time>2015-01-04T10:37:38Z</time>
      </trkpt>
      <trkpt lat="44.46568" lon="4.79219">
        <ele>321.22</ele>
        <time>2015-01-04T10:37:48Z</time>
      </trkpt>
      <trkpt lat="44.46589" lon="4.79239">
        <ele>323.14</ele>
        <time>2015-01-04T10:37:57Z</time>
      </trkpt>
      <trkpt lat="44.46591" lon="4.7924">
        <ele>323.62</ele>
        <time>2015-01-04T10:37:58Z</time>
      </trkpt>
      <trkpt lat="44.46598" lon="4.79244">
        <ele>322.18</ele>
        <time>2015-01-04T10:38:02Z</time>
      </trkpt>
      <trkpt lat="44.46602" lon="4.79243">
        <ele>321.7</ele>
        <time>2015-01-04T10:38:04Z</time>
      </trkpt>
      <trkpt lat="44.46623" lon="4.79238">
        <ele>317.85</ele>
        <time>2015-01-04T10:38:12Z</time>
      </trkpt>
      <trkpt lat="44.4663" lon="4.79241">
        <ele>316.89</ele>
        <time>2015-01-04T10:38:14Z</time>
      </trkpt>
      <trkpt lat="44.46632" lon="4.79239">
        <ele>316.41</ele>
        <time>2015-01-04T10:38:15Z</time>
      </trkpt>
      <trkpt lat="44.46628" lon="4.79221">
        <ele>313.53</ele>
        <time>2015-01-04T10:38:21Z</time>
      </trkpt>
      <trkpt lat="44.46624" lon="4.79216">
        <ele>312.57</ele>
        <time>2015-01-04T10:38:23Z</time>
      </trkpt>
      <trkpt lat="44.46621" lon="4.79213">
        <ele>312.57</ele>
        <time>2015-01-04T10:38:34Z</time>
      </trkpt>
      <trkpt lat="44.46622" lon="4.79214">
        <ele>311.6</ele>
        <time>2015-01-04T10:38:59Z</time>
      </trkpt>
      <trkpt lat="44.46622" lon="4.79214">
        <ele>312.09</ele>
        <time>2015-01-04T10:39:25Z</time>
      </trkpt>
      <trkpt lat="44.46621" lon="4.79214">
        <ele>311.6</ele>
        <time>2015-01-04T10:39:32Z</time>
      </trkpt>
      <trkpt lat="44.46612" lon="4.79211">
        <ele>311.12</ele>
        <time>2015-01-04T10:39:37Z</time>
      </trkpt>
      <trkpt lat="44.46577" lon="4.79181">
        <ele>311.12</ele>
        <time>2015-01-04T10:39:48Z</time>
      </trkpt>
      <trkpt lat="44.46557" lon="4.79139">
        <ele>310.16</ele>
        <time>2015-01-04T10:39:55Z</time>
      </trkpt>
      <trkpt lat="44.46555" lon="4.79133">
        <ele>309.2</ele>
        <time>2015-01-04T10:39:56Z</time>
      </trkpt>
      <trkpt lat="44.46552" lon="4.79127">
        <ele>309.2</ele>
        <time>2015-01-04T10:39:57Z</time>
      </trkpt>
      <trkpt lat="44.46544" lon="4.79111">
        <ele>308.72</ele>
        <time>2015-01-04T10:40:00Z</time>
      </trkpt>
      <trkpt lat="44.46538" lon="4.79092">
        <ele>309.2</ele>
        <time>2015-01-04T10:40:04Z</time>
      </trkpt>
      <trkpt lat="44.46548" lon="4.79078">
        <ele>305.84</ele>
        <time>2015-01-04T10:40:09Z</time>
      </trkpt>
      <trkpt lat="44.4655" lon="4.79072">
        <ele>304.88</ele>
        <time>2015-01-04T10:40:10Z</time>
      </trkpt>
      <trkpt lat="44.46552" lon="4.79066">
        <ele>304.39</ele>
        <time>2015-01-04T10:40:11Z</time>
      </trkpt>
      <trkpt lat="44.46553" lon="4.79059">
        <ele>304.39</ele>
        <time>2015-01-04T10:40:12Z</time>
      </trkpt>
      <trkpt lat="44.46557" lon="4.79049">
        <ele>302.95</ele>
        <time>2015-01-04T10:40:15Z</time>
      </trkpt>
      <trkpt lat="44.46558" lon="4.79038">
        <ele>301.03</ele>
        <time>2015-01-04T10:40:18Z</time>
      </trkpt>
      <trkpt lat="44.46544" lon="4.7901">
        <ele>301.51</ele>
        <time>2015-01-04T10:40:26Z</time>
      </trkpt>
      <trkpt lat="44.46543" lon="4.78995">
        <ele>300.55</ele>
        <time>2015-01-04T10:40:30Z</time>
      </trkpt>
      <trkpt lat="44.4655" lon="4.78983">
        <ele>298.63</ele>
        <time>2015-01-04T10:40:36Z</time>
      </trkpt>
      <trkpt lat="44.4656" lon="4.78976">
        <ele>296.7</ele>
        <time>2015-01-04T10:40:41Z</time>
      </trkpt>
      <trkpt lat="44.46573" lon="4.78975">
        <ele>294.78</ele>
        <time>2015-01-04T10:40:46Z</time>
      </trkpt>
      <trkpt lat="44.46576" lon="4.78976">
        <ele>293.82</ele>
        <time>2015-01-04T10:40:47Z</time>
      </trkpt>
      <trkpt lat="44.46592" lon="4.78969">
        <ele>291.9</ele>
        <time>2015-01-04T10:40:54Z</time>
      </trkpt>
      <trkpt lat="44.466" lon="4.78965">
        <ele>290.94</ele>
        <time>2015-01-04T10:40:56Z</time>
      </trkpt>
      <trkpt lat="44.46616" lon="4.78955">
        <ele>289.49</ele>
        <time>2015-01-04T10:41:00Z</time>
      </trkpt>
      <trkpt lat="44.4664" lon="4.78951">
        <ele>286.13</ele>
        <time>2015-01-04T10:41:05Z</time>
      </trkpt>
      <trkpt lat="44.46657" lon="4.78943">
        <ele>282.77</ele>
        <time>2015-01-04T10:41:09Z</time>
      </trkpt>
      <trkpt lat="44.46659" lon="4.7894">
        <ele>282.28</ele>
        <time>2015-01-04T10:41:10Z</time>
      </trkpt>
      <trkpt lat="44.46664" lon="4.78936">
        <ele>280.84</ele>
        <time>2015-01-04T10:41:12Z</time>
      </trkpt>
      <trkpt lat="44.46678" lon="4.78927">
        <ele>278.92</ele>
        <time>2015-01-04T10:41:16Z</time>
      </trkpt>
      <trkpt lat="44.46694" lon="4.78914">
        <ele>277</ele>
        <time>2015-01-04T10:41:21Z</time>
      </trkpt>
      <trkpt lat="44.46699" lon="4.78912">
        <ele>276.52</ele>
        <time>2015-01-04T10:41:23Z</time>
      </trkpt>
      <trkpt lat="44.46706" lon="4.78913">
        <ele>274.59</ele>
        <time>2015-01-04T10:41:26Z</time>
      </trkpt>
      <trkpt lat="44.46716" lon="4.78907">
        <ele>274.11</ele>
        <time>2015-01-04T10:41:30Z</time>
      </trkpt>
      <trkpt lat="44.46738" lon="4.78908">
        <ele>271.23</ele>
        <time>2015-01-04T10:41:38Z</time>
      </trkpt>
      <trkpt lat="44.46745" lon="4.78905">
        <ele>269.79</ele>
        <time>2015-01-04T10:41:40Z</time>
      </trkpt>
      <trkpt lat="44.46761" lon="4.78904">
        <ele>268.35</ele>
        <time>2015-01-04T10:41:45Z</time>
      </trkpt>
      <trkpt lat="44.46786" lon="4.78901">
        <ele>265.46</ele>
        <time>2015-01-04T10:41:55Z</time>
      </trkpt>
      <trkpt lat="44.46795" lon="4.78903">
        <ele>264.98</ele>
        <time>2015-01-04T10:42:00Z</time>
      </trkpt>
      <trkpt lat="44.46819" lon="4.78896">
        <ele>261.62</ele>
        <time>2015-01-04T10:42:09Z</time>
      </trkpt>
      <trkpt lat="44.46834" lon="4.78883">
        <ele>260.17</ele>
        <time>2015-01-04T10:42:14Z</time>
      </trkpt>
      <trkpt lat="44.46842" lon="4.7888">
        <ele>259.21</ele>
        <time>2015-01-04T10:42:16Z</time>
      </trkpt>
      <trkpt lat="44.46849" lon="4.78875">
        <ele>257.29</ele>
        <time>2015-01-04T10:42:18Z</time>
      </trkpt>
      <trkpt lat="44.46859" lon="4.78859">
        <ele>256.33</ele>
        <time>2015-01-04T10:42:23Z</time>
      </trkpt>
      <trkpt lat="44.4687" lon="4.78845">
        <ele>253.44</ele>
        <time>2015-01-04T10:42:27Z</time>
      </trkpt>
      <trkpt lat="44.46875" lon="4.78828">
        <ele>252.48</ele>
        <time>2015-01-04T10:42:32Z</time>
      </trkpt>
      <trkpt lat="44.46879" lon="4.78818">
        <ele>250.08</ele>
        <time>2015-01-04T10:42:36Z</time>
      </trkpt>
      <trkpt lat="44.46876" lon="4.78812">
        <ele>248.64</ele>
        <time>2015-01-04T10:42:39Z</time>
      </trkpt>
      <trkpt lat="44.46868" lon="4.78808">
        <ele>249.12</ele>
        <time>2015-01-04T10:42:43Z</time>
      </trkpt>
      <trkpt lat="44.46862" lon="4.78802">
        <ele>247.68</ele>
        <time>2015-01-04T10:42:46Z</time>
      </trkpt>
      <trkpt lat="44.46854" lon="4.788">
        <ele>246.72</ele>
        <time>2015-01-04T10:42:50Z</time>
      </trkpt>
      <trkpt lat="44.46855" lon="4.78793">
        <ele>244.79</ele>
        <time>2015-01-04T10:42:54Z</time>
      </trkpt>
      <trkpt lat="44.46872" lon="4.78789">
        <ele>243.35</ele>
        <time>2015-01-04T10:43:00Z</time>
      </trkpt>
      <trkpt lat="44.4688" lon="4.78785">
        <ele>241.91</ele>
        <time>2015-01-04T10:43:03Z</time>
      </trkpt>
      <trkpt lat="44.46883" lon="4.78781">
        <ele>241.43</ele>
        <time>2015-01-04T10:43:04Z</time>
      </trkpt>
      <trkpt lat="44.46886" lon="4.78778">
        <ele>240.47</ele>
        <time>2015-01-04T10:43:05Z</time>
      </trkpt>
      <trkpt lat="44.46889" lon="4.78775">
        <ele>239.02</ele>
        <time>2015-01-04T10:43:06Z</time>
      </trkpt>
      <trkpt lat="44.46892" lon="4.78773">
        <ele>238.54</ele>
        <time>2015-01-04T10:43:07Z</time>
      </trkpt>
      <trkpt lat="44.46895" lon="4.78771">
        <ele>238.06</ele>
        <time>2015-01-04T10:43:08Z</time>
      </trkpt>
      <trkpt lat="44.46897" lon="4.78768">
        <ele>237.58</ele>
        <time>2015-01-04T10:43:09Z</time>
      </trkpt>
      <trkpt lat="44.46899" lon="4.78764">
        <ele>237.1</ele>
        <time>2015-01-04T10:43:10Z</time>
      </trkpt>
      <trkpt lat="44.46902" lon="4.78759">
        <ele>236.14</ele>
        <time>2015-01-04T10:43:11Z</time>
      </trkpt>
      <trkpt lat="44.46905" lon="4.78755">
        <ele>235.66</ele>
        <time>2015-01-04T10:43:12Z</time>
      </trkpt>
      <trkpt lat="44.46908" lon="4.7875">
        <ele>234.7</ele>
        <time>2015-01-04T10:43:13Z</time>
      </trkpt>
      <trkpt lat="44.46912" lon="4.78745">
        <ele>233.74</ele>
        <time>2015-01-04T10:43:14Z</time>
      </trkpt>
      <trkpt lat="44.46914" lon="4.78739">
        <ele>233.26</ele>
        <time>2015-01-04T10:43:15Z</time>
      </trkpt>
      <trkpt lat="44.46916" lon="4.78733">
        <ele>232.78</ele>
        <time>2015-01-04T10:43:16Z</time>
      </trkpt>
      <trkpt lat="44.46917" lon="4.78728">
        <ele>231.81</ele>
        <time>2015-01-04T10:43:17Z</time>
      </trkpt>
      <trkpt lat="44.46918" lon="4.78724">
        <ele>230.85</ele>
        <time>2015-01-04T10:43:18Z</time>
      </trkpt>
      <trkpt lat="44.4692" lon="4.78723">
        <ele>230.37</ele>
        <time>2015-01-04T10:43:19Z</time>
      </trkpt>
      <trkpt lat="44.46922" lon="4.78723">
        <ele>230.37</ele>
        <time>2015-01-04T10:43:20Z</time>
      </trkpt>
      <trkpt lat="44.46925" lon="4.78721">
        <ele>229.89</ele>
        <time>2015-01-04T10:43:21Z</time>
      </trkpt>
      <trkpt lat="44.46927" lon="4.78718">
        <ele>229.41</ele>
        <time>2015-01-04T10:43:22Z</time>
      </trkpt>
      <trkpt lat="44.4693" lon="4.78713">
        <ele>228.45</ele>
        <time>2015-01-04T10:43:23Z</time>
      </trkpt>
      <trkpt lat="44.46931" lon="4.78707">
        <ele>227.49</ele>
        <time>2015-01-04T10:43:24Z</time>
      </trkpt>
      <trkpt lat="44.46932" lon="4.78701">
        <ele>227.49</ele>
        <time>2015-01-04T10:43:25Z</time>
      </trkpt>
      <trkpt lat="44.46933" lon="4.78695">
        <ele>226.05</ele>
        <time>2015-01-04T10:43:26Z</time>
      </trkpt>
      <trkpt lat="44.46936" lon="4.7869">
        <ele>224.61</ele>
        <time>2015-01-04T10:43:27Z</time>
      </trkpt>
      <trkpt lat="44.4694" lon="4.78688">
        <ele>224.12</ele>
        <time>2015-01-04T10:43:28Z</time>
      </trkpt>
      <trkpt lat="44.46942" lon="4.78684">
        <ele>223.64</ele>
        <time>2015-01-04T10:43:29Z</time>
      </trkpt>
      <trkpt lat="44.46946" lon="4.78672">
        <ele>221.72</ele>
        <time>2015-01-04T10:43:31Z</time>
      </trkpt>
      <trkpt lat="44.46948" lon="4.78665">
        <ele>220.76</ele>
        <time>2015-01-04T10:43:32Z</time>
      </trkpt>
      <trkpt lat="44.46951" lon="4.78659">
        <ele>220.28</ele>
        <time>2015-01-04T10:43:33Z</time>
      </trkpt>
      <trkpt lat="44.46954" lon="4.78654">
        <ele>220.76</ele>
        <time>2015-01-04T10:43:34Z</time>
      </trkpt>
      <trkpt lat="44.46958" lon="4.7865">
        <ele>220.28</ele>
        <time>2015-01-04T10:43:35Z</time>
      </trkpt>
      <trkpt lat="44.46962" lon="4.78645">
        <ele>219.8</ele>
        <time>2015-01-04T10:43:36Z</time>
      </trkpt>
      <trkpt lat="44.46965" lon="4.78639">
        <ele>219.32</ele>
        <time>2015-01-04T10:43:37Z</time>
      </trkpt>
      <trkpt lat="44.46968" lon="4.78633">
        <ele>218.84</ele>
        <time>2015-01-04T10:43:38Z</time>
      </trkpt>
      <trkpt lat="44.46984" lon="4.78596">
        <ele>217.4</ele>
        <time>2015-01-04T10:43:44Z</time>
      </trkpt>
      <trkpt lat="44.46986" lon="4.78589">
        <ele>216.91</ele>
        <time>2015-01-04T10:43:45Z</time>
      </trkpt>
      <trkpt lat="44.46986" lon="4.78582">
        <ele>217.4</ele>
        <time>2015-01-04T10:43:46Z</time>
      </trkpt>
      <trkpt lat="44.46986" lon="4.78576">
        <ele>216.91</ele>
        <time>2015-01-04T10:43:47Z</time>
      </trkpt>
      <trkpt lat="44.46986" lon="4.78569">
        <ele>216.43</ele>
        <time>2015-01-04T10:43:48Z</time>
      </trkpt>
      <trkpt lat="44.46987" lon="4.78563">
        <ele>216.91</ele>
        <time>2015-01-04T10:43:49Z</time>
      </trkpt>
      <trkpt lat="44.46988" lon="4.78557">
        <ele>216.43</ele>
        <time>2015-01-04T10:43:50Z</time>
      </trkpt>
      <trkpt lat="44.46989" lon="4.78553">
        <ele>215.95</ele>
        <time>2015-01-04T10:43:51Z</time>
      </trkpt>
      <trkpt lat="44.46991" lon="4.78548">
        <ele>215.95</ele>
        <time>2015-01-04T10:43:52Z</time>
      </trkpt>
      <trkpt lat="44.46992" lon="4.78543">
        <ele>215.95</ele>
        <time>2015-01-04T10:43:53Z</time>
      </trkpt>
      <trkpt lat="44.46994" lon="4.78537">
        <ele>215.95</ele>
        <time>2015-01-04T10:43:54Z</time>
      </trkpt>
      <trkpt lat="44.46995" lon="4.78532">
        <ele>215.95</ele>
        <time>2015-01-04T10:43:55Z</time>
      </trkpt>
      <trkpt lat="44.46996" lon="4.78526">
        <ele>215.47</ele>
        <time>2015-01-04T10:43:56Z</time>
      </trkpt>
      <trkpt lat="44.47005" lon="4.78457">
        <ele>213.55</ele>
        <time>2015-01-04T10:44:09Z</time>
      </trkpt>
      <trkpt lat="44.46998" lon="4.7844">
        <ele>212.59</ele>
        <time>2015-01-04T10:44:13Z</time>
      </trkpt>
      <trkpt lat="44.46998" lon="4.78436">
        <ele>212.59</ele>
        <time>2015-01-04T10:44:14Z</time>
      </trkpt>
      <trkpt lat="44.47001" lon="4.78422">
        <ele>212.59</ele>
        <time>2015-01-04T10:44:25Z</time>
      </trkpt>
      <trkpt lat="44.47003" lon="4.78416">
        <ele>214.03</ele>
        <time>2015-01-04T10:44:28Z</time>
      </trkpt>
      <trkpt lat="44.47003" lon="4.78413">
        <ele>213.55</ele>
        <time>2015-01-04T10:44:29Z</time>
      </trkpt>
      <trkpt lat="44.47003" lon="4.78411">
        <ele>213.55</ele>
        <time>2015-01-04T10:44:30Z</time>
      </trkpt>
      <trkpt lat="44.47004" lon="4.78408">
        <ele>213.55</ele>
        <time>2015-01-04T10:44:31Z</time>
      </trkpt>
      <trkpt lat="44.47005" lon="4.78406">
        <ele>213.55</ele>
        <time>2015-01-04T10:44:32Z</time>
      </trkpt>
      <trkpt lat="44.47006" lon="4.78403">
        <ele>213.55</ele>
        <time>2015-01-04T10:44:33Z</time>
      </trkpt>
      <trkpt lat="44.47008" lon="4.78389">
        <ele>214.03</ele>
        <time>2015-01-04T10:44:45Z</time>
      </trkpt>
      <trkpt lat="44.47008" lon="4.78389">
        <ele>214.03</ele>
        <time>2015-01-04T10:44:47Z</time>
      </trkpt>
      <trkpt lat="44.47009" lon="4.78389">
        <ele>213.55</ele>
        <time>2015-01-04T10:44:59Z</time>
      </trkpt>
      <trkpt lat="44.47009" lon="4.7839">
        <ele>214.03</ele>
        <time>2015-01-04T10:45:00Z</time>
      </trkpt>
      <trkpt lat="44.47007" lon="4.78393">
        <ele>213.55</ele>
        <time>2015-01-04T10:45:14Z</time>
      </trkpt>
      <trkpt lat="44.47007" lon="4.78393">
        <ele>214.03</ele>
        <time>2015-01-04T10:45:22Z</time>
      </trkpt>
      <trkpt lat="44.47008" lon="4.7839">
        <ele>213.55</ele>
        <time>2015-01-04T10:45:36Z</time>
      </trkpt>
      <trkpt lat="44.47009" lon="4.78388">
        <ele>213.55</ele>
        <time>2015-01-04T10:45:40Z</time>
      </trkpt>
      <trkpt lat="44.47011" lon="4.78382">
        <ele>213.07</ele>
        <time>2015-01-04T10:45:43Z</time>
      </trkpt>
      <trkpt lat="44.47011" lon="4.78378">
        <ele>213.07</ele>
        <time>2015-01-04T10:45:44Z</time>
      </trkpt>
      <trkpt lat="44.47012" lon="4.78374">
        <ele>213.07</ele>
        <time>2015-01-04T10:45:45Z</time>
      </trkpt>
      <trkpt lat="44.47024" lon="4.78335">
        <ele>214.51</ele>
        <time>2015-01-04T10:45:56Z</time>
      </trkpt>
      <trkpt lat="44.47048" lon="4.78301">
        <ele>211.63</ele>
        <time>2015-01-04T10:46:07Z</time>
      </trkpt>
      <trkpt lat="44.47055" lon="4.78295">
        <ele>211.63</ele>
        <time>2015-01-04T10:46:09Z</time>
      </trkpt>
      <trkpt lat="44.4706" lon="4.78293">
        <ele>211.15</ele>
        <time>2015-01-04T10:46:10Z</time>
      </trkpt>
      <trkpt lat="44.47069" lon="4.78289">
        <ele>211.63</ele>
        <time>2015-01-04T10:46:12Z</time>
      </trkpt>
      <trkpt lat="44.47081" lon="4.78285">
        <ele>210.19</ele>
        <time>2015-01-04T10:46:15Z</time>
      </trkpt>
      <trkpt lat="44.47086" lon="4.78283">
        <ele>210.67</ele>
        <time>2015-01-04T10:46:16Z</time>
      </trkpt>
      <trkpt lat="44.4709" lon="4.78282">
        <ele>210.67</ele>
        <time>2015-01-04T10:46:17Z</time>
      </trkpt>
      <trkpt lat="44.47099" lon="4.7828">
        <ele>209.7</ele>
        <time>2015-01-04T10:46:19Z</time>
      </trkpt>
      <trkpt lat="44.47104" lon="4.78279">
        <ele>209.7</ele>
        <time>2015-01-04T10:46:20Z</time>
      </trkpt>
      <trkpt lat="44.47113" lon="4.78275">
        <ele>209.22</ele>
        <time>2015-01-04T10:46:22Z</time>
      </trkpt>
      <trkpt lat="44.47127" lon="4.78272">
        <ele>208.26</ele>
        <time>2015-01-04T10:46:25Z</time>
      </trkpt>
      <trkpt lat="44.47132" lon="4.78271">
        <ele>207.78</ele>
        <time>2015-01-04T10:46:26Z</time>
      </trkpt>
      <trkpt lat="44.47152" lon="4.78266">
        <ele>207.3</ele>
        <time>2015-01-04T10:46:30Z</time>
      </trkpt>
      <trkpt lat="44.47157" lon="4.78264">
        <ele>206.82</ele>
        <time>2015-01-04T10:46:31Z</time>
      </trkpt>
      <trkpt lat="44.47189" lon="4.78244">
        <ele>209.7</ele>
        <time>2015-01-04T10:46:37Z</time>
      </trkpt>
      <trkpt lat="44.47194" lon="4.78242">
        <ele>204.9</ele>
        <time>2015-01-04T10:46:38Z</time>
      </trkpt>
      <trkpt lat="44.47205" lon="4.78235">
        <ele>204.42</ele>
        <time>2015-01-04T10:46:40Z</time>
      </trkpt>
      <trkpt lat="44.47235" lon="4.78222">
        <ele>201.53</ele>
        <time>2015-01-04T10:46:45Z</time>
      </trkpt>
      <trkpt lat="44.47259" lon="4.78208">
        <ele>200.09</ele>
        <time>2015-01-04T10:46:49Z</time>
      </trkpt>
      <trkpt lat="44.47277" lon="4.78197">
        <ele>198.17</ele>
        <time>2015-01-04T10:46:52Z</time>
      </trkpt>
      <trkpt lat="44.47283" lon="4.78191">
        <ele>198.17</ele>
        <time>2015-01-04T10:46:53Z</time>
      </trkpt>
      <trkpt lat="44.47288" lon="4.78185">
        <ele>198.65</ele>
        <time>2015-01-04T10:46:54Z</time>
      </trkpt>
      <trkpt lat="44.47298" lon="4.78172">
        <ele>197.21</ele>
        <time>2015-01-04T10:46:56Z</time>
      </trkpt>
      <trkpt lat="44.47304" lon="4.78166">
        <ele>197.21</ele>
        <time>2015-01-04T10:46:57Z</time>
      </trkpt>
      <trkpt lat="44.47314" lon="4.78155">
        <ele>196.25</ele>
        <time>2015-01-04T10:46:59Z</time>
      </trkpt>
      <trkpt lat="44.47335" lon="4.78134">
        <ele>194.8</ele>
        <time>2015-01-04T10:47:03Z</time>
      </trkpt>
      <trkpt lat="44.4736" lon="4.78098">
        <ele>193.84</ele>
        <time>2015-01-04T10:47:09Z</time>
      </trkpt>
      <trkpt lat="44.47364" lon="4.78092">
        <ele>192.88</ele>
        <time>2015-01-04T10:47:10Z</time>
      </trkpt>
      <trkpt lat="44.47369" lon="4.78086">
        <ele>192.88</ele>
        <time>2015-01-04T10:47:11Z</time>
      </trkpt>
      <trkpt lat="44.47388" lon="4.78063">
        <ele>191.44</ele>
        <time>2015-01-04T10:47:15Z</time>
      </trkpt>
      <trkpt lat="44.47399" lon="4.78053">
        <ele>190.48</ele>
        <time>2015-01-04T10:47:17Z</time>
      </trkpt>
      <trkpt lat="44.47405" lon="4.78049">
        <ele>190</ele>
        <time>2015-01-04T10:47:18Z</time>
      </trkpt>
      <trkpt lat="44.47412" lon="4.78046">
        <ele>189.52</ele>
        <time>2015-01-04T10:47:19Z</time>
      </trkpt>
      <trkpt lat="44.47419" lon="4.78044">
        <ele>188.08</ele>
        <time>2015-01-04T10:47:20Z</time>
      </trkpt>
      <trkpt lat="44.47426" lon="4.78042">
        <ele>187.11</ele>
        <time>2015-01-04T10:47:21Z</time>
      </trkpt>
      <trkpt lat="44.47433" lon="4.78042">
        <ele>187.11</ele>
        <time>2015-01-04T10:47:22Z</time>
      </trkpt>
      <trkpt lat="44.47457" lon="4.78039">
        <ele>185.67</ele>
        <time>2015-01-04T10:47:25Z</time>
      </trkpt>
      <trkpt lat="44.47503" lon="4.78033">
        <ele>182.31</ele>
        <time>2015-01-04T10:47:31Z</time>
      </trkpt>
      <trkpt lat="44.47526" lon="4.78025">
        <ele>180.87</ele>
        <time>2015-01-04T10:47:34Z</time>
      </trkpt>
      <trkpt lat="44.47534" lon="4.7802">
        <ele>180.38</ele>
        <time>2015-01-04T10:47:35Z</time>
      </trkpt>
      <trkpt lat="44.47575" lon="4.77984">
        <ele>177.02</ele>
        <time>2015-01-04T10:47:41Z</time>
      </trkpt>
      <trkpt lat="44.47582" lon="4.77976">
        <ele>177.02</ele>
        <time>2015-01-04T10:47:42Z</time>
      </trkpt>
      <trkpt lat="44.47587" lon="4.77967">
        <ele>176.54</ele>
        <time>2015-01-04T10:47:43Z</time>
      </trkpt>
      <trkpt lat="44.47609" lon="4.77931">
        <ele>173.66</ele>
        <time>2015-01-04T10:47:47Z</time>
      </trkpt>
      <trkpt lat="44.47616" lon="4.77924">
        <ele>173.17</ele>
        <time>2015-01-04T10:47:48Z</time>
      </trkpt>
      <trkpt lat="44.47627" lon="4.77911">
        <ele>171.73</ele>
        <time>2015-01-04T10:47:50Z</time>
      </trkpt>
      <trkpt lat="44.47632" lon="4.77908">
        <ele>172.21</ele>
        <time>2015-01-04T10:47:51Z</time>
      </trkpt>
      <trkpt lat="44.47637" lon="4.77909">
        <ele>171.73</ele>
        <time>2015-01-04T10:47:52Z</time>
      </trkpt>
      <trkpt lat="44.47641" lon="4.77912">
        <ele>171.25</ele>
        <time>2015-01-04T10:47:53Z</time>
      </trkpt>
      <trkpt lat="44.47643" lon="4.77917">
        <ele>171.25</ele>
        <time>2015-01-04T10:47:54Z</time>
      </trkpt>
      <trkpt lat="44.47644" lon="4.77924">
        <ele>172.21</ele>
        <time>2015-01-04T10:47:55Z</time>
      </trkpt>
      <trkpt lat="44.47644" lon="4.7793">
        <ele>171.25</ele>
        <time>2015-01-04T10:47:56Z</time>
      </trkpt>
      <trkpt lat="44.47644" lon="4.77936">
        <ele>171.73</ele>
        <time>2015-01-04T10:47:57Z</time>
      </trkpt>
      <trkpt lat="44.47647" lon="4.7796">
        <ele>171.73</ele>
        <time>2015-01-04T10:48:01Z</time>
      </trkpt>
      <trkpt lat="44.47648" lon="4.77966">
        <ele>171.73</ele>
        <time>2015-01-04T10:48:02Z</time>
      </trkpt>
      <trkpt lat="44.47647" lon="4.78052">
        <ele>173.17</ele>
        <time>2015-01-04T10:48:17Z</time>
      </trkpt>
      <trkpt lat="44.47645" lon="4.78133">
        <ele>175.1</ele>
        <time>2015-01-04T10:48:32Z</time>
      </trkpt>
      <trkpt lat="44.47643" lon="4.78207">
        <ele>176.06</ele>
        <time>2015-01-04T10:48:45Z</time>
      </trkpt>
      <trkpt lat="44.47642" lon="4.78212">
        <ele>176.06</ele>
        <time>2015-01-04T10:48:46Z</time>
      </trkpt>
      <trkpt lat="44.4764" lon="4.78218">
        <ele>175.58</ele>
        <time>2015-01-04T10:48:47Z</time>
      </trkpt>
      <trkpt lat="44.47638" lon="4.78223">
        <ele>175.1</ele>
        <time>2015-01-04T10:48:48Z</time>
      </trkpt>
      <trkpt lat="44.47635" lon="4.78228">
        <ele>174.62</ele>
        <time>2015-01-04T10:48:49Z</time>
      </trkpt>
      <trkpt lat="44.47631" lon="4.78234">
        <ele>174.62</ele>
        <time>2015-01-04T10:48:50Z</time>
      </trkpt>
      <trkpt lat="44.47628" lon="4.7824">
        <ele>174.14</ele>
        <time>2015-01-04T10:48:51Z</time>
      </trkpt>
      <trkpt lat="44.47626" lon="4.78248">
        <ele>173.66</ele>
        <time>2015-01-04T10:48:52Z</time>
      </trkpt>
      <trkpt lat="44.47627" lon="4.78256">
        <ele>173.66</ele>
        <time>2015-01-04T10:48:53Z</time>
      </trkpt>
      <trkpt lat="44.47629" lon="4.78264">
        <ele>173.66</ele>
        <time>2015-01-04T10:48:54Z</time>
      </trkpt>
      <trkpt lat="44.47632" lon="4.78271">
        <ele>173.66</ele>
        <time>2015-01-04T10:48:55Z</time>
      </trkpt>
      <trkpt lat="44.47634" lon="4.78277">
        <ele>174.14</ele>
        <time>2015-01-04T10:48:56Z</time>
      </trkpt>
      <trkpt lat="44.47649" lon="4.78343">
        <ele>177.5</ele>
        <time>2015-01-04T10:49:09Z</time>
      </trkpt>
      <trkpt lat="44.47652" lon="4.78358">
        <ele>177.5</ele>
        <time>2015-01-04T10:49:13Z</time>
      </trkpt>
      <trkpt lat="44.47662" lon="4.78408">
        <ele>180.87</ele>
        <time>2015-01-04T10:49:26Z</time>
      </trkpt>
      <trkpt lat="44.47673" lon="4.78464">
        <ele>184.23</ele>
        <time>2015-01-04T10:49:42Z</time>
      </trkpt>
      <trkpt lat="44.47682" lon="4.78499">
        <ele>186.15</ele>
        <time>2015-01-04T10:49:53Z</time>
      </trkpt>
      <trkpt lat="44.47684" lon="4.78499">
        <ele>186.15</ele>
        <time>2015-01-04T10:49:54Z</time>
      </trkpt>
      <trkpt lat="44.47685" lon="4.78499">
        <ele>186.63</ele>
        <time>2015-01-04T10:49:55Z</time>
      </trkpt>
      <trkpt lat="44.47687" lon="4.78498">
        <ele>186.15</ele>
        <time>2015-01-04T10:49:56Z</time>
      </trkpt>
      <trkpt lat="44.47689" lon="4.78497">
        <ele>186.15</ele>
        <time>2015-01-04T10:49:57Z</time>
      </trkpt>
      <trkpt lat="44.47703" lon="4.7849">
        <ele>184.71</ele>
        <time>2015-01-04T10:50:03Z</time>
      </trkpt>
      <trkpt lat="44.47752" lon="4.7847">
        <ele>182.31</ele>
        <time>2015-01-04T10:50:18Z</time>
      </trkpt>
      <trkpt lat="44.47794" lon="4.78452">
        <ele>179.42</ele>
        <time>2015-01-04T10:50:27Z</time>
      </trkpt>
      <trkpt lat="44.47805" lon="4.78448">
        <ele>178.94</ele>
        <time>2015-01-04T10:50:29Z</time>
      </trkpt>
      <trkpt lat="44.4781" lon="4.78445">
        <ele>178.46</ele>
        <time>2015-01-04T10:50:30Z</time>
      </trkpt>
      <trkpt lat="44.47815" lon="4.78444">
        <ele>177.5</ele>
        <time>2015-01-04T10:50:31Z</time>
      </trkpt>
      <trkpt lat="44.4782" lon="4.78443">
        <ele>177.02</ele>
        <time>2015-01-04T10:50:32Z</time>
      </trkpt>
      <trkpt lat="44.47824" lon="4.78441">
        <ele>176.54</ele>
        <time>2015-01-04T10:50:33Z</time>
      </trkpt>
      <trkpt lat="44.47839" lon="4.78434">
        <ele>175.1</ele>
        <time>2015-01-04T10:50:36Z</time>
      </trkpt>
      <trkpt lat="44.47843" lon="4.7843">
        <ele>175.1</ele>
        <time>2015-01-04T10:50:37Z</time>
      </trkpt>
      <trkpt lat="44.47846" lon="4.78426">
        <ele>174.62</ele>
        <time>2015-01-04T10:50:38Z</time>
      </trkpt>
      <trkpt lat="44.47848" lon="4.78421">
        <ele>174.14</ele>
        <time>2015-01-04T10:50:39Z</time>
      </trkpt>
      <trkpt lat="44.47849" lon="4.78416">
        <ele>174.14</ele>
        <time>2015-01-04T10:50:40Z</time>
      </trkpt>
      <trkpt lat="44.47851" lon="4.7841">
        <ele>173.66</ele>
        <time>2015-01-04T10:50:41Z</time>
      </trkpt>
      <trkpt lat="44.47853" lon="4.78405">
        <ele>173.17</ele>
        <time>2015-01-04T10:50:42Z</time>
      </trkpt>
      <trkpt lat="44.47856" lon="4.78399">
        <ele>172.69</ele>
        <time>2015-01-04T10:50:43Z</time>
      </trkpt>
      <trkpt lat="44.47859" lon="4.78393">
        <ele>172.21</ele>
        <time>2015-01-04T10:50:44Z</time>
      </trkpt>
      <trkpt lat="44.47898" lon="4.78346">
        <ele>169.33</ele>
        <time>2015-01-04T10:50:53Z</time>
      </trkpt>
      <trkpt lat="44.47913" lon="4.78328">
        <ele>167.41</ele>
        <time>2015-01-04T10:50:56Z</time>
      </trkpt>
      <trkpt lat="44.47917" lon="4.78321">
        <ele>166.93</ele>
        <time>2015-01-04T10:50:57Z</time>
      </trkpt>
      <trkpt lat="44.47921" lon="4.78313">
        <ele>166.93</ele>
        <time>2015-01-04T10:50:58Z</time>
      </trkpt>
      <trkpt lat="44.47927" lon="4.78298">
        <ele>166.45</ele>
        <time>2015-01-04T10:51:00Z</time>
      </trkpt>
      <trkpt lat="44.47929" lon="4.78289">
        <ele>165.96</ele>
        <time>2015-01-04T10:51:01Z</time>
      </trkpt>
      <trkpt lat="44.4793" lon="4.7828">
        <ele>165.96</ele>
        <time>2015-01-04T10:51:02Z</time>
      </trkpt>
      <trkpt lat="44.47931" lon="4.78272">
        <ele>165.48</ele>
        <time>2015-01-04T10:51:03Z</time>
      </trkpt>
      <trkpt lat="44.47931" lon="4.78263">
        <ele>165</ele>
        <time>2015-01-04T10:51:04Z</time>
      </trkpt>
      <trkpt lat="44.47932" lon="4.78255">
        <ele>164.52</ele>
        <time>2015-01-04T10:51:05Z</time>
      </trkpt>
      <trkpt lat="44.47934" lon="4.78247">
        <ele>164.52</ele>
        <time>2015-01-04T10:51:06Z</time>
      </trkpt>
      <trkpt lat="44.47937" lon="4.7824">
        <ele>164.52</ele>
        <time>2015-01-04T10:51:07Z</time>
      </trkpt>
      <trkpt lat="44.47941" lon="4.78235">
        <ele>164.52</ele>
        <time>2015-01-04T10:51:08Z</time>
      </trkpt>
      <trkpt lat="44.47945" lon="4.78231">
        <ele>164.52</ele>
        <time>2015-01-04T10:51:09Z</time>
      </trkpt>
      <trkpt lat="44.4795" lon="4.78227">
        <ele>164.52</ele>
        <time>2015-01-04T10:51:10Z</time>
      </trkpt>
      <trkpt lat="44.47954" lon="4.78225">
        <ele>164.04</ele>
        <time>2015-01-04T10:51:11Z</time>
      </trkpt>
      <trkpt lat="44.47959" lon="4.78223">
        <ele>163.56</ele>
        <time>2015-01-04T10:51:12Z</time>
      </trkpt>
      <trkpt lat="44.48014" lon="4.78217">
        <ele>161.16</ele>
        <time>2015-01-04T10:51:26Z</time>
      </trkpt>
      <trkpt lat="44.48082" lon="4.78206">
        <ele>159.24</ele>
        <time>2015-01-04T10:51:42Z</time>
      </trkpt>
      <trkpt lat="44.48141" lon="4.78199">
        <ele>157.79</ele>
        <time>2015-01-04T10:51:54Z</time>
      </trkpt>
      <trkpt lat="44.48146" lon="4.78198">
        <ele>157.31</ele>
        <time>2015-01-04T10:51:55Z</time>
      </trkpt>
      <trkpt lat="44.48151" lon="4.78197">
        <ele>156.35</ele>
        <time>2015-01-04T10:51:56Z</time>
      </trkpt>
      <trkpt lat="44.48155" lon="4.78197">
        <ele>156.35</ele>
        <time>2015-01-04T10:51:57Z</time>
      </trkpt>
      <trkpt lat="44.4816" lon="4.78198">
        <ele>157.31</ele>
        <time>2015-01-04T10:51:58Z</time>
      </trkpt>
      <trkpt lat="44.48164" lon="4.78201">
        <ele>156.83</ele>
        <time>2015-01-04T10:51:59Z</time>
      </trkpt>
      <trkpt lat="44.48173" lon="4.78207">
        <ele>156.35</ele>
        <time>2015-01-04T10:52:01Z</time>
      </trkpt>
      <trkpt lat="44.48178" lon="4.78208">
        <ele>154.91</ele>
        <time>2015-01-04T10:52:02Z</time>
      </trkpt>
      <trkpt lat="44.48184" lon="4.78207">
        <ele>154.91</ele>
        <time>2015-01-04T10:52:03Z</time>
      </trkpt>
      <trkpt lat="44.4819" lon="4.78206">
        <ele>154.43</ele>
        <time>2015-01-04T10:52:04Z</time>
      </trkpt>
      <trkpt lat="44.48196" lon="4.78207">
        <ele>153.95</ele>
        <time>2015-01-04T10:52:05Z</time>
      </trkpt>
      <trkpt lat="44.48203" lon="4.78209">
        <ele>152.99</ele>
        <time>2015-01-04T10:52:06Z</time>
      </trkpt>
      <trkpt lat="44.48222" lon="4.78217">
        <ele>150.58</ele>
        <time>2015-01-04T10:52:09Z</time>
      </trkpt>
      <trkpt lat="44.48231" lon="4.78223">
        <ele>149.62</ele>
        <time>2015-01-04T10:52:11Z</time>
      </trkpt>
      <trkpt lat="44.48233" lon="4.78228">
        <ele>149.62</ele>
        <time>2015-01-04T10:52:12Z</time>
      </trkpt>
      <trkpt lat="44.48235" lon="4.78234">
        <ele>149.14</ele>
        <time>2015-01-04T10:52:13Z</time>
      </trkpt>
      <trkpt lat="44.48249" lon="4.78273">
        <ele>148.18</ele>
        <time>2015-01-04T10:52:20Z</time>
      </trkpt>
      <trkpt lat="44.48249" lon="4.78279">
        <ele>148.18</ele>
        <time>2015-01-04T10:52:21Z</time>
      </trkpt>
      <trkpt lat="44.48249" lon="4.78285">
        <ele>148.18</ele>
        <time>2015-01-04T10:52:22Z</time>
      </trkpt>
      <trkpt lat="44.48244" lon="4.78307">
        <ele>148.66</ele>
        <time>2015-01-04T10:52:26Z</time>
      </trkpt>
      <trkpt lat="44.48245" lon="4.78312">
        <ele>149.14</ele>
        <time>2015-01-04T10:52:27Z</time>
      </trkpt>
      <trkpt lat="44.48248" lon="4.78317">
        <ele>149.62</ele>
        <time>2015-01-04T10:52:28Z</time>
      </trkpt>
      <trkpt lat="44.48252" lon="4.7832">
        <ele>149.14</ele>
        <time>2015-01-04T10:52:29Z</time>
      </trkpt>
      <trkpt lat="44.48256" lon="4.78324">
        <ele>148.66</ele>
        <time>2015-01-04T10:52:30Z</time>
      </trkpt>
      <trkpt lat="44.48259" lon="4.78329">
        <ele>149.62</ele>
        <time>2015-01-04T10:52:31Z</time>
      </trkpt>
      <trkpt lat="44.48262" lon="4.78334">
        <ele>151.06</ele>
        <time>2015-01-04T10:52:32Z</time>
      </trkpt>
      <trkpt lat="44.48265" lon="4.78339">
        <ele>150.58</ele>
        <time>2015-01-04T10:52:33Z</time>
      </trkpt>
      <trkpt lat="44.4827" lon="4.7835">
        <ele>150.58</ele>
        <time>2015-01-04T10:52:35Z</time>
      </trkpt>
      <trkpt lat="44.48272" lon="4.78355">
        <ele>151.06</ele>
        <time>2015-01-04T10:52:36Z</time>
      </trkpt>
      <trkpt lat="44.48275" lon="4.7836">
        <ele>150.58</ele>
        <time>2015-01-04T10:52:37Z</time>
      </trkpt>
      <trkpt lat="44.48276" lon="4.78365">
        <ele>151.06</ele>
        <time>2015-01-04T10:52:38Z</time>
      </trkpt>
      <trkpt lat="44.48278" lon="4.78371">
        <ele>151.06</ele>
        <time>2015-01-04T10:52:39Z</time>
      </trkpt>
      <trkpt lat="44.48281" lon="4.78376">
        <ele>151.54</ele>
        <time>2015-01-04T10:52:40Z</time>
      </trkpt>
      <trkpt lat="44.48283" lon="4.78381">
        <ele>151.54</ele>
        <time>2015-01-04T10:52:41Z</time>
      </trkpt>
      <trkpt lat="44.48286" lon="4.78385">
        <ele>152.03</ele>
        <time>2015-01-04T10:52:42Z</time>
      </trkpt>
      <trkpt lat="44.48322" lon="4.78454">
        <ele>152.99</ele>
        <time>2015-01-04T10:52:57Z</time>
      </trkpt>
      <trkpt lat="44.48336" lon="4.7848">
        <ele>154.43</ele>
        <time>2015-01-04T10:53:04Z</time>
      </trkpt>
      <trkpt lat="44.4835" lon="4.78549">
        <ele>155.87</ele>
        <time>2015-01-04T10:53:18Z</time>
      </trkpt>
      <trkpt lat="44.4836" lon="4.78567">
        <ele>156.83</ele>
        <time>2015-01-04T10:53:23Z</time>
      </trkpt>
      <trkpt lat="44.48363" lon="4.78569">
        <ele>156.35</ele>
        <time>2015-01-04T10:53:24Z</time>
      </trkpt>
      <trkpt lat="44.48367" lon="4.78571">
        <ele>155.87</ele>
        <time>2015-01-04T10:53:25Z</time>
      </trkpt>
      <trkpt lat="44.48395" lon="4.78586">
        <ele>154.91</ele>
        <time>2015-01-04T10:53:37Z</time>
      </trkpt>
      <trkpt lat="44.48397" lon="4.78587">
        <ele>154.43</ele>
        <time>2015-01-04T10:53:41Z</time>
      </trkpt>
      <trkpt lat="44.48401" lon="4.7859">
        <ele>141.93</ele>
        <time>2015-01-04T10:53:44Z</time>
      </trkpt>
      <trkpt lat="44.48403" lon="4.78592">
        <ele>155.87</ele>
        <time>2015-01-04T10:53:45Z</time>
      </trkpt>
      <trkpt lat="44.48411" lon="4.78598">
        <ele>153.47</ele>
        <time>2015-01-04T10:53:48Z</time>
      </trkpt>
      <trkpt lat="44.48445" lon="4.78623">
        <ele>151.54</ele>
        <time>2015-01-04T10:53:58Z</time>
      </trkpt>
      <trkpt lat="44.48489" lon="4.78647">
        <ele>152.99</ele>
        <time>2015-01-04T10:54:12Z</time>
      </trkpt>
      <trkpt lat="44.48526" lon="4.78659">
        <ele>156.35</ele>
        <time>2015-01-04T10:54:24Z</time>
      </trkpt>
      <trkpt lat="44.4858" lon="4.7867">
        <ele>158.27</ele>
        <time>2015-01-04T10:54:42Z</time>
      </trkpt>
      <trkpt lat="44.48626" lon="4.78673">
        <ele>159.72</ele>
        <time>2015-01-04T10:54:57Z</time>
      </trkpt>
      <trkpt lat="44.48661" lon="4.78672">
        <ele>159.24</ele>
        <time>2015-01-04T10:55:10Z</time>
      </trkpt>
      <trkpt lat="44.48707" lon="4.78674">
        <ele>158.75</ele>
        <time>2015-01-04T10:55:24Z</time>
      </trkpt>
      <trkpt lat="44.48777" lon="4.78675">
        <ele>159.24</ele>
        <time>2015-01-04T10:55:43Z</time>
      </trkpt>
      <trkpt lat="44.4883" lon="4.78675">
        <ele>159.72</ele>
        <time>2015-01-04T10:55:58Z</time>
      </trkpt>
      <trkpt lat="44.48896" lon="4.78677">
        <ele>160.2</ele>
        <time>2015-01-04T10:56:16Z</time>
      </trkpt>
      <trkpt lat="44.48957" lon="4.78675">
        <ele>160.2</ele>
        <time>2015-01-04T10:56:32Z</time>
      </trkpt>
      <trkpt lat="44.49024" lon="4.78674">
        <ele>160.68</ele>
        <time>2015-01-04T10:56:48Z</time>
      </trkpt>
      <trkpt lat="44.4911" lon="4.78674">
        <ele>157.79</ele>
        <time>2015-01-04T10:57:07Z</time>
      </trkpt>
      <trkpt lat="44.49115" lon="4.78674">
        <ele>157.79</ele>
        <time>2015-01-04T10:57:08Z</time>
      </trkpt>
      <trkpt lat="44.49156" lon="4.78674">
        <ele>156.83</ele>
        <time>2015-01-04T10:57:18Z</time>
      </trkpt>
      <trkpt lat="44.49221" lon="4.78676">
        <ele>156.83</ele>
        <time>2015-01-04T10:57:33Z</time>
      </trkpt>
      <trkpt lat="44.4925" lon="4.78676">
        <ele>156.35</ele>
        <time>2015-01-04T10:57:39Z</time>
      </trkpt>
      <trkpt lat="44.49254" lon="4.78676">
        <ele>156.83</ele>
        <time>2015-01-04T10:57:40Z</time>
      </trkpt>
      <trkpt lat="44.49264" lon="4.78676">
        <ele>155.87</ele>
        <time>2015-01-04T10:57:42Z</time>
      </trkpt>
      <trkpt lat="44.49269" lon="4.78675">
        <ele>155.87</ele>
        <time>2015-01-04T10:57:43Z</time>
      </trkpt>
      <trkpt lat="44.49274" lon="4.78673">
        <ele>155.87</ele>
        <time>2015-01-04T10:57:44Z</time>
      </trkpt>
      <trkpt lat="44.49279" lon="4.7867">
        <ele>155.87</ele>
        <time>2015-01-04T10:57:45Z</time>
      </trkpt>
      <trkpt lat="44.49282" lon="4.78666">
        <ele>154.91</ele>
        <time>2015-01-04T10:57:46Z</time>
      </trkpt>
      <trkpt lat="44.49286" lon="4.7866">
        <ele>154.91</ele>
        <time>2015-01-04T10:57:47Z</time>
      </trkpt>
      <trkpt lat="44.49289" lon="4.78654">
        <ele>154.91</ele>
        <time>2015-01-04T10:57:48Z</time>
      </trkpt>
      <trkpt lat="44.49302" lon="4.7863">
        <ele>154.43</ele>
        <time>2015-01-04T10:57:52Z</time>
      </trkpt>
      <trkpt lat="44.49338" lon="4.78549">
        <ele>152.99</ele>
        <time>2015-01-04T10:58:05Z</time>
      </trkpt>
      <trkpt lat="44.4936" lon="4.78501">
        <ele>152.51</ele>
        <time>2015-01-04T10:58:13Z</time>
      </trkpt>
      <trkpt lat="44.49362" lon="4.78495">
        <ele>152.51</ele>
        <time>2015-01-04T10:58:14Z</time>
      </trkpt>
      <trkpt lat="44.49365" lon="4.78489">
        <ele>152.03</ele>
        <time>2015-01-04T10:58:15Z</time>
      </trkpt>
      <trkpt lat="44.4939" lon="4.78435">
        <ele>152.03</ele>
        <time>2015-01-04T10:58:26Z</time>
      </trkpt>
      <trkpt lat="44.49392" lon="4.78433">
        <ele>151.54</ele>
        <time>2015-01-04T10:58:27Z</time>
      </trkpt>
      <trkpt lat="44.49395" lon="4.78434">
        <ele>150.58</ele>
        <time>2015-01-04T10:58:28Z</time>
      </trkpt>
      <trkpt lat="44.49398" lon="4.78436">
        <ele>150.1</ele>
        <time>2015-01-04T10:58:29Z</time>
      </trkpt>
      <trkpt lat="44.49401" lon="4.78438">
        <ele>150.58</ele>
        <time>2015-01-04T10:58:30Z</time>
      </trkpt>
      <trkpt lat="44.49404" lon="4.78439">
        <ele>150.1</ele>
        <time>2015-01-04T10:58:31Z</time>
      </trkpt>
      <trkpt lat="44.49407" lon="4.7844">
        <ele>150.1</ele>
        <time>2015-01-04T10:58:32Z</time>
      </trkpt>
      <trkpt lat="44.49452" lon="4.78459">
        <ele>150.1</ele>
        <time>2015-01-04T10:58:46Z</time>
      </trkpt>
      <trkpt lat="44.495" lon="4.78479">
        <ele>150.1</ele>
        <time>2015-01-04T10:59:01Z</time>
      </trkpt>
      <trkpt lat="44.49546" lon="4.78497">
        <ele>152.03</ele>
        <time>2015-01-04T10:59:16Z</time>
      </trkpt>
      <trkpt lat="44.49583" lon="4.78514">
        <ele>151.54</ele>
        <time>2015-01-04T10:59:28Z</time>
      </trkpt>
      <trkpt lat="44.4964" lon="4.78541">
        <ele>151.54</ele>
        <time>2015-01-04T10:59:45Z</time>
      </trkpt>
      <trkpt lat="44.49694" lon="4.78559">
        <ele>152.03</ele>
        <time>2015-01-04T11:00:00Z</time>
      </trkpt>
      <trkpt lat="44.49753" lon="4.78582">
        <ele>152.03</ele>
        <time>2015-01-04T11:00:17Z</time>
      </trkpt>
      <trkpt lat="44.498" lon="4.78601">
        <ele>152.51</ele>
        <time>2015-01-04T11:00:31Z</time>
      </trkpt>
      <trkpt lat="44.4984" lon="4.7862">
        <ele>152.99</ele>
        <time>2015-01-04T11:00:44Z</time>
      </trkpt>
      <trkpt lat="44.49884" lon="4.78632">
        <ele>153.95</ele>
        <time>2015-01-04T11:00:58Z</time>
      </trkpt>
      <trkpt lat="44.49924" lon="4.78641">
        <ele>155.87</ele>
        <time>2015-01-04T11:01:11Z</time>
      </trkpt>
      <trkpt lat="44.49964" lon="4.78654">
        <ele>153.95</ele>
        <time>2015-01-04T11:01:23Z</time>
      </trkpt>
      <trkpt lat="44.49974" lon="4.78658">
        <ele>155.39</ele>
        <time>2015-01-04T11:01:26Z</time>
      </trkpt>
      <trkpt lat="44.50016" lon="4.78673">
        <ele>156.35</ele>
        <time>2015-01-04T11:01:39Z</time>
      </trkpt>
      <trkpt lat="44.50068" lon="4.78689">
        <ele>157.79</ele>
        <time>2015-01-04T11:01:55Z</time>
      </trkpt>
      <trkpt lat="44.50073" lon="4.78677">
        <ele>157.31</ele>
        <time>2015-01-04T11:02:03Z</time>
      </trkpt>
      <trkpt lat="44.50076" lon="4.78672">
        <ele>157.79</ele>
        <time>2015-01-04T11:02:14Z</time>
      </trkpt>
      <trkpt lat="44.50079" lon="4.78658">
        <ele>158.75</ele>
        <time>2015-01-04T11:02:22Z</time>
      </trkpt>
      <trkpt lat="44.50088" lon="4.78633">
        <ele>156.35</ele>
        <time>2015-01-04T11:02:31Z</time>
      </trkpt>
      <trkpt lat="44.50115" lon="4.78613">
        <ele>158.27</ele>
        <time>2015-01-04T11:02:44Z</time>
      </trkpt>
      <trkpt lat="44.5013" lon="4.78612">
        <ele>158.27</ele>
        <time>2015-01-04T11:02:51Z</time>
      </trkpt>
      <trkpt lat="44.50132" lon="4.78602">
        <ele>158.75</ele>
        <time>2015-01-04T11:02:55Z</time>
      </trkpt>
      <trkpt lat="44.50114" lon="4.78592">
        <ele>157.31</ele>
        <time>2015-01-04T11:03:04Z</time>
      </trkpt>
      <trkpt lat="44.50112" lon="4.78596">
        <ele>167.41</ele>
        <time>2015-01-04T11:03:08Z</time>
      </trkpt>
    </trkseg>
  </trk>
</gpx>